     2              OBSERVATION DATA    GPS                 RINEX VERSION / TYPE
teqc 1999Jul19 19991123 03:01:20UTC                         PGM / RUN BY / DATE
                                                            COMMENT
Original Marker Name: 0408                                  COMMENT
Campaign Name: HPGN 1991                                    COMMENT
4-Character Station Name: 0408                              COMMENT
6-Character Antenna Code: TRMSST                            COMMENT
Vertical Measurement Point: BPA                             COMMENT
Vertical Offset to Rinex Ref. Point: 0.0000                 COMMENT
Radial Measurement Point: RRP                               COMMENT
Radial Offset to Rinex Ref. Point: 0.0000                   COMMENT
Antenna Height from Field Measurement: 2.2200 m             COMMENT
                                                            COMMENT
Original XYZ: -2707703.2302 -4257608.2780 3888379.4797      COMMENT
New XYZ position is based on association with SCEC monument COMMENT
E1F8D1P5+0011. Position of that monument is believed to be  COMMENT
valid to within 1 m horizontally; vertical accuracy         COMMENT
should be no worse than 3-times this value.                 COMMENT
                                                            COMMENT
Revised Rinex header created by UCSD GPS archive for        COMMENT
GSAC on 10-Mar-2000 (2000:070) 05:04:40 GMT                 COMMENT
For assistance contact dagnew@ucsd.edu or hjohnson@ucsd.edu COMMENT
                                                            COMMENT
JPL 7252                                                    MARKER NAME
0408                                                        MARKER NUMBER
-Unknown- CALIF DEPT TRANSPORTATION                         OBSERVER / AGENCY
290 TRIMBLE 4000 SST NP 4.30 / SP 4.20                      REC # / TYPE / VERS
103 TR 4000SST L1/L2 GEO                                    ANT # / TYPE
 -2707704.9856 -4257609.3548  3888374.2802                  APPROX POSITION XYZ
        2.2200        0.0000        0.0000                  ANTENNA: DELTA H/E/N
     1     1     0                                          WAVELENGTH FACT L1/2
     5    C1    L1    L2    S1    S2                        # / TYPES OF OBSERV
     0                                                      INTERVAL
  1991     5    21    17    51   15.000000                  TIME OF FIRST OBS
  1991     5    21    23    52   15.000000                  TIME OF LAST OBS
                                                            END OF HEADER
 91  5 21 17 51 15.0000000  0  4G18G 2G11G19
  20693576.445          -0.26217        -0.32633        27.500           2.813
  24141693.273          -0.51315        -0.22431        11.000           0.406
  24418503.430          -0.51215        -0.18231         9.750           0.313
  20703306.789          -0.89917        -0.37332        20.500           1.969
 91  5 21 17 51 30.0000000  0  4G18G 2G11G19
  20696350.070       14575.718 7     11357.55423        27.750           2.813
  24131248.250      -54870.100 5    -42755.63521        10.250           0.438
  24410453.000      -42309.314 5    -32968.02021         9.500           0.500
  20702165.563       -5978.601 7     -4658.32622        21.000           1.969
 91  5 21 17 51 45.0000000  0  4G18G 2G11G19
  20699139.359       29236.434 7     22781.46123        27.500           2.813
  24120809.555     -109726.509 5    -85500.76021        10.500           0.500
  24402413.492      -84570.102 5    -65898.41721         9.750           0.313
  20701038.266      -11921.696 7     -9289.31222        20.250           1.906
 91  5 21 17 52  0.0000000  0  4G18G 2G11G19
  20701946.609       43986.254 7     34274.80223        27.250           2.813
  24110377.125     -164564.799 5   -128231.78321        10.500           0.500
  24394380.828     -126777.967 5    -98787.58921        10.000           0.406
  20699912.531      -17825.606 7    -13889.76522        21.000           1.938
 91  5 21 17 52 15.0000000  0  4G18G 2G11G19
  20704771.688       58833.752 7     45844.25623        27.500           2.781
  24099946.961     -219376.416 5   -170941.99621        11.000           0.469
  24386361.297     -168924.028 5   -131628.59221         9.500           0.438
  20698800.445      -23682.021 7    -18453.20522        20.250           1.969
 91  5 21 17 52 30.0000000  0  4G18G 2G11G19
  20707616.789       73781.298 7     57491.66723        27.500           2.813
  24089522.578     -274158.713 5   -213629.38521        10.750           0.438
  24378351.508     -211005.580 5   -164419.30721        10.000           0.469
  20697693.539      -29488.578 7    -22977.79922        20.750           1.906
 91  5 21 17 52 45.0000000  0  4G18G 2G11G19
  20710480.234       88829.206 7     69217.28623        27.500           2.719
  24079103.195     -328910.901 5   -256293.31221        10.750           0.469
  24370355.961     -253021.582 5   -197158.96821         9.250           0.406
  20696600.000      -35244.618 7    -27463.02622        20.250           1.844
 91  5 21 17 53  0.0000000  0  4G18G 2G11G19
  20713363.492      103981.137 7     81023.95923        27.250           2.719
  24068689.891     -383629.355 5   -298930.94121        10.000           0.469
  24362376.672     -294968.282 5   -229844.61621        10.000           0.438
  20695512.023      -40946.800 7    -31906.28822        20.750           1.906
 91  5 21 17 53 15.0000000  0  5G18G 2G11G16G19
  20716266.359      119238.603 7     92912.86523        27.000           2.688
  24058282.055     -438312.219 5   -341540.86221         9.750           0.531
  24354405.508     -336843.521 5   -262474.59521        10.250           0.469
  24299847.445          -0.84114                         7.250
  20694439.359      -46593.670 7    -36306.44822        20.000           1.906
 91  5 21 17 53 30.0000000  0  5G18G 2G11G16G19
  20719189.781      134602.315 7    104884.56223        27.250           2.688
  24047886.891     -492958.366 5   -384122.16021        10.500           0.625
  24346449.219     -378646.006 5   -295047.89021         9.500           0.469
  24292203.828      -40158.404 5                         7.500
  20693374.516      -52184.358 7    -40662.83122        20.500           1.875
 91  5 21 17 53 45.0000000  0  5G18G 2G11G16G19
  20722132.383      150067.168 7    116935.07323        27.000           2.656
  24037492.258     -547572.966 5   -426678.86921        10.500           0.375
  24338508.984     -420380.559 5   -327568.22321        10.250           0.500
  24284590.570      -80217.958 5                         8.500
  20692321.352      -57724.013 7    -44979.45022        20.250           1.844
 91  5 21 17 54  0.0000000  0  5G18G 2G11G16G19
  20725097.461      165636.919 7    129067.31823        27.250           2.656
  24027106.039     -602152.394 5   -469208.18721        10.250           0.563
  24330579.688     -462043.383 5   -360032.69221        10.500           0.438
  24276980.336     -120175.872 5                         8.750
  20691275.711      -63209.397 7    -49253.77722        20.500           1.781
 91  5 21 17 54 15.0000000  0  5G18G 2G11G16G19
  20728077.484      181310.016 7    141280.09523        26.750           2.719
  24016726.578     -656697.559 5   -511710.80421        10.000           0.438
  24322665.102     -503635.198 5   -392441.80921        10.750           0.500
  24269394.922     -160033.110 5                         8.500
  20690244.742      -68641.629 7    -53486.68522        20.250           1.875
 91  5 21 17 54 30.0000000  0  5G18G 2G11G16G19
  20731082.555      197089.227 7    153575.56023        27.000           2.688
  24006354.695     -711205.289 5   -554184.24521        10.000           0.406
  24314766.289     -545152.710 5   -424793.04121        11.250           0.438
  24261832.211     -199786.875 5        -0.07831         8.750           0.094
  20689219.836      -74017.927 7    -57676.00922        20.750           1.844
 91  5 21 17 54 45.0000000  0  5G18G 2G11G16G19
  20734104.336      212970.190 7    165950.30923        27.000           2.656
  23995990.664     -765679.682 5   -596631.72921        10.500           0.469
  24306878.742     -586599.858 5   -457089.44921        10.500           0.438
  24254285.156     -239440.982 5    -30899.33221         8.750           0.156
  20688208.203      -79342.450 7    -61824.99422        20.250           1.906
 91  5 21 17 55  0.0000000  0  5G18G 2G11G16G19
  20737145.406      228959.547 7    178409.52523        26.750           2.719
  23985626.820     -820114.137 5   -639048.09121        10.000           0.469
  24299009.492     -627969.660 5   -489325.57321        11.250           0.469
  24246761.844     -278988.167 5    -61715.22621         9.000           0.281
  20687205.102      -84608.901 7    -65928.72422        21.000           1.844
 91  5 21 17 55 15.0000000  0  5G18G 2G11G16G19
  20740207.047      245053.765 7    190950.44823        27.000           2.656
  23975275.875     -874511.927 5   -681435.86221        10.250           0.469
  24291148.938     -669265.325 5   -521503.93021        11.500           0.531
  24239252.820     -318432.061 5    -92450.72221         9.000           0.156
  20686215.406      -89820.944 7    -69990.05922        20.500           1.906
 91  5 21 17 55 30.0000000  0  5G18G 2G11G16G19
  20743292.094      261253.696 7    203573.74223        27.250           2.781
  23964929.930     -928871.967 5   -723794.24021         9.750           0.500
  24283301.438     -710485.615 5   -553623.56521        11.250           0.469
  24231766.375     -357771.620 5   -123104.85221         9.000           0.313
  20685231.125      -94977.682 7    -74008.29722        21.000           1.844
 91  5 21 17 55 45.0000000  0  5G18G 2G11G16G19
  20746394.523      277558.753 7    216278.95323        27.250           2.750
  23954596.977     -983194.476 5   -766123.35721        10.500           0.438
  24275474.586     -751630.429 5   -585684.38121        11.500           0.500
  24224298.883     -397007.085 5   -153677.89221         9.250           0.313
  20684262.102     -100079.544 7    -77983.77622        20.250           1.844
 91  5 21 17 56  0.0000000  0  5G18G 2G11G16G19
  20749517.250      293971.386 7    229067.99023        27.000           2.719
  23944265.141    -1037476.721 5   -808421.13521        10.500           0.469
  24267660.750     -792697.095 5   -617684.29921        11.500           0.500
  24216855.547     -436135.492 5   -184167.50321         9.750           0.188
  20683299.234     -105124.211 7    -81914.68822        21.500           1.844
 91  5 21 17 56 15.0000000  0  5G18G 2G11G16G19
  20752661.430      310492.609 7    241941.64923        27.250           2.750
  23933944.063    -1091717.461 5   -850686.54421        10.250           0.469
  24259860.273     -833684.055 6   -649622.11121        12.000           0.438
  24209428.547     -475155.617 5   -214572.76121         9.750           0.219
  20682353.391     -110110.532 7    -85800.13222        20.500           1.875
 91  5 21 17 56 30.0000000  0  5G18G 2G11G16G19
  20755826.336      327119.692 7    254897.78623        27.500           2.750
  23923629.609    -1145919.401 5   -892921.72021        10.250           0.563
  24252076.531     -874593.787 5   -681499.75921        11.500           0.469
  24202023.328     -514069.901 5   -244895.53021         9.750           0.281
  20681413.570     -115041.482 7    -89642.43822        21.250           1.906
 91  5 21 17 56 45.0000000  0  5G18G 2G11G16G19
  20759008.953      343852.452 7    267936.27423        26.750           2.656
  23913322.266    -1200082.246 5   -935126.44321        10.500           0.625
  24244307.859     -915425.770 6   -713316.82121        12.000           0.469
  24194640.227     -552878.270 5   -275135.79321        10.000           0.219
  20680487.250     -119917.036 7    -93441.57522        20.250           1.875
 91  5 21 17 57  0.0000000  0  5G18G 2G11G16G19
  20762215.086      360691.589 7    281057.65223        27.750           2.813
  23903022.656    -1254205.290 5   -977300.15121        10.250           0.594
  24236549.945     -956178.979 5   -745072.50321        11.750           0.406
  24187271.281     -591579.714 5   -305292.70621         9.500           0.250
  20679569.859     -124736.598 7    -97197.08022        21.000           1.938
 91  5 21 17 57 15.0000000  0  5G18G 2G11G16G19
  20765437.273      377633.573 7    294259.17023        27.250           2.688
  23892729.148    -1308291.890 5  -1019445.46621        10.750           0.625
  24228810.445     -996856.582 6   -776769.27021        12.000           0.313
  24179932.141     -630177.609 5   -335368.92021         9.500           0.313
  20678664.406     -129503.818 7   -100911.79922        20.500           1.969
 91  5 21 17 57 30.0000000  0  5G18G 2G11G16G19
  20768681.359      394680.972 7    307542.83323        27.500           2.719
  23882444.375    -1362339.089 5  -1061560.08221        10.500           0.594
  24221084.859    -1037455.425 5   -808404.66521        11.750           0.375
  24172605.352     -668668.906 5   -365362.11721         9.750           0.281
  20677766.922     -134215.825 7   -104583.49522        20.250           1.875
 91  5 21 17 57 45.0000000  0  5G18G 2G11G16G19
  20771946.820      411834.901 7    320909.50423        27.500           2.750
  23872172.438    -1416345.615 5  -1103642.99621        11.000           0.531
  24213372.594    -1077974.080 5   -839977.57121        11.750           0.406
  24165303.500     -707052.388 5   -395271.26921         9.500           0.375
  20676881.102     -138871.690 7   -108211.44822        20.250           1.906
 91  5 21 17 58  0.0000000  0  5G18G 2G11G16G19
  20775231.266      429093.791 7    334357.96023        27.250           2.750
  23861897.805    -1470312.638 5  -1145695.13421        10.750           0.719
  24205676.695    -1118413.700 5   -871488.90121        11.500           0.281
  24158019.641     -745329.116 5   -425097.24521        10.000           0.281
  20676002.453     -143472.961 7   -111796.85422        20.750           1.906
 91  5 21 17 58 15.0000000  0  5G18G 2G11G16G19
  20778536.070      446463.265 7    347892.59023        27.250           2.813
  23851640.109    -1524234.230 5  -1187711.86621        11.000           0.625
  24198001.445    -1158768.153 5   -902933.85521        11.750           0.375
  24150757.680     -783492.969 5   -454835.27121        10.000           0.344
  20675140.789     -148014.161 7   -115335.45622        20.000           1.813
 91  5 21 17 58 30.0000000  0  5G18G 2G11G16G19
  20781862.195      463942.931 7    361513.08323        27.250           2.875
  23841385.344    -1578110.786 5  -1229693.51821        11.000           0.563
  24190338.109    -1199037.461 6   -934312.46421        12.000           0.281
  24143512.227     -821544.469 5   -484485.75321         9.750           0.375
  20674290.047     -152495.763 6   -118827.62022        19.500           1.969
 91  5 21 17 58 45.0000000  0  5G18G 2G11G16G19
  20785208.234      481526.326 7    375214.40023        27.000           2.938
  23831141.711    -1631948.468 5  -1271644.88321        11.500           0.656
  24182689.703    -1239227.609 6   -965629.39421        12.250           0.375
  24136294.430     -859489.536 5   -514053.30421         9.750           0.281
  20673445.047     -156924.023 7   -122278.21722        20.000           1.969
 91  5 21 17 59  0.0000000  0  5G18G 2G11G16G19
  20788573.328      499212.022 7    388995.43523        27.250           2.906
  23820902.789    -1685748.503 5  -1313566.90921        11.250           0.656
  24175055.406    -1279339.689 5   -996885.50221        11.750           0.250
  24129093.813     -897329.394 5   -543538.86321         9.750           0.344
  20672614.031     -161300.565 6   -125688.51622        19.750           1.969
 91  5 21 17 59 15.0000000  0  5G18G 2G11G16G19
  20791959.828      517003.359 7    402858.79023        27.250           2.938
  23810673.484    -1739507.375 5  -1355456.84921        11.250           0.719
  24167436.203    -1319369.842 5  -1028077.76021        11.500           0.250
  24121910.391     -935060.452 5   -572939.63121         9.500           0.250
  20671790.008     -165621.842 7   -129055.74922        20.250           1.969
 91  5 21 17 59 30.0000000  0  5G18G 2G11G16G19
  20795366.070      534904.459 7    416807.66923        27.500           2.875
  23800452.461    -1793220.510 5  -1397311.16321        10.750           0.625
  24159833.938    -1359313.506 5  -1059202.59321        11.000           0.250
  24114753.516     -972678.223 5   -602252.14521         9.500           0.375
  20670980.289     -169883.914 6   -132376.84822        19.750           2.031
 91  5 21 17 59 45.0000000  0  5G18G 2G11G16G19
  20798791.563      552909.101 7    430837.23023        27.000           2.969
  23790236.539    -1846893.899 5  -1439134.49021        11.250           0.531
  24152251.523    -1399176.442 5  -1090264.57621        11.750           0.313
  24107616.063    -1010188.654 5   -631481.01921         9.500           0.281
  20670177.852     -174092.953 7   -135656.62622        20.250           1.844
 91  5 21 18  0  0.0000000  0  5G18G 2G11G16G19
  20802237.211      571016.548 7    444946.90423        27.000           2.906
  23780028.727    -1900528.079 5  -1480927.28921        11.250           0.594
  24144678.461    -1438958.893 5  -1121263.80921        11.250           0.281
  24100499.539    -1047592.115 5   -660626.52421         9.250           0.344
  20669387.938     -178249.604 7   -138895.58022        20.000           1.969
 91  5 21 18  0 15.0000000  0  5G18G 2G11G16G19
  20805704.680      589229.625 7    459138.88223        27.250           2.844
  23769833.773    -1954119.832 5  -1522687.01921        11.500           0.594
  24137126.234    -1478657.526 5  -1152197.73421        11.750           0.344
  24093402.945    -1084885.367 5   -689686.13221         9.000           0.438
  20668604.523     -182350.918 7   -142091.41522        20.500           2.031
 91  5 21 18  0 30.0000000  0  5G18G 2G11G16G19
  20809188.297      607548.048 7    473412.95123        26.500           2.813
  23759645.359    -2007669.308 5  -1564413.80121        11.750           0.719
  24129586.352    -1518272.186 5  -1183066.24621        11.500           0.281
  24086327.289    -1122068.366 5   -718659.86021         9.500           0.313
  20667837.164     -186397.229 7   -145244.39422        20.000           2.031
 91  5 21 18  0 45.0000000  0  5G18G 2G11G16G19
  20812695.320      625970.842 7    487768.34423        26.500           2.938
  23749460.711    -2061177.085 5  -1606108.09421        11.750           0.625
  24122064.844    -1557803.437 6  -1213869.73321        12.250           0.344
  24079268.984    -1159141.847 5   -747548.24521         9.250           0.344
  20667075.250     -190389.375 7   -148355.16722        20.750           2.031
 91  5 21 18  1  0.0000000  0  5G18G 2G11G16G19
  20816220.539      644497.684 7    502204.81723        26.500           2.875
  23739283.992    -2114643.501 5  -1647770.15221        11.250           0.656
  24114558.102    -1597251.289 6  -1244608.26521        12.000           0.344
  24072237.906    -1196106.109 5   -776351.53621         9.750           0.406
  20666326.047     -194327.990 7   -151424.22722        20.500           1.938
 91  5 21 18  1 15.0000000  0  5G18G 2G11G16G19
  20819766.047      663128.486 7    516722.29823        26.250           2.844
  23729119.898    -2168068.166 5  -1689399.68521        11.500           0.625
  24107066.492    -1636615.268 6  -1275281.40121        12.250           0.281
  24065224.734    -1232960.724 5   -805069.37721         9.250           0.281
  20665586.063     -198212.873 7   -154451.41422        20.750           1.906
 91  5 21 18  1 30.0000000  0  5G18G 2G11G16G19
  20823332.352      681864.866 7    531322.04123        26.000           2.875
  23718960.914    -2221449.559 5  -1730995.50021        11.500           0.688
  24099593.297    -1675893.555 6  -1305887.79221        12.000           0.375
  24058234.328    -1269703.932 5   -833700.41121         9.250           0.406
  20664857.094     -202042.667 7   -157435.68222        21.000           1.969
 91  5 21 18  1 45.0000000  0  5G18G 2G11G16G19
  20826917.508      700706.651 7    546003.91422        26.250           2.250
  23708813.328    -2274787.471 5  -1772557.42721        11.750           0.500
  24092134.938    -1715085.878 6  -1336427.17021        12.000           0.344
  24051260.648    -1306335.660 5   -862244.56921         9.500           0.406
  20664138.516     -205817.534 7   -160377.14722        20.250           1.594
 91  5 21 18  2  0.0000000  0  5G18G 2G11G16G19
  20830523.258      719654.519 7    560768.45722        26.000           2.219
  23698671.000    -2328080.884 5  -1814084.68321        11.500           0.531
  24084691.938    -1754190.954 6  -1366898.60321        12.000           0.313
  24044309.000    -1342854.582 5   -890700.83921         9.750           0.250
  20663431.172     -209536.726 7   -163275.22822        20.250           1.563
 91  5 21 18  2 15.0000000  0  5G18G 2G11G16G19
  20834149.016      738709.577 7    575616.52722        25.750           2.250
  23688539.828    -2381328.384 6  -1855576.15621        12.250           0.531
  24077268.242    -1793207.131 6  -1397300.73521        12.500           0.281
  24037382.789    -1379259.453 5   -919068.24421         9.250           0.250
  20662734.633     -213199.016 7   -166128.96522        20.500           1.594
 91  5 21 18  2 30.0000000  0  5G18G 2G11G16G19
  20837795.305      757866.590 7    590544.04723        26.250           2.781
  23678410.570    -2434535.061 5  -1897035.81021        11.500           0.625
  24069859.195    -1832139.391 6  -1427637.47821        12.500           0.438
  24030475.117    -1415555.347 5   -947350.71121         9.000           0.375
  20662047.617     -216809.765 7   -168942.54222        20.250           2.000
 91  5 21 18  2 45.0000000  0  5G18G 2G11G16G19
  20841459.469      777127.539 7    605552.54123        25.750           2.844
  23668293.836    -2487698.668 6  -1938461.92221        12.000           0.656
  24062466.992    -1870985.276 6  -1457906.89921        12.500           0.438
  24023590.617    -1451739.773 5   -975546.32021         9.000           0.313
  20661370.922     -220366.996 7   -171714.42222        20.000           1.906
 91  5 21 18  3  0.0000000  0  5G18G 2G11G16G19
  20845145.195      796494.762 7    620643.84223        26.500           2.656
  23658188.227    -2540816.572 6  -1979852.41921        12.500           0.625
  24055091.461    -1909741.790 6  -1488106.74121        12.250           0.500
  24016728.898    -1487810.135 5  -1003653.08221         8.750           0.281
  20660704.211     -223868.157 7   -174442.61522        20.750           1.813
 91  5 21 18  3 15.0000000  0  5G18G 2G11G16G19
  20848850.242      815964.614 7    635815.12923        26.750           2.656
  23648088.180    -2593892.281 6  -2021210.03421        12.750           0.563
  24047734.313    -1948412.270 6  -1518239.48821        12.500           0.531
  24009885.094    -1523769.689 5  -1031673.46021         8.250           0.375
  20660048.531     -227316.993 7   -177130.02722        20.750           1.969
 91  5 21 18  3 30.0000000  0  5G18G 2G11G16G19
  20852576.266      835538.922 7    651067.79823        27.000           2.594
  23637998.117    -2646923.411 6  -2062532.89521        13.000           0.563
  24040391.180    -1986994.323 6  -1548303.33721        12.250           0.438
  24003062.820    -1559616.306 5  -1059605.85221         8.500           0.313
  20659405.711     -230711.431 6   -179775.05522        19.750           1.938
 91  5 21 18  3 45.0000000  0  5G18G 2G11G16G19
  20856320.586      855219.059 7    666402.93923        26.750           2.719
  23627912.875    -2699908.254 6  -2103819.71821        13.000           0.531
  24033065.180    -2025486.043 6  -1578296.80521        12.250           0.531
  23996264.539    -1595348.399 5  -1087449.01621         8.750           0.344
  20658767.352     -234049.982 7   -182376.53022        20.500           1.906
 91  5 21 18  4  0.0000000  0  5G18G 2G11G16G19
  20860084.852      875002.859 7    681818.85123        26.750           2.719
  23617839.070    -2752849.105 6  -2145072.24121        12.750           0.594
  24025759.617    -2063889.423 6  -1608221.43721        13.000           0.469
  23989486.945    -1630967.908 5  -1115204.44121         9.000           0.313
  20658141.219     -237335.142 7   -184936.40622        21.000           1.875
 91  5 21 18  4 15.0000000  0  5G18G 2G11G16G19
  20863869.969      894891.667 7    697316.58723        26.750           2.781
  23607772.242    -2805744.352 6  -2186289.23621        12.500           0.656
  24018467.195    -2102202.808 6  -1638075.95421        12.500           0.469
  23982727.250    -1666473.316 5  -1142870.96621         9.000           0.344
  20657529.172     -240565.668 7   -187453.70522        20.750           1.969
 91  5 21 18  4 30.0000000  0  5G18G 2G11G16G19
  20867673.656      914884.776 7    712895.59723        26.500           2.656
  23597717.547    -2858594.215 6  -2227470.86021        13.000           0.719
  24011193.289    -2140426.166 6  -1667860.31021        12.750           0.594
  23975993.422    -1701864.646 5  -1170448.59621         9.000           0.438
  20656923.578     -243741.764 7   -189928.59322        20.750           1.969
 91  5 21 18  4 45.0000000  0  5G18G 2G11G16G19
  20871499.938      934983.132 7    728556.61923        27.000           2.656
  23587667.211    -2911397.841 6  -2268616.45621        13.000           0.688
  24003938.305    -2178558.444 6  -1697573.70021        12.500           0.406
  23969280.516    -1737140.975 5  -1197936.60521         8.750           0.375
  20656330.016     -246862.825 7   -192360.59422        20.500           1.969
 91  5 21 18  5  0.0000000  0  5G18G 2G11G16G19
  20875344.508      955187.381 7    744300.15323        26.750           2.688
  23577628.805    -2964154.215 6  -2309725.25021        12.750           0.750
  23996698.672    -2216598.486 6  -1727215.20721        12.500           0.531
  23962586.906    -1772301.440 5  -1225334.34321         9.000           0.406
  20655744.836     -249928.402 7   -194749.36322        20.750           1.938
 91  5 21 18  5 15.0000000  0  5G18G 2G11G16G19
  20879208.914      975498.725 7    760127.14423        26.500           2.781
  23567600.359    -3016861.727 6  -2350795.94521        13.250           0.656
  23989477.977    -2254544.382 6  -1756783.35921        12.750           0.500
  23955921.781    -1807344.407 5  -1252640.51821         9.250           0.375
  20655172.289     -252936.913 7   -197093.66522        20.250           1.875
 91  5 21 18  5 30.0000000  0  5G18G 2G11G16G19
  20883095.828      995914.600 7    776035.58123        27.000           2.625
  23557579.234    -3069522.551 6  -2391830.27121        13.000           0.719
  23982274.188    -2292398.177 6  -1786279.76021        13.000           0.500
  23949282.688    -1842272.007 5  -1279856.81021         9.500           0.281
  20654610.539     -255890.782 7   -199395.38622        20.750           1.781
 91  5 21 18  5 45.0000000  0  5G18G 2G11G16G19
  20886999.047     1016434.173 7    792024.82223        26.500           2.719
  23547566.219    -3122137.645 6  -2432828.95521        13.000           0.719
  23975088.000    -2330160.533 6  -1815704.89121        12.750           0.500
  23942650.492    -1877084.931 5  -1306983.73921         9.250           0.438
  20654059.531     -258791.126 7   -201655.39822        20.500           1.844
 91  5 21 18  6  0.0000000  0  5G18G 2G11G16G19
  20890922.422     1037051.824 7    808090.49423        26.500           2.719
  23537560.258    -3174712.206 6  -2473796.06421        13.000           0.656
  23967919.227    -2367836.488 6  -1845062.70421        12.250           0.625
  23936046.477    -1911788.331 5  -1334025.30321         9.500           0.375
  20653516.180     -261643.367 7   -203877.92822        20.500           1.875
 91  5 21 18  6 15.0000000  0  5G18G 2G11G16G19
  20894865.250     1057771.980 7    824236.03523        26.500           2.719
  23527566.500    -3227241.629 6  -2514728.01221        13.000           0.813
  23960766.164    -2405421.228 6  -1874349.45221        12.750           0.625
  23929462.336    -1946377.332 5  -1360977.75721        10.000           0.344
  20652984.891     -264443.041 7   -206059.50722        20.500           1.938
 91  5 21 18  6 30.0000000  0  5G18G 2G11G16G19
  20898828.250     1078598.410 7    840464.38723        26.250           2.656
  23517579.102    -3279721.870 6  -2555621.61321        13.000           0.750
  23953631.109    -2442910.547 6  -1903561.83021        12.750           0.563
  23922910.305    -1980847.943 5  -1387837.93721        10.250           0.281
  20652461.078     -267186.210 7   -208197.04422        20.500           1.938
 91  5 21 18  6 45.0000000  0  5G18G 2G11G16G19
  20902810.641     1099523.729 7    856769.79923        26.500           2.750
  23507599.438    -3332159.879 6  -2596482.31221        13.000           0.750
  23946516.336    -2480311.302 6  -1932705.22121        12.750           0.594
  23916369.141    -2015207.527 5  -1414611.60821        10.000           0.250
  20651949.305     -269880.343 7   -210296.37722        20.500           1.875
 91  5 21 18  7  0.0000000  0  5G18G 2G11G16G19
  20906811.211     1120553.780 7    873156.81623        26.000           2.625
  23497630.047    -3384549.413 6  -2637305.23421        13.000           0.656
  23939415.727    -2517616.953 6  -1961774.49521        12.500           0.469
  23909849.539    -2049449.664 5  -1441293.77821        10.250           0.250
  20651446.734     -272519.398 7   -212352.78922        20.750           2.094
 91  5 21 18  7 15.0000000  0  5G18G 2G11G16G19
  20910834.055     1141685.735 7    889623.24423        26.000           2.781
  23487669.375    -3436893.278 6  -2678092.58021        13.000           0.625
  23932334.461    -2554830.212 6  -1990771.77221        12.250           0.625
  23903358.109    -2083577.152 5  -1467886.59321        10.750           0.250
  20650954.734     -275106.500 7   -214368.71722        20.750           1.938
 91  5 21 18  7 30.0000000  0  5G18G 2G11G16G19
  20914875.906     1162924.668 7    906173.02323        26.250           2.719
  23477714.500    -3489186.245 6  -2718840.26921        12.500           0.656
  23925271.734    -2591945.674 6  -2019692.84221        12.500           0.500
  23896886.805    -2117584.741 5  -1494386.00321        10.750           0.313
  20650473.586     -277636.502 7   -216340.14722        21.000           1.969
 91  5 21 18  7 45.0000000  0  5G18G 2G11G16G19
  20918935.516     1184261.295 7    922798.93523        26.000           2.750
  23467775.211    -3541437.209 6  -2759555.21821        13.000           0.781
  23918225.531    -2628971.973 6  -2048544.46821        12.750           0.531
  23890436.625    -2151480.981 5  -1520798.62721        10.250           0.156
  20650001.469     -280118.432 7   -218274.12522        20.750           2.031
 91  5 21 18  8  0.0000000  0  5G18G 2G11G16G19
  20923014.602     1205700.310 7    939504.62723        26.000           2.750
  23457841.547    -3593641.092 6  -2800233.49421        13.500           0.781
  23911197.906    -2665903.982 6  -2077322.58921        13.000           0.594
  23884007.438    -2185261.269 5  -1547120.91321         9.750           0.281
  20649537.477     -282547.656 7   -220167.03022        20.500           1.906
 91  5 21 18  8 15.0000000  0  5G18G 2G11G16G19
  20927114.758     1227242.885 7    956291.01423        26.000           2.844
  23447916.281    -3645796.616 6  -2840874.06421        13.250           0.750
  23904187.250    -2702740.116 6  -2106026.00821        12.750           0.469
  23877604.039    -2218923.987 5  -1573351.56721        10.250           0.219
  20649085.750     -284923.087 7   -222018.02222        20.250           1.938
 91  5 21 18  8 30.0000000  0  5G18G 2G11G16G19
  20931232.516     1248887.217 7    973156.69423        26.000           2.750
  23438000.328    -3697905.035 6  -2881477.96321        13.250           0.781
  23897196.156    -2739481.589 6  -2134655.67621        12.500           0.531
  23871219.398    -2252470.303 5  -1599491.52621        10.750           0.219
  20648644.141     -287246.272 7   -223828.30522        21.000           2.000
 91  5 21 18  8 45.0000000  0  5G18G 2G11G16G19
  20935372.984     1270631.867 7    990100.54223        26.250           2.750
  23428091.500    -3749968.133 6  -2922046.52121        13.000           0.781
  23890221.594    -2776129.764 6  -2163212.65121        12.500           0.594
  23864855.227    -2285901.988 5  -1625542.18621        10.250           0.313
  20648211.680     -289519.110 7   -225599.35222        20.500           1.906
 91  5 21 18  9  0.0000000  0  5G18G 2G11G16G19
  20939528.602     1292477.796 7   1007123.31023        26.000           2.719
  23418193.852    -3801984.218 6  -2962578.45321        13.500           0.781
  23883266.570    -2812682.997 6  -2191695.63221        12.250           0.563
  23858515.344    -2319217.281 5  -1651502.09621         9.750           0.281
  20647788.820     -291740.262 7   -227330.12722        20.750           2.000
 91  5 21 18  9 15.0000000  0  5G18G 2G11G16G19
  20943704.734     1314425.590 7   1024225.44623        25.750           2.750
  23408304.109    -3853952.597 6  -3003073.21421        13.750           0.625
  23876330.117    -2849140.151 6  -2220103.75521        12.500           0.531
  23852198.617    -2352415.225 5  -1677370.61121         9.750           0.406
  20647378.609     -293908.961 7   -229020.02822        20.750           1.969
 91  5 21 18  9 30.0000000  0  5G18G 2G11G16G19
  20947902.516     1336477.507 7   1041408.72523        26.000           2.656
  23398425.375    -3905870.625 6  -3043528.74521        13.750           0.688
  23869410.789    -2885498.561 6  -2248434.94121        12.750           0.563
  23845901.094    -2385493.523 5  -1703145.86421        10.000           0.281
  20646973.969     -296022.836 7   -230667.20422        21.000           1.969
 91  5 21 18  9 45.0000000  0  5G18G 2G11G16G19
  20952116.688     1358629.852 7   1058670.26123        25.500           2.719
  23388555.961    -3957741.923 6  -3083947.85421        14.000           0.656
  23862509.805    -2921761.746 6  -2276691.91921        12.500           0.594
  23839629.813    -2418455.694 5  -1728830.63221        10.000           0.344
  20646582.117     -298085.872 7   -232274.77322        20.750           1.938
 91  5 21 18 10  0.0000000  0  5G18G 2G11G16G19
  20956351.625     1380885.365 7   1076012.18423        25.500           2.656
  23378694.094    -4009563.482 6  -3124328.20421        14.000           0.906
  23855628.344    -2957926.465 6  -2304872.17321        13.000           0.406
  23833383.727    -2451298.648 5  -1754422.53521        10.500           0.313
  20646202.219     -300095.178 7   -233840.47222        20.000           2.031
 91  5 21 18 10 15.0000000  0  5G18G 2G11G16G19
  20960606.828     1403243.398 7   1093433.99223        25.750           2.719
  23368839.523    -4061335.627 6  -3164670.05521        13.750           0.781
  23848764.477    -2993992.740 6  -2332975.72921        13.000           0.531
  23827153.484    -2484022.771 5  -1779921.82121        10.000           0.250
  20645827.563     -302051.310 7   -235364.73722        20.500           2.031
 91  5 21 18 10 30.0000000  0  5G18G 2G11G16G19
  20964880.227     1425701.753 7   1110933.97423        25.500           2.719
  23359000.266    -4113060.204 6  -3204974.84521        14.250           0.625
  23841919.398    -3029962.124 6  -2361003.77321        12.750           0.438
  23820947.273    -2516629.728 5  -1805329.80721        10.000           0.438
  20645465.070     -303956.196 7   -236849.07122        20.500           1.938
 91  5 21 18 10 45.0000000  0  5G18G 2G11G16G19
  20969173.656     1448260.394 7   1128512.10523        25.500           2.625
  23349163.719    -4164737.034 6  -3245242.43421        14.000           0.813
  23835092.563    -3065834.361 6  -2388956.13721        12.500           0.469
  23814768.617    -2549119.227 5  -1830646.27021        10.000           0.250
  20645112.680     -305809.855 7   -238293.48122        20.500           1.938
 91  5 21 18 11  0.0000000  0  5G18G 2G11G16G19
  20973485.906     1470919.624 7   1146168.61123        25.750           2.625
  23339339.820    -4216365.595 6  -3285472.40521        14.250           0.813
  23828285.016    -3101608.793 6  -2416832.27521        12.750           0.531
  23808609.852    -2581490.860 5  -1855870.90321         9.500           0.281
  20644772.023     -307612.188 6   -239697.91122        19.500           2.000
 91  5 21 18 11 15.0000000  0  5G18G 2G11G16G19
  20977816.273     1493680.507 7   1163904.33023        25.250           2.594
  23329524.477    -4267944.482 6  -3325663.66121        14.250           0.938
  23821498.195    -3137283.933 6  -2444631.05321        13.500           0.500
  23802472.750    -2613743.229 5  -1881002.58921         9.500           0.406
  20644436.031     -309362.008 7   -241061.41222        20.500           1.906
 91  5 21 18 11 30.0000000  0  5G18G 2G11G16G19
  20982166.719     1516541.717 7   1181718.22823        25.250           2.656
  23319719.063    -4319474.634 6  -3365816.95321        14.000           0.781
  23814726.078    -3172860.443 6  -2472352.97721        12.750           0.531
  23796354.828    -2645877.219 5  -1906042.03021         9.500           0.438
  20644114.641     -311060.322 6   -242384.78222        19.750           1.938
 91  5 21 18 11 45.0000000  0  5G18G 2G11G16G19
  20986537.109     1539506.914 7   1199613.14823        25.750           2.531
  23309923.359    -4370952.195 6  -3405929.26121        14.500           0.750
  23807977.602    -3208334.305 6  -2499994.90621        13.250           0.531
  23790262.180    -2677888.922 5  -1930986.17721         9.000           0.344
  20643800.672     -312703.611 7   -243665.27122        20.250           1.938
 91  5 21 18 12  0.0000000  0  6G18G 2G11G16G19G 6
  20990925.828     1562571.247 7   1217585.32023        25.000           2.500
  23300136.375    -4422381.833 6  -3446004.23521        14.000           0.781
  23801245.500    -3243710.128 6  -2527560.45121        13.750           0.469
  23784194.891    -2709783.332 5  -1955838.94121         9.500           0.344
  20643500.563     -314296.724 6   -244906.66522        19.750           1.969
  24428749.148          -0.29614                         6.250
 91  5 21 18 12 15.0000000  0  6G18G 2G11G16G19G 6
  20995333.969     1585737.110 7   1235636.60923        25.250           2.594
  23290360.141    -4473760.764 6  -3486039.68821        14.250           0.844
  23794530.406    -3278984.892 6  -2555047.25121        12.750           0.469
  23778143.766    -2741557.544 5  -1980598.03621         9.250           0.344
  20643205.609     -315837.017 7   -246106.89622        20.500           2.031
  24420832.727      -41611.615 4                         6.500
 91  5 21 18 12 30.0000000  0  6G18G 2G11G16G19G 6
  20999762.180     1609003.566 7   1253766.28023        25.500           2.500
  23280589.734    -4525089.708 6  -3526036.19221        14.000           0.813
  23787839.969    -3314159.194 6  -2582455.76621        13.250           0.469
  23772130.148    -2773212.091 5  -2005263.90521         9.500           0.344
  20642922.156     -317325.436 6   -247266.71222        19.750           1.969
  24412910.609      -83199.272 4                         6.500
 91  5 21 18 12 45.0000000  0  6G18G 2G11G16G19G 6
  21004208.070     1632370.174 7   1271973.98522        25.500           2.094
  23270833.406    -4576368.678 6  -3565993.75821        14.250           0.656
  23781165.180    -3349232.802 6  -2609785.81921        13.500           0.438
  23766122.219    -2804746.578 5  -2029836.21121         9.000           0.281
  20642647.891     -318762.293 7   -248386.34822        20.500           1.563
  24405004.898     -124763.543 4                         6.500
 91  5 21 18 13  0.0000000  0  6G18G 2G11G16G19G 6
  21008673.758     1655834.965 7   1290258.20522        25.250           2.000
  23261083.875    -4627599.592 6  -3605913.89221        14.250           0.688
  23774509.039    -3384207.398 6  -2637038.71821        13.250           0.375
  23760143.656    -2836163.244 5  -2054316.71721         9.250           0.281
  20642384.469     -320149.771 6   -249467.51622        19.750           1.563
  24397106.055     -166306.557 4                         7.000
 91  5 21 18 13 15.0000000  0  6G18G 2G11G16G19G 6
  21013159.539     1679397.288 7   1308618.42122        26.000           1.844
  23251345.266    -4678782.792 6  -3645796.82421        14.000           0.688
  23767872.789    -3419083.355 6  -2664214.75621        13.250           0.375
  23754190.023    -2867462.724 5  -2078705.88421         9.750           0.406
  20642128.625     -321488.397 7   -250510.60721        20.250           1.469
  24389198.016     -207828.879 4                         6.500
 91  5 21 18 13 30.0000000  0  6G18G 2G11G16G19G 6
  21017658.828     1703058.569 7   1327055.74922        25.000           2.063
  23241612.875    -4729916.740 6  -3685641.38921        14.500           0.781
  23761256.773    -3453858.607 6  -2691312.31021        13.750           0.406
  23748253.719    -2898643.007 5  -2103002.18321         9.500           0.375
  20641883.477     -322776.746 7   -251514.52422        20.250           1.781
  24381292.555     -249329.015 4        -0.41931         6.750           0.125
 91  5 21 18 13 45.0000000  0  6G18G 2G11G16G19G 6
  21022180.711     1726817.280 7   1345568.99922        25.000           2.469
  23231894.875    -4781002.465 6  -3725448.36321        14.500           0.781
  23754655.930    -3488534.307 6  -2718332.30921        13.250           0.375
  23742341.445    -2929705.329 5  -2127206.58421         9.750           0.500
  20641648.617     -324016.113 7   -252480.27322        20.500           2.031
  24373411.469     -290808.329 5    -32321.90721         7.500           0.188
 91  5 21 18 14  0.0000000  0  6G18G 2G11G16G19G 6
  21026720.617     1750673.849 7   1364158.51122        25.250           2.438
  23222181.758    -4832039.305 6  -3765217.26221        14.250           0.781
  23748078.398    -3523109.475 6  -2745273.93821        13.500           0.531
  23736453.844    -2960648.849 5  -2151318.38021        10.000           0.469
  20641421.086     -325205.944 7   -253407.41722        20.500           1.969
  24365517.586     -332266.366 4    -64626.79421         7.000           0.219
 91  5 21 18 14 15.0000000  0  6G18G 2G11G16G19G 6
  21031279.570     1774629.402 7   1382825.14022        25.500           2.438
  23212475.531    -4883026.001 6  -3804947.08221        14.000           0.906
  23741517.555    -3557582.603 6  -2772136.07721        13.500           0.563
  23730588.172    -2991472.360 5  -2175336.68321         9.500           0.469
  20641204.359     -326345.209 7   -254295.16622        20.250           1.969
  24357629.156     -373701.925 4    -96914.16421         7.000           0.250
 91  5 21 18 14 30.0000000  0  6G18G 2G11G16G19G 6
  21035855.633     1798684.789 7   1401569.55822        25.000           1.938
  23202785.383    -4933961.058 6  -3844636.67221        14.250           0.688
  23734975.305    -3591952.124 6  -2798917.48121        13.000           0.469
  23724745.336    -3022174.429 5  -2199260.34421         9.500           0.344
  20640997.422     -327432.766 7   -255142.62222        20.250           1.594
  24349756.695     -415113.959 5   -129183.18221         7.500           0.156
 91  5 21 18 14 45.0000000  0  6G18G 2G11G16G19G 6
  21040453.867     1822840.600 7   1420392.23822        25.500           2.031
  23193099.180    -4984844.013 6  -3884285.65621        14.250           0.688
  23728456.758    -3626217.274 6  -2825617.55421        13.500           0.469
  23718925.742    -3052754.010 5  -2223088.56121         9.750           0.344
  20640799.609     -328468.211 7   -255949.47422        20.000           1.719
  24341879.164     -456502.055 4   -161433.56221         7.250           0.125
 91  5 21 18 15  0.0000000  0  6G18G 2G11G16G19G 6
  21045070.320     1847094.857 7   1439291.62422        25.750           2.031
  23183426.672    -5035676.550 6  -3923895.36021        14.500           0.750
  23721955.453    -3660379.585 6  -2852237.48321        13.250           0.438
  23713131.430    -3083213.154 5  -2246822.94521        10.000           0.281
  20640613.563     -329453.347 7   -256717.12022        20.000           1.719
  24334000.641     -497867.955 4   -193666.65821         7.000           0.156
 91  5 21 18 15 15.0000000  0  6G18G 2G11G16G19G 6
  21049703.688     1871448.897 7   1458268.76922        25.000           2.438
  23173766.086    -5086456.917 6  -3963464.39421        14.500           0.906
  23715474.492    -3694437.126 6  -2878775.76921        13.250           0.531
  23707360.656    -3113550.279 5  -2270462.24321        10.000           0.375
  20640436.617     -330386.835 7   -257444.51822        20.250           1.969
  24326140.508     -539210.209 5   -225881.32321         7.500           0.094
 91  5 21 18 15 30.0000000  0  6G18G 2G11G16G19G 6
  21054357.055     1895902.155 7   1477323.22522        25.250           2.438
  23164114.281    -5137185.220 6  -4002992.87321        14.750           0.844
  23709013.023    -3728390.048 6  -2905232.55621        13.500           0.531
  23701604.844    -3143765.465 5  -2294006.53621         9.750           0.375
  20640268.461     -331269.128 7   -258132.03222        20.000           2.000
  24318277.109     -580529.374 4   -258078.00121         7.250           0.188
 91  5 21 18 15 45.0000000  0  6G18G 2G11G16G19G 6
  21059029.250     1920456.230 7   1496456.23522        25.250           1.938
  23154468.586    -5187859.768 6  -4042479.46721        14.750           0.656
  23702572.289    -3762236.385 6  -2931606.28721        13.750           0.469
  23695885.258    -3173856.720 5  -2317454.25921        10.000           0.438
  20640111.141     -332098.667 7   -258778.43622        20.000           1.563
  24310414.789     -621823.762 4   -290255.36221         7.250           0.031
 91  5 21 18 16  0.0000000  0  6G18G 2G11G16G19G 6
  21063722.281     1945111.534 7   1515668.13522        25.500           2.375
  23144836.195    -5238479.919 6  -4081923.66521        14.500           0.781
  23696151.602    -3795975.343 6  -2957896.34421        13.750           0.594
  23690180.313    -3203823.778 5  -2340805.16521        10.000           0.531
  20639965.172     -332874.787 6   -259383.20422        19.250           2.063
  24302561.125     -663092.937 4   -322413.10621         6.750           0.250
 91  5 21 18 16 15.0000000  0  6G18G 2G11G16G19G 6
  21068432.039     1969869.968 7   1534960.39022        25.250           2.375
  23135213.836    -5289043.467 6  -4121323.76121        14.750           0.938
  23689750.930    -3829604.513 6  -2984100.84521        13.500           0.625
  23684502.602    -3233664.350 5  -2364057.55721        10.250           0.531
  20639825.688     -333595.525 7   -259944.82922        20.000           2.000
  24294723.195     -704334.947 4   -354549.65221         7.000           0.250
 91  5 21 18 16 30.0000000  0  6G18G 2G11G16G19G 6
  21073162.844     1994727.904 7   1554330.17523        25.250           2.500
  23125604.289    -5339553.762 6  -4160682.36421        15.000           0.875
  23683372.641    -3863127.116 6  -3010222.28621        13.500           0.531
  23678845.906    -3263381.616 5  -2387213.85421        10.250           0.469
  20639696.797     -334264.520 7   -260466.13022        20.250           2.094
  24286869.398     -745553.292 4   -386667.77621         6.500           0.281
 91  5 21 18 16 45.0000000  0  6G18G 2G11G16G19G 6
  21077913.203     2019685.156 7   1573777.35423        25.250           2.531
  23116002.195    -5390010.834 6  -4199999.50121        15.000           0.844
  23677014.641    -3896542.952 6  -3036260.55421        13.750           0.625
  23673218.461    -3292975.500 5  -2410274.00721        10.500           0.469
  20639580.188     -334881.911 6   -260947.22122        19.750           2.063
  24279030.813     -786748.170 4   -418767.59721         6.750           0.344
 91  5 21 18 17  0.0000000  0  6G18G 2G11G16G19G 6
  21082679.523     2044742.901 7   1593302.83222        25.000           2.469
  23106409.891    -5440413.096 6  -4239273.92221        14.750           0.938
  23670676.125    -3929850.377 6  -3062214.34721        13.250           0.563
  23667609.156    -3322444.469 5  -2433236.82321        11.000           0.500
  20639472.133     -335446.458 7   -261387.13722        20.000           2.000
  24271200.633     -827918.360 4   -450848.18321         6.500           0.281
 91  5 21 18 17 15.0000000  0  6G18G 2G11G16G19G 6
  21087468.773     2069900.966 7   1612906.48923        25.000           2.563
  23096829.648    -5490760.189 6  -4278505.35721        15.000           0.969
  23664358.148    -3963048.873 6  -3088083.25121        13.750           0.594
  23662018.328    -3351788.258 5  -2456102.08921        10.500           0.438
  20639376.203     -335957.929 7   -261785.69122        20.000           1.906
  24263365.961     -869063.719 4   -482909.43221         6.250           0.313
 91  5 21 18 17 30.0000000  0  6G18G 2G11G16G19G 6
  21092273.750     2095156.185 7   1632585.83223        25.000           2.500
  23087256.977    -5541055.393 6  -4317696.36021        14.750           0.875
  23658062.109    -3996141.384 6  -3113869.57121        13.750           0.625
  23656462.398    -3381010.334 5  -2478872.53421        11.000           0.531
  20639288.750     -336419.720 7   -262145.53822        20.000           2.031
  24255544.094     -910187.485 4   -514953.86021         6.250           0.250
 91  5 21 18 17 45.0000000  0  6G18G 2G11G16G19G 6
  21097097.594     2120507.861 7   1652340.35623        24.750           2.625
  23077699.188    -5591298.743 6  -4356846.95521        15.250           0.875
  23651783.148    -4029127.880 6  -3139573.29721        13.750           0.594
  23650926.375    -3410110.411 5  -2501547.90521        10.750           0.344
  20639209.141     -336832.186 6   -262466.94722        19.750           1.969
  24247720.500     -951290.101 3   -546981.77021         6.000           0.188
 91  5 21 18 18  0.0000000  0  6G18G 2G11G16G19G 6
  21101940.805     2145952.678 7   1672167.44923        25.000           2.594
  23068145.891    -5641493.619 6  -4395959.77421        14.750           0.906
  23645527.438    -4062011.424 6  -3165196.77821        14.000           0.563
  23645413.375    -3439091.838 5  -2524130.81621        11.000           0.500
  20639139.469     -337198.869 7   -262752.68322        20.000           1.938
  24239899.336     -992375.029 4   -578995.92321         6.250           0.219
 91  5 21 18 18 15.0000000  0  6G18G 2G11G16G19G 6
  21106800.313     2171492.485 7   1692068.56123        24.750           2.656
  23058598.891    -5691637.774 6  -4435033.07521        14.500           0.938
  23639287.773    -4094789.692 6  -3190738.22621        14.000           0.594
  23639916.805    -3467952.396 5  -2546619.55621        11.000           0.438
  20639078.945     -337517.495 6   -263000.97522        19.750           2.031
  24232093.492    -1033440.155 4   -610994.64221         6.500           0.406
 91  5 21 18 18 30.0000000  0  6G18G 2G11G16G19G 6
  21111678.281     2197126.923 7   1712043.40623        24.500           2.594
  23049070.727    -5741731.306 6  -4474066.93621        15.500           0.906
  23633072.773    -4127462.630 6  -3216197.61721        14.000           0.719
  23634447.828    -3496692.059 5  -2569014.08621        10.500           0.406
  20639026.547     -337788.536 6   -263212.18322        19.750           1.938
  24224280.352    -1074485.985 4   -642978.30721         6.250           0.281
 91  5 21 18 18 45.0000000  0  6G18G 2G11G16G19G 6
  21116575.445     2222858.425 7   1732093.89323        25.000           2.656
  23039550.367    -5791771.555 6  -4513059.27021        15.500           0.875
  23626874.469    -4160027.507 6  -3241572.79521        14.000           0.656
  23629005.375    -3525308.656 5  -2591312.71921        10.250           0.375
  20638986.352     -338009.587 6   -263384.44322        19.750           2.031
  24216471.164    -1115509.881 4   -674944.91521         6.250           0.281
 91  5 21 18 19  0.0000000  0  6G18G 2G11G16G19G 6
  21121490.328     2248687.922 7   1752220.73423        24.750           2.594
  23030037.148    -5841757.263 6  -4552009.11221        15.250           0.906
  23620700.719    -4192482.828 6  -3266862.60021        14.000           0.531
  23623585.805    -3553800.499 5  -2613514.13521        10.500           0.406
  20638953.094     -338179.698 6                        19.750
  24208672.063    -1156510.905 4   -706893.67621         6.750           0.406
 91  5 21 18 19 15.0000000  0  6G18G 2G11G16G19G 6
  21126422.719     2274611.712 7   1772421.05822        24.500           1.938
  23020532.539    -5891691.852 6  -4590919.11421        15.000           0.688
  23614543.172    -4224831.837 6  -3292069.58021        14.000           0.500
  23618181.961    -3582170.916 5  -2635620.93021        10.250           0.250
  20638929.711     -338302.270 6                        19.750
  24200870.742    -1197492.512 4   -738827.31021         6.750           0.313
 91  5 21 18 19 30.0000000  0  6G18G 2G11G16G19G 6
  21131375.430     2300629.194 7   1792694.38423        24.750           2.656
  23011043.305    -5941575.550 6  -4629789.45721        15.500           0.969
  23608407.852    -4257074.619 6  -3317193.76121        14.250           0.594
  23612804.352    -3610420.333 5  -2657633.45521        10.250           0.344
  20638915.617     -338377.824 6                        19.750
  24193076.406    -1238455.333 4   -770746.28721         6.750           0.344
 91  5 21 18 19 45.0000000  0  6G18G 2G11G16G19G 6
  21136343.359     2326740.032 7   1813040.44823        24.750           2.625
  23001559.078    -5991408.388 6  -4668620.18121        15.250           0.875
  23602291.719    -4289210.902 6  -3342234.97521        14.250           0.625
  23607455.266    -3638548.793 5  -2679551.71521        10.750           0.469
  20638910.453     -338406.350 6                        19.750
  24185288.148    -1279399.424 4   -802650.71921         6.750           0.375
 91  5 21 18 20  0.0000000  0  6G18G 2G11G16G19G 6
  21141331.109     2352944.928 7   1833459.81123        24.750           2.656
  22992087.086    -6041189.452 6  -4707410.55321        15.750           1.000
  23596197.828    -4321239.691 6  -3367192.42021        14.500           0.656
  23602126.008    -3666555.509 5  -2701375.10621        10.750           0.469
  20638913.219     -338387.354 6                        19.750
  24177494.016    -1320324.084 4   -834539.96821         6.500           0.313
 91  5 21 18 20 15.0000000  0  6G18G 2G11G16G19G 6
  21146335.086     2379246.507 7   1853954.51423        24.500           2.656
  22982622.789    -6090915.794 6  -4746158.27721        15.750           1.000
  23590123.156    -4353157.891 6  -3392063.68721        14.250           0.625
  23596818.109    -3694437.099 5  -2723101.01221        10.750           0.375
  20638926.094     -338318.047 6                        19.500
  24169708.195    -1361226.616 4   -866411.99221         6.250           0.375
 91  5 21 18 20 30.0000000  0  6G18G 2G11G16G19G 6
  21151358.594     2405643.039 7   1874523.19923        24.750           2.625
  22973171.547    -6140588.969 6  -4784864.58721        15.500           0.969
  23584069.805    -4384966.964 6  -3416849.92221        14.000           0.719
  23591536.438    -3722195.497 5  -2744730.90421        10.500           0.344
  20638947.992     -338200.243 7                        20.000
  24161939.156    -1402108.790 4   -898268.14321         7.000           0.375
 91  5 21 18 20 45.0000000  0  6G18G 2G11G16G19G 6
  21156399.938     2432136.489 7   1895167.40623        24.500           2.594
  22963729.844    -6190206.727 6  -4823527.70821        15.750           0.969
  23578038.180    -4416664.514 6  -3441549.26321        14.500           0.531
  23586281.719    -3749828.336 5  -2766262.97421        11.000           0.406
  20638982.375     -338031.913 6                        19.750
  24154154.500    -1442968.586 4   -930106.84521         6.500           0.313
 91  5 21 18 21  0.0000000  0  6G18G 2G11G16G19G 6
  21161458.539     2458722.043 7   1915883.38123        24.250           2.719
  22954297.086    -6239773.658 6  -4862151.22621        16.000           1.031
  23572027.383    -4448255.010 6  -3466165.17621        15.000           0.594
  23581039.242    -3777340.230 5  -2787700.82021        10.750           0.344
  20639019.141     -337817.827 7                        20.000
  24146385.008    -1483810.739 4   -961931.80621         6.500           0.313
 91  5 21 18 21 15.0000000  0  6G18G 2G11G16G19G 6
  21166534.945     2485400.562 7   1936671.79623        24.250           2.563
  22944874.977    -6289288.294 6  -4900733.99321        16.000           1.031
  23566037.430    -4479736.711 6  -3490696.32721        15.000           0.594
  23575831.531    -3804729.742 5  -2809043.26721        10.750           0.375
  20639071.133     -337556.675 6   -263031.61722        19.250           1.906
  24138617.391    -1524634.007 4   -993742.07221         7.000           0.313
 91  5 21 18 21 30.0000000  0  6G18G 2G11G16G19G 6
  21171630.234     2512172.363 7   1957532.90023        24.500           2.656
  22935461.211    -6338750.420 6  -4939275.84921        15.750           0.969
  23560066.359    -4511109.159 6  -3515142.34021        14.750           0.688
  23570642.297    -3831996.618 5  -2830290.17421        10.500           0.375
  20639130.883     -337248.278 6   -262791.31622        19.750           1.906
  24130848.461    -1565438.207 4  -1025537.45421         7.000           0.406
 91  5 21 18 21 45.0000000  0  6G18G 2G11G16G19G 6
  21176742.023     2539039.189 7   1978468.05123        24.500           2.594
  22926059.453    -6388157.737 6  -4977774.98321        16.000           0.906
  23554116.617    -4542369.988 6  -3539501.36721        14.500           0.625
  23565477.281    -3859138.705 5  -2851439.85921        10.250           0.406
  20639199.180     -336890.647 6   -262512.64822        19.500           1.969
  24123090.570    -1606221.336 4  -1057316.41721         7.000           0.281
 91  5 21 18 22  0.0000000  0  6G18G 2G11G16G19G 6
  21181873.984     2566002.338 7   1999478.25623        24.500           2.688
  22916669.430    -6437508.637 6  -5016230.17321        16.000           1.031
  23548190.258    -4573517.420 6  -3563772.04321        14.750           0.531
  23560335.008    -3886154.346 5  -2872490.99021        10.250           0.375
  20639276.805     -336482.309 6   -262194.47122        19.750           1.938
  24115329.039    -1646982.069 4  -1089077.94821         7.250           0.344
 91  5 21 18 22 15.0000000  0  6G18G 2G11G16G19G 6
  21187022.953     2593060.295 7   2020562.34423        24.750           2.563
  22907288.438    -6486804.536 6  -5054642.48721        16.000           1.000
  23542285.211    -4604552.722 6  -3587955.34221        15.000           0.656
  23555220.969    -3913044.857 5  -2893444.60821        10.250           0.406
  20639362.352     -336024.754 6   -261837.94322        19.500           1.906
  24107585.188    -1687721.894 5  -1120823.18721         7.750           0.219
 91  5 21 18 22 30.0000000  0  6G18G 2G11G16G19G 6
  21192188.234     2620210.371 7   2041718.20823        24.500           2.625
  22897916.664    -6536047.579 6  -5093013.61621        15.750           0.969
  23536399.305    -4635477.993 6  -3612052.90921        15.000           0.688
  23550123.898    -3939812.562 5  -2914302.55621        10.250           0.438
  20639460.742     -335520.442 6   -261444.97522        19.000           1.938
  24099830.453    -1728443.222 4  -1152553.99321         7.250           0.313
 91  5 21 18 22 45.0000000  0  6G18G 2G11G16G19G 6
  21197373.930     2647455.197 7   2062947.89823        24.750           2.531
  22888556.867    -6585234.906 6  -5131341.34621        15.750           1.000
  23530536.875    -4666290.306 6  -3636062.45021        15.000           0.656
  23545055.023    -3966454.516 5  -2935062.52021        10.000           0.344
  20639564.180     -334966.854 6   -261013.61822        19.500           1.969
  24092084.023    -1769143.557 4  -1184268.44521         7.250           0.281
 91  5 21 18 23  0.0000000  0  6G18G 2G11G16G19G 6
  21202578.516     2674793.612 7   2084250.52423        25.250           2.563
  22879209.180    -6634367.528 6  -5169626.43721        16.000           1.031
  23524694.375    -4696990.306 6  -3659984.48221        14.750           0.625
  23540012.672    -3992971.521 5  -2955725.10121        10.000           0.406
  20639679.148     -334365.018 6   -260544.66522        19.500           2.000
  24084346.133    -1809823.971 4  -1215967.39421         7.250           0.250
 91  5 21 18 23 15.0000000  0  6G18G 2G11G16G19G 6
  21207797.141     2702225.528 7   2105626.00023        25.000           2.563
  22869868.586    -6683445.439 6  -5207868.89221        16.000           1.063
  23518873.500    -4727577.650 6  -3683818.71021        14.750           0.594
  23534988.000    -4019363.522 5  -2976290.28921        10.250           0.281
  20639801.398     -333714.978 6   -260038.15022        19.250           2.031
  24076605.305    -1850484.413 5  -1247650.76521         7.750           0.281
 91  5 21 18 23 30.0000000  0  6G18G 2G11G16G19G 6
  21213035.594     2729750.854 7   2127074.27022        25.250           2.438
  22860539.656    -6732468.259 6  -5246068.43021        16.250           0.969
  23513073.789    -4758051.957 6  -3707564.87421        14.750           0.656
  23529989.453    -4045630.347 5  -2996757.92621        10.250           0.313
  20639938.453     -333016.657 6   -259494.01822        18.000           1.938
  24068876.070    -1891124.898 5  -1279318.59121         8.000           0.281
 91  5 21 18 23 45.0000000  0  6G18G 2G11G16G19G 6
  21218290.625     2757370.165 7   2148595.77022        25.000           2.438
  22851220.883    -6781435.013 6  -5284224.26821        16.000           1.094
  23507296.000    -4788412.128 6  -3731222.10821        14.750           0.688
  23525019.047    -4071770.993 5  -3017127.25921        10.500           0.313
  20640077.727     -332269.267 6   -258911.64322        19.000           1.875
  24061146.813    -1931744.656 5  -1310970.26021         7.750           0.250
 91  5 21 18 24  0.0000000  0  6G18G 2G11G16G19G 6
  21223564.023     2785084.153 7   2170191.04022        25.000           2.438
  22841914.430    -6830344.808 6  -5322335.72421        15.750           1.063
  23501539.203    -4818657.172 6  -3754789.62421        14.750           0.594
  23520066.000    -4097784.555 5  -3037397.55321        10.500           0.438
  20640232.180     -331472.005 6   -258290.41022        18.500           1.844
  24053418.172    -1972342.922 5  -1342605.19921         7.750           0.313
 91  5 21 18 24 15.0000000  0  6G18G 2G11G16G19G 6
  21228855.320     2812891.401 7   2191858.98322        24.750           2.344
  22832619.539    -6879198.813 6  -5360403.71321        16.000           1.063
  23495807.789    -4848788.148 6  -3778268.24421        15.000           0.688
  23515138.930    -4123672.307 5  -3057569.80521        10.750           0.406
  20640390.469     -330626.254 6   -257631.39122        18.750           1.906
  24045695.633    -2012921.096 5  -1374224.47321         7.750           0.188
 91  5 21 18 24 30.0000000  0  6G18G 2G11G16G19G 6
  21234163.789     2840791.623 7   2213599.37822        24.750           2.344
  22823332.195    -6927997.046 6  -5398428.23421        16.250           1.094
  23490095.328    -4878804.860 6  -3801657.84821        14.750           0.656
  23510235.922    -4149434.325 5  -3077644.10021        10.250           0.281
  20640562.742     -329732.500 6   -256934.96722        18.500           1.844
  24037975.781    -2053479.405 5  -1405828.23821         7.500           0.219
 91  5 21 18 24 45.0000000  0  6G18G 2G11G16G19G 6
  21239492.375     2868784.274 7   2235411.78322        25.250           2.313
  22814053.719    -6976739.526 6  -5436409.32021        15.500           1.063
  23484406.047    -4908707.322 6  -3824958.41921        14.750           0.656
  23505358.664    -4175070.824 5  -3097620.57421        10.500           0.469
  20640739.125     -328790.904 6   -256201.27022        19.000           1.875
  24030263.531    -2094018.191 5  -1437416.84221         7.500           0.219
 91  5 21 18 25  0.0000000  0  6G18G 2G11G16G19G 6
  21244834.305     2896868.975 7   2257295.92722        24.750           2.281
  22804791.148    -7025426.527 6  -5474347.16821        16.250           1.031
  23478736.766    -4938495.499 6  -3848169.93121        15.250           0.688
  23500505.352    -4200581.800 5  -3117499.24221        10.500           0.406
  20640927.398     -327801.763 6   -255430.51522        19.250           1.781
  24022550.055    -2134537.692 5  -1468990.41421         7.500           0.250
 91  5 21 18 25 15.0000000  0  6G18G 2G11G16G19G 6
  21250197.164     2925047.661 7   2279253.30222        25.000           2.281
  22795537.156    -7074055.691 6  -5512239.95421        16.250           1.031
  23473090.055    -4968166.911 6  -3871290.46421        15.000           0.656
  23495671.656    -4225964.905 5  -3137278.27221         9.750           0.344
  20641125.922     -326762.864 6   -254620.99322        19.000           1.938
  24014846.211    -2175035.870 5  -1500547.31921         7.750           0.250
 91  5 21 18 25 30.0000000  0  6G18G 2G11G16G19G 6
  21255577.422     2953315.470 7   2301280.12422        25.000           2.281
  22786292.586    -7122631.545 6  -5550091.19921        16.250           1.156
  23467465.391    -4997725.932 6  -3894323.42321        14.750           0.625
  23490868.203    -4251224.937 5  -3156961.39721        10.000           0.375
  20641333.914     -325678.986 6   -253776.42022        18.500           1.781
  24007142.602    -2215517.393 5  -1532091.28221         7.500           0.219
 91  5 21 18 25 45.0000000  0  6G18G 2G11G16G19G 6
  21260972.875     2981672.845 7   2323376.73222        24.750           1.844
  22777059.313    -7171153.649 6  -5587900.56021        16.500           0.875
  23461862.141    -5027171.938 6  -3917268.32121        15.000           0.531
  23486081.344    -4276361.414 5  -3176548.23621         9.750           0.313
  20641546.828     -324549.825 6   -252896.56821        19.250           1.469
  23999442.859    -2255982.066 4  -1563622.13121         7.250           0.125
 91  5 21 18 26  0.0000000  0  6G18G 2G11G16G19G 6
  21266387.500     3010121.802 7   2345544.70622        25.250           1.969
  22767836.313    -7219619.608 6  -5625666.17321        16.000           1.000
  23456279.422    -5056502.318 6  -3940123.11421        14.750           0.531
  23481321.125    -4301371.336 5  -3196036.48821        10.000           0.281
  20641770.367     -323373.008 6   -251979.57222        19.000           1.531
  23991749.727    -2296427.522 5  -1595137.97821         7.750           0.125
 91  5 21 18 26 15.0000000  0  6G18G 2G11G16G19G 6
  21271819.203     3038661.284 7   2367783.22322        25.250           1.813
  22758624.648    -7268030.262 6  -5663388.69121        16.250           1.031
  23450722.125    -5085717.803 6  -3962888.37821        15.000           0.531
  23476588.422    -4326255.946 5  -3215427.08921        10.500           0.344
  20642003.586     -322149.498 6   -251026.19322        19.000           1.500
  23984055.375    -2336854.814 5  -1626639.67921         7.500           0.125
 91  5 21 18 26 30.0000000  0  6G18G 2G11G16G19G 6
  21277266.883     3067294.006 7   2390094.39122        24.750           1.813
  22749424.938    -7316382.456 6  -5701065.65921        16.750           1.031
  23445182.617    -5114815.138 6  -3985561.57621        15.000           0.531
  23471879.953    -4351012.338 5  -3234717.76621        10.000           0.281
  20642245.297     -320876.365 6   -250034.14722        19.000           1.719
  23976367.680    -2377260.979 5  -1658124.92721         7.750           0.281
 91  5 21 18 26 45.0000000  0  6G18G 2G11G16G19G 6
  21282733.445     3096016.826 7   2412475.76822        24.750           1.875
  22740232.945    -7364679.296 6  -5738699.48721        16.750           0.969
  23439670.102    -5143797.117 6  -4008144.89121        15.000           0.469
  23467189.250    -4375643.443 5  -3253910.81821        10.500           0.313
  20642497.133     -319556.856 6   -249005.96722        18.500           1.594
  23968681.211    -2417649.248 5  -1689596.19521         7.500           0.219
 91  5 21 18 27  0.0000000  0  6G18G 2G11G16G19G 6
  21288217.289     3124828.413 7   2434926.30822        25.250           1.750
  22731051.219    -7412921.530 6  -5776290.77321        16.250           0.969
  23434175.828    -5172664.532 6  -4030638.93721        14.750           0.531
  23462525.594    -4400150.185 5  -3273006.97321        10.750           0.344
  20642756.461     -318192.125 6   -247942.55122        18.500           1.500
  23960994.352    -2458020.733 4  -1721054.40521         7.250           0.156
 91  5 21 18 27 15.0000000  0  6G18G 2G11G16G19G 6
  21293714.906     3153729.933 7   2457446.93622        24.750           2.313
  22721881.906    -7461107.695 6  -5813838.35221        16.500           1.188
  23428703.734    -5201415.747 6  -4053042.42321        14.750           0.625
  23457888.719    -4424530.917 5  -3292004.93521        10.750           0.344
  20643024.305     -316780.822 6   -246842.83622        18.500           1.875
  23953321.117    -2498374.138 5  -1752498.52921         7.500           0.219
 91  5 21 18 27 30.0000000  0  6G18G 2G11G16G19G 6
  21299231.148     3182720.644 7   2480037.04822        24.500           1.781
  22712723.875    -7509238.318 6  -5851342.66621        16.750           0.906
  23423255.016    -5230051.257 6  -4075355.77021        14.750           0.500
  23453274.133    -4448786.592 5  -3310905.45121        11.000           0.313
  20643302.289     -315323.502 6   -245707.27522        18.750           1.531
  23945638.570    -2538710.235 4  -1783929.15421         7.000           0.219
 91  5 21 18 27 45.0000000  0  6G18G 2G11G16G19G 6
  21304766.266     3211799.473 7   2502695.83322        24.500           2.063
  22703576.336    -7557314.097 6  -5888804.24221        16.750           1.063
  23417827.484    -5258571.537 6  -4097579.30621        14.250           0.594
  23448682.445    -4472917.662 5  -3329708.86321        11.000           0.406
  20643589.344     -313821.170 6   -244536.63222        18.750           1.719
  23937970.773    -2579029.899 4  -1815346.99621         7.250           0.250
 91  5 21 18 28  0.0000000  0  6G18G 2G11G16G19G 6
  21310316.711     3240967.112 7   2525423.81522        24.500           2.375
  22694437.633    -7605334.030 6  -5926222.29521        16.500           1.125
  23412422.742    -5286975.273 6  -4119712.03621        15.000           0.563
  23444113.703    -4496922.951 5  -3348414.27421        11.000           0.375
  20643881.898     -312272.824 6   -243330.13322        18.750           1.844
  23930301.352    -2619332.068 4  -1846751.20221         7.250           0.250
 91  5 21 18 28 15.0000000  0  6G18G 2G11G16G19G 6
  21315883.336     3270223.740 7   2548221.13822        24.250           2.281
  22685310.859    -7653297.610 6  -5963596.45321        16.750           1.188
  23407039.320    -5315261.886 6  -4141753.51421        14.750           0.531
  23439568.852    -4520802.257 5  -3367021.51321        10.750           0.469
  20644187.000     -310678.375 6   -242087.71722        18.750           1.750
  23922637.305    -2659616.480 4  -1878141.57521         7.250           0.250
 91  5 21 18 28 30.0000000  0  6G18G 2G11G16G19G 6
  21321468.070     3299568.652 7   2571087.26022        24.500           2.281
  22676194.570    -7701205.450 6  -6000927.16021        16.750           1.094
  23401679.547    -5343431.934 6  -4163704.15021        14.750           0.656
  23435048.305    -4544556.057 5  -3385530.97821        10.750           0.438
  20644501.359     -309038.585 6   -240809.96522        18.000           1.844
  23914972.594    -2699884.112 4  -1909518.85021         7.000           0.313
 91  5 21 18 28 45.0000000  0  6G18G 2G11G16G19G 6
  21327071.133     3329006.435 7   2594025.74022        24.750           2.250
  22667089.758    -7749052.504 6  -6038210.51321        17.000           1.219
  23396341.938    -5371480.383 6  -4185560.04821        15.000           0.656
  23430549.227    -4568179.433 5  -3403938.79221        10.250           0.375
  20644821.742     -307348.493 6   -239493.02022        18.750           1.844
  23907317.797    -2740130.129 4  -1940879.28421         6.750           0.281
 91  5 21 18 29  0.0000000  0  6G18G 2G11G16G19G 6
  21332687.406     3358532.120 7   2617032.72022        24.000           2.281
  22657994.359    -7796843.481 6  -6075450.16521        16.750           1.219
  23391026.320    -5399411.713 6  -4207324.67421        14.750           0.656
  23426082.555    -4591677.108 5  -3422248.64721        10.750           0.469
  20645150.320     -305612.991 6   -238140.68322        19.250           1.781
  23899656.703    -2780359.336 4  -1972226.63821         6.500           0.281
 91  5 21 18 29 15.0000000  0  6G18G 2G11G16G19G 6
  21338322.938     3388146.325 7   2640108.67922        24.250           2.313
  22648911.867    -7844577.344 6  -6112645.31221        16.750           1.094
  23385733.766    -5427224.699 6  -4228997.08121        14.750           0.688
  23421631.352    -4615047.888 5  -3440459.63721        10.750           0.438
  20645489.656     -303831.181 6   -236752.26622        18.750           1.781
  23892005.297    -2820570.784 4  -2003560.15921         6.750           0.250
 91  5 21 18 29 30.0000000  0  6G18G 2G11G16G19G 6
  21343974.836     3417846.929 7   2663251.95422        24.250           2.313
  22639837.102    -7892256.296 6  -6149797.67521        16.750           1.313
  23380463.188    -5454921.319 6  -4250578.81821        15.000           0.688
  23417209.156    -4638293.985 5  -3458573.47121        10.500           0.438
  20645835.969     -302005.387 6   -235329.57722        18.500           1.750
  23884355.453    -2860766.778 4  -2034881.61321         6.750           0.375
 91  5 21 18 29 45.0000000  0  6G18G 2G11G16G19G 6
  21349644.320     3447635.944 7   2686464.12222        24.500           2.406
  22630773.859    -7939877.789 6  -6186905.26121        17.000           1.156
  23375214.594    -5482498.978 6  -4272067.86021        14.500           0.594
  23412810.391    -4661413.117 5  -3476588.36121        11.000           0.500
  20646193.633     -300133.330 6   -233870.83622        18.500           1.844
  23876713.383    -2900945.086 4  -2066189.29821         7.250           0.344
 91  5 21 18 30  0.0000000  0  6G18G 2G11G16G19G 6
  21355330.078     3477514.132 7   2709745.77822        24.250           2.344
  22621724.156    -7987440.699 6  -6223967.20121        17.000           1.281
  23369990.617    -5509956.471 6  -4293463.26121        15.000           0.656
  23408435.961    -4684404.175 5  -3494503.44621        11.250           0.469
  20646557.594     -298214.251 6   -232375.45522        18.250           1.719
  23869070.703    -2941104.902 5  -2097482.56321         7.500           0.219
 91  5 21 18 30 15.0000000  0  6G18G 2G11G16G19G 6
  21361032.508     3507479.877 7   2733095.66222        24.500           2.438
  22612685.664    -8034946.381 6  -6260984.54721        16.750           1.063
  23364785.836    -5537294.960 6  -4314765.94121        14.500           0.625
  23404089.930    -4707268.486 5  -3512319.79321        11.750           0.469
  20646932.094     -296249.500 6   -230844.49222        18.250           1.844
  23861430.141    -2981247.717 4  -2128762.59821         7.000           0.219
 91  5 21 18 30 30.0000000  0  6G18G 2G11G16G19G 6
  21366751.594     3537534.085 7   2756514.47022        24.250           2.438
  22603657.555    -8082393.478 6  -6297956.24721        17.250           1.219
  23359609.313    -5564513.045 6  -4335974.79621        14.500           0.656
  23399759.344    -4730004.967 5  -3530036.54121        11.750           0.625
  20647314.336     -294237.837 6   -229276.97522        18.500           1.875
  23853791.016    -3021372.294 5  -2160028.41521         7.500           0.375
 91  5 21 18 30 45.0000000  0  6G18G 2G11G16G19G 6
  21372486.844     3567673.979 7   2780000.05022        24.000           2.375
  22594638.344    -8129784.799 6  -6334884.47821        17.250           1.188
  23354452.469    -5591613.229 6  -4357091.77221        14.750           0.750
  23395455.211    -4752616.240 5  -3547655.70921        11.500           0.438
  20647705.398     -292182.088 6   -227675.11222        18.500           1.813
  23846162.094    -3061481.563 5  -2191282.31321         7.750           0.313
 91  5 21 18 30 59.9990000  0  6G18G 2G11G16G19G 6
  21378238.011     3597899.076 7   2803552.01722        24.000           1.969
  22585631.519    -8177115.336 6  -6371765.35921        17.250           1.063
  23349318.698    -5618591.723 6  -4378113.94321        15.000           0.656
  23391177.120    -4775098.927 5  -3565174.69021        11.250           0.281
  20648104.612     -290080.692 6   -226037.67521        18.500           1.469
  23838531.737    -3101571.194 5  -2222520.89421         7.750           0.281
 91  5 21 18 31 14.9990000  0  6G18G 2G11G16G19G 6
  21384007.901     3628213.822 7   2827173.84722        24.250           1.938
  22576635.464    -8224390.552 6  -6408603.11121        17.250           1.000
  23344204.956    -5645451.176 6  -4399043.33821        14.750           0.469
  23386922.144    -4797455.268 5  -3582595.20921        11.250           0.438
  20648514.175     -287932.876 6   -224364.06122        18.250           1.500
  23830908.737    -3141645.910 5  -2253747.86821         8.000           0.219
 91  5 21 18 31 29.9990000  0  6G18G 2G11G16G19G 6
  21389792.308     3658614.479 7   2850862.62122        24.000           2.313
  22567647.292    -8271608.826 6  -6445396.51121        17.750           1.219
  23339119.636    -5672191.191 6  -4419879.67521        15.000           0.563
  23382692.519    -4819685.335 5  -3599917.34021        11.250           0.406
  20648933.097     -285740.378 6   -222655.63022        18.500           1.719
  23823283.292    -3181704.664 5  -2284962.38621         8.000           0.281
 91  5 21 18 31 44.9990000  0  6G18G 2G11G16G19G 6
  21395594.675     3689101.511 7   2874618.68722        24.250           2.031
  22558674.542    -8318769.088 6  -6482144.70821        17.750           1.063
  23334052.792    -5698810.730 6  -4440622.13821        14.750           0.656
  23378487.769    -4841788.142 5  -3617140.30221        11.000           0.375
  20649357.948     -283502.360 6   -220911.73522        18.250           1.500
  23815664.026    -3221746.670 5  -2316163.87121         8.000           0.281
 91  5 21 18 31 59.9990000  0  6G18G 2G11G16G19G 6
  21401410.948     3719678.164 7   2898444.60322        23.750           2.406
  22549713.589    -8365867.977 6  -6518845.07021        18.000           1.219
  23329010.315    -5725306.323 6  -4461268.00021        15.000           0.656
  23374306.081    -4863760.315 5  -3634261.46321        11.250           0.563
  20649792.784     -281215.505 6   -219129.77622        18.250           1.844
  23808046.394    -3261768.798 5  -2347349.85021         8.250           0.406
 91  5 21 18 32 14.9990000  0  6G18G 2G11G16G19G 6
  21407247.526     3750341.738 7   2922338.24222        24.000           2.250
  22540759.815    -8412908.044 6  -6555499.61021        17.500           1.281
  23323991.894    -5751680.170 6  -4481819.02421        14.750           0.688
  23370145.987    -4885604.451 5  -3651282.86121        11.250           0.469
  20650236.878     -278882.584 6   -217311.92922        18.250           1.688
  23800435.003    -3301773.668 5  -2378522.38021         8.250           0.469
 91  5 21 18 32 29.9990000  0  6G18G 2G11G16G19G 6
  21413099.042     3781094.679 7   2946301.52022        24.000           1.844
  22531822.175    -8459886.504 6  -6592106.13721        18.000           0.938
  23318995.980    -5777929.436 6  -4502272.95621        15.250           0.563
  23366015.714    -4907317.832 5  -3668202.37721        11.250           0.375
  20650688.987     -276501.025 6   -215456.18521        18.250           1.438
  23792827.823    -3341758.747 5  -2409679.49921         8.250           0.344
 91  5 21 18 32 44.9990000  0  6G18G 2G11G16G19G 6
  21418968.206     3811935.492 7   2970333.27222        24.000           2.313
  22522891.792    -8506804.357 6  -6628665.44021        17.750           1.188
  23314024.855    -5804054.902 6  -4522630.42321        15.250           0.688
  23361906.995    -4928901.490 5  -3685020.81121        11.000           0.531
  20651153.511     -274071.912 6   -213563.38122        18.000           1.781
  23785222.003    -3381725.010 5  -2440821.96921         8.500           0.344
 91  5 21 18 32 59.9990000  0  6G18G 2G11G16G19G 6
  21424855.690     3842864.026 7   2994433.37022        24.500           2.406
  22513974.683    -8553661.733 6  -6665177.62421        17.750           1.219
  23309076.784    -5830056.727 6  -4542891.54821        14.750           0.719
  23357829.362    -4950355.728 5  -3701738.39221        11.000           0.563
  20651623.198     -271595.492 6   -211633.72022        18.250           1.656
  23777618.331    -3421672.875 5  -2471950.08421         8.250           0.344
 91  5 21 18 33 14.9990000  0  6G18G 2G11G16G19G 6
  21430754.940     3873878.086 7   3018600.11622        23.750           2.313
  22505068.940    -8600460.477 6  -6701644.11821        17.500           1.219
  23304152.331    -5855936.539 6  -4563057.59821        15.250           0.750
  23353769.495    -4971682.242 5  -3718356.45121        11.250           0.531
  20652103.776     -269073.754 6   -209668.74522        18.000           1.750
  23770022.159    -3461604.419 5  -2503065.48621         8.500           0.406
 91  5 21 18 33 29.9990000  0  6G18G 2G11G16G19G 6
  21436674.370     3904974.351 7   3042830.92022        24.250           2.188
  22496175.690    -8647203.488 6  -6738067.18821        17.750           1.344
  23299249.362    -5881697.102 6  -4583130.73721        15.250           0.781
  23349732.230    -4992883.842 5  -3734877.16321        11.250           0.531
  20652589.776     -266509.635 6   -207670.74722        18.250           1.781
  23762420.753    -3501522.567 5  -2534170.45921         8.500           0.406
 91  5 21 18 33 44.9990000  0  6G18G 2G11G16G19G 6
  21442606.511     3936157.159 7   3067129.15522        23.750           2.188
  22487292.073    -8693886.047 6  -6774443.14821        18.000           1.344
  23294370.862    -5907333.810 6  -4603107.34621        15.250           0.813
  23345724.737    -5013956.152 5  -3751297.16421        11.500           0.563
  20653088.620     -263898.737 6   -205636.29922        18.000           1.813
  23754833.683    -3541423.026 5  -2565261.64321         8.750           0.344
 91  5 21 18 33 59.9990000  0  6G18G 2G11G16G19G 6
  21448556.855     3967427.985 7   3091495.97822        23.500           2.156
  22478419.401    -8740506.510 6  -6810770.72221        18.250           1.281
  23289516.480    -5932844.863 6  -4622986.06521        15.000           0.688
  23341739.644    -5034897.695 5  -3767615.23421        11.500           0.531
  20653594.644     -261239.725 6   -203564.36122        18.250           1.781
  23747239.315    -3581304.155 5  -2596337.76521         8.500           0.313
 91  5 21 18 34 14.9990000  0  6G18G 2G11G16G19G 6
  21454524.245     3998786.824 7   3115931.38122        23.500           2.156
  22469559.862    -8787064.486 6  -6847049.60921        18.000           1.313
  23284686.472    -5958229.703 6  -4642766.42321        15.500           0.719
  23337781.425    -5055707.835 5  -3783830.93621        11.750           0.594
  20654110.026     -258532.297 6   -201454.69122        18.000           1.750
  23739656.230    -3621165.964 5  -2627398.84621         8.500           0.313
 91  5 21 18 34 29.9990000  0  6G18G 2G11G16G19G 6
  21460508.605     4030226.731 7   3140429.95322        23.500           2.188
  22460715.050    -8833566.462 6  -6883284.85321        18.500           1.313
  23279877.745    -5983494.543 6  -4662453.28121        15.250           0.781
  23333841.862    -5076393.273 5  -3799949.45521        11.500           0.594
  20654634.003     -255782.882 6   -199312.30222        18.250           1.719
  23732073.980    -3661014.850 5  -2658449.85021         8.500           0.313
 91  5 21 18 34 44.9990000  0  6G18G 2G11G16G19G 6
  21466507.667     4061753.319 7   3164996.06322        23.500           2.000
  22451874.198    -8880006.798 6  -6919472.07021        18.000           1.313
  23275095.105    -6008633.771 6  -4682042.26321        15.500           0.813
  23329930.948    -5096948.153 5  -3815966.25221        11.000           0.594
  20655165.730     -252986.262 6   -197133.13322        18.000           1.781
  23724495.776    -3700845.470 5  -2689486.60321         8.750           0.375
 91  5 21 18 34 59.9990000  0  6G18G 2G11G16G19G 6
  21472523.300     4093364.981 7   3189628.46422        23.500           2.156
  22443046.472    -8926386.910 6  -6955612.36321        17.750           1.313
  23270335.198    -6033648.486 6  -4701534.22021        15.500           0.688
  23326042.339    -5117373.866 5  -3831882.38921        11.250           0.500
  20655708.042     -250143.744 6   -194918.19922        17.500           1.875
  23716917.839    -3740659.223 5  -2720510.24121         8.750           0.406
 91  5 21 18 35 14.9990000  0  6G18G 2G11G16G19G 6
  21478556.073     4125062.436 7   3214327.71822        23.500           2.031
  22434232.823    -8972705.776 6  -6991704.93621        18.000           1.344
  23265597.800    -6058537.630 6  -4720928.33721        15.250           0.719
  23322178.714    -5137669.617 5  -3847697.26421        11.000           0.563
  20656255.651     -247254.514 6   -192666.86622        18.250           1.781
  23709344.636    -3780455.351 5  -2751520.12921         9.000           0.406
 91  5 21 18 35 29.9990000  0  6G18G 2G11G16G19G 6
  21484604.487     4156848.116 7   3239095.72322        23.250           2.094
  22425433.714    -9018960.450 6  -7027747.48021        18.250           1.344
  23260888.065    -6083298.144 6  -4740222.21021        15.750           0.750
  23318343.659    -5157832.753 5  -3863408.79221        11.000           0.625
  20656815.503     -244315.752 6   -190376.93522        18.000           1.750
  23701777.355    -3820231.048 5  -2782514.09721         8.750           0.375
 91  5 21 18 35 44.9990000  0  6G18G 2G11G16G19G 6
  21490669.034     4188721.067 7   3263931.72522        23.250           2.063
  22416641.831    -9065151.531 6  -7063740.47721        18.250           1.313
  23256198.612    -6107930.471 6  -4759416.20021        15.250           0.719
  23314535.183    -5177863.731 5  -3879017.35521        11.500           0.563
  20657382.847     -241328.234 6   -188049.01622        18.000           1.625
  23694207.776    -3859987.134 5  -2813492.79321         8.500           0.344
 91  5 21 18 35 59.9990000  0  6G18G 2G11G16G19G 6
  21496750.222     4220679.621 7   3288834.43822        23.000           1.969
  22407865.612    -9111280.568 6  -7099685.12521        18.750           1.344
  23251536.206    -6132436.080 6  -4778511.46221        15.750           0.656
  23310747.878    -5197764.363 5  -3894524.34421        11.500           0.500
  20657964.667     -238293.719 6   -185684.47322        17.000           1.625
  23686651.026    -3899725.291 5  -2844457.50921         9.000           0.406
 91  5 21 18 36 14.9990000  0  6G18G 2G11G16G19G 6
  21502848.886     4252722.663 7   3313802.97422        23.000           1.625
  22399098.948    -9157348.172 6  -7135581.90021        18.500           1.063
  23246896.940    -6156815.631 6  -4797508.48021        15.500           0.594
  23306985.651    -5217535.160 5  -3909930.15321        11.750           0.438
  20658547.753     -235213.000 6   -183283.93121        18.000           1.438
  23679083.886    -3939446.606 5  -2875409.11221         8.500           0.250
 91  5 21 18 36 29.9990000  0  6G18G 2G11G16G19G 6
  21508960.276     4284846.669 7   3338834.60622        22.750           2.063
  22390341.620    -9203357.487 6  -7171433.26221        18.250           1.406
  23242278.917    -6181072.013 6  -4816409.53021        15.250           0.844
  23303246.589    -5237179.267 5  -3925237.25621        11.750           0.563
  20659145.370     -232089.205 6   -180849.81722        17.250           1.719
  23671533.714    -3979154.059 5  -2906349.90621         8.500           0.375
 91  5 21 18 36 44.9990000  0  6G18G 2G11G16G19G 6
  21515089.847     4317056.981 7   3363933.48322        22.750           2.000
  22381599.948    -9249303.241 6  -7207235.09721        18.750           1.406
  23237689.347    -6205199.789 6  -4835210.37521        15.500           0.906
  23299528.800    -5256691.411 5  -3940441.52621        11.250           0.594
  20659746.847     -228917.144 6   -178378.09422        18.250           1.750
  23663980.784    -4018842.461 5  -2937275.85121         8.250           0.313
 91  5 21 18 36 59.9990000  0  6G18G 2G11G16G19G 6
  21521236.659     4349352.037 7   3389098.39922        23.250           2.094
  22372867.714    -9295186.597 6  -7242988.30821        18.500           1.375
  23233121.995    -6229200.052 6  -4853911.84221        15.750           0.625
  23295843.565    -5276072.879 5  -3955543.95921        11.500           0.625
  20660357.175     -225698.240 6   -175869.87222        17.750           1.688
  23656430.097    -4058513.317 5  -2968188.13221         8.500           0.344
 91  5 21 18 37 14.9990000  0  6G18G 2G11G16G19G 6
  21527396.753     4381729.978 7   3414327.90022        23.000           2.063
  22364146.917    -9341008.862 6  -7278693.91221        18.500           1.406
  23228578.245    -6253074.087 6  -4872514.96321        16.000           0.750
  23292179.308    -5295325.104 5  -3970545.70821        11.500           0.500
  20660978.823     -222434.102 6   -173326.40022        17.750           1.719
  23648885.120    -4098168.206 5  -2999087.96421         8.250           0.281
 91  5 21 18 37 29.9990000  0  6G18G 2G11G16G19G 6
  21533575.183     4414193.009 7   3439623.70422        22.750           2.125
  22355438.565    -9386767.750 6  -7314350.13322        18.250           1.500
  23224060.683    -6276819.381 6  -4891017.76521        15.750           0.813
  23288540.886    -5314445.642 5  -3985444.81621        11.250           0.531
  20661611.011     -219122.327 6   -170745.81022        17.500           1.719
  23641342.183    -4137804.832 5  -3029973.57921         8.250           0.313
 91  5 21 18 37 44.9990000  0  6G18G 2G11G16G19G 6
  21539768.144     4446736.820 7   3464982.45022        22.750           1.625
  22346743.972    -9432467.419 6  -7349960.21521        18.500           1.188
  23219565.753    -6300439.938 6  -4909423.37021        15.500           0.656
  23284927.464    -5333438.900 5  -4000244.76521        11.500           0.438
  20662249.651     -215767.298 6   -168131.52721        18.000           1.344
  23633801.386    -4177427.589 5  -3060848.39921         8.250           0.313
 91  5 21 18 37 59.9990000  0  6G18G 2G11G16G19G 6
  21545976.636     4479363.003 7   3490405.38322        22.750           1.563
  22338061.347    -9478105.623 6  -7385522.40321        19.000           1.188
  23215094.901    -6323933.471 6  -4927730.00521        15.750           0.656
  23281338.581    -5352302.692 5  -4014943.83021        11.500           0.438
  20662897.276     -212366.944 6   -165481.91022        17.250           1.500
  23626266.589    -4217034.339 5  -3091710.73421         8.250           0.313
 91  5 21 18 38 14.9990000  0  6G18G 2G11G16G19G 6
  21552201.292     4512072.004 7   3515892.86122        22.750           2.000
  22329388.159    -9523681.570 6  -7421036.07022        18.750           1.500
  23210648.878    -6347299.128 6  -4945936.97521        15.750           0.781
  23277773.308    -5371036.237 5  -4029541.39221        11.250           0.625
  20663549.456     -208920.711 6   -162796.54522        17.750           1.719
  23618732.722    -4256624.534 5  -3122560.15521         8.250           0.375
 91  5 21 18 38 29.9990000  0  6G18G 2G11G16G19G 6
  21558441.909     4544864.886 7   3541445.68322        23.000           1.750
  22320723.605    -9569193.893 6  -7456500.16821        18.500           1.438
  23206226.206    -6370535.433 6  -4964043.17121        15.250           0.781
  23274235.073    -5389638.015 5  -4044036.28321        11.500           0.500
  20664216.105     -205427.335 6   -160074.45622        17.750           1.656
  23611202.425    -4296197.005 5  -3153395.77421         8.250           0.344
 91  5 21 18 38 44.9990000  0  6G18G 2G11G16G19G 6
  21564698.042     4577742.177 7   3567064.29122        23.000           2.063
  22312074.487    -9614642.004 6  -7491914.22521        18.000           1.469
  23201829.433    -6393641.694 6  -4982048.02021        15.750           0.844
  23270719.081    -5408107.825 5  -4058428.34621        11.750           0.469
  20664889.245     -201886.211 6   -157315.14522        18.000           1.750
  23603673.987    -4335751.245 5  -3184217.17521         8.500           0.250
 91  5 21 18 38 59.9990000  0  6G18G 2G11G16G19G 6
  21570968.347     4610700.465 7   3592746.00022        22.250           1.625
  22303440.355    -9660028.888 6  -7527280.58221        18.750           1.156
  23197457.706    -6416620.753 6  -4999953.75921        16.000           0.656
  23267231.019    -5426448.900 5  -4072720.09421        11.750           0.406
  20665570.292     -198300.524 6   -154521.12021        18.000           1.344
  23596152.534    -4375290.454 5  -3215026.90221         8.750           0.219
 91  5 21 18 39 14.9990000  0  6G18G 2G11G16G19G 6
  21577257.011     4643740.553 7   3618491.46322        22.750           2.063
  22294815.620    -9705353.471 6  -7562598.39322        19.000           1.625
  23193108.214    -6439471.260 6  -5017759.32221        15.250           0.844
  23263765.206    -5444659.846 5  -4086910.44321        11.250           0.625
  20666264.206     -194669.344 6   -151691.64422        18.250           1.750
  23588627.956    -4414813.642 5  -3245824.12521         8.250           0.313
 91  5 21 18 39 29.9990000  0  6G18G 2G11G16G19G 6
  21583560.026     4676864.748 7   3644302.45222        22.750           2.031
  22286204.331    -9750613.443 6  -7597865.85122        18.750           1.500
  23188785.206    -6462190.916 6  -5035462.92721        16.000           0.781
  23260319.503    -5462738.518 5  -4100997.72021        11.000           0.531
  20666964.136     -190990.358 6   -148824.91322        18.250           1.719
  23581111.190    -4454318.497 5  -3276607.05821         8.500           0.250
 91  5 21 18 39 44.9990000  0  6G18G 2G11G16G19G 6
  21589877.667     4710069.350 7   3670176.09222        22.500           2.094
  22277601.472    -9795812.119 6  -7633085.56021        19.000           1.375
  23184485.815    -6484782.986 6  -5053067.10521        15.500           0.781
  23256905.909    -5480688.150 5  -4114984.44321        11.250           0.531
  20667671.214     -187267.001 6   -145923.60722        18.250           1.813
  23573595.308    -4493808.670 5  -3307378.55821         8.750           0.219
 91  5 21 18 39 59.9990000  0  6G18G 2G11G16G19G 6
  21596214.019     4743354.666 7   3696112.63322        22.750           2.063
  22269011.722    -9840948.746 6  -7668256.90922        18.750           1.500
  23180210.144    -6507246.544 6  -5070571.15521        15.750           0.750
  23253515.081    -5498507.979 5  -4128870.03121        11.000           0.625
  20668388.448     -183498.783 6   -142987.34322        18.000           1.719
  23566089.815    -4533283.475 5  -3338138.09421         9.000           0.188
 91  5 21 18 40 14.9990000  0  6G18G 2G11G16G19G 6
  21602562.308     4776717.543 7   3722109.60822        22.750           2.031
  22260433.386    -9886025.835 6  -7703381.86221        18.500           1.375
  23175960.245    -6529584.189 6  -5087977.09321        15.750           0.781
  23250147.714    -5516200.962 5  -4142656.78121        10.750           0.531
  20669114.198     -179688.579 6   -140018.36922        18.250           1.750
  23558573.503    -4572745.677 5  -3368887.78221         8.500           0.344
 91  5 21 18 40 29.9990000  0  6G18G 2G11G16G19G 6
  21608924.620     4810158.855 7   3748167.69622        22.250           2.063
  22251866.855    -9931042.482 6  -7738459.72921        19.000           1.438
  23171733.636    -6551794.828 6  -5105284.06621        15.250           0.750
  23246807.589    -5533766.172 5  -4156343.94521        11.500           0.625
  20669845.815     -175835.527 6   -137016.00322        17.750           1.813
  23551070.917    -4612194.683 5  -3399627.20821         8.750           0.406
 91  5 21 18 40 44.9990000  0  6G18G 2G11G16G19G 6
  21615304.269     4843678.493 7   3774286.81822        22.250           2.063
  22243314.151    -9975998.736 6  -7773490.53021        19.250           1.406
  23167531.073    -6573878.262 6  -5122491.91621        15.750           0.813
  23243490.237    -5551203.587 5  -4169931.56021        11.500           0.625
  20670587.269     -171939.542 6   -133980.18022        17.750           1.781
  23543562.230    -4651630.456 5  -3430356.32521         8.750           0.344
 91  5 21 18 40 59.9990000  0  6G18G 2G11G16G19G 6
  21621699.308     4877277.517 7   3800467.80022        22.750           2.000
  22234768.245   -10020892.977 6  -7808473.01021        18.750           1.438
  23163354.089    -6595832.816 6  -5139599.33821        15.500           0.781
  23240192.464    -5568511.808 5  -4183418.48121        11.250           0.500
  20671340.253     -167999.201 6   -130909.79722        17.250           1.875
  23536060.159    -4691051.571 5  -3461074.00621         8.750           0.344
 91  5 21 18 41 14.9990000  0  6G18G 2G11G16G19G 6
  21628106.276     4910952.275 7   3826707.79222        22.000           2.063
  22226238.628   -10065728.419 6  -7843409.68721        19.250           1.375
  23159199.011    -6617661.704 6  -5156608.83921        15.750           0.844
  23236925.065    -5585694.065 5  -4196807.25021        11.250           0.625
  20672095.644     -164017.900 6   -127807.50022        18.250           1.813
  23528562.815    -4730461.525 5  -3491782.99821         8.750           0.344
 91  5 21 18 41 29.9990000  0  6G18G 2G11G16G19G 6
  21634529.542     4944708.472 7   3853011.25122        21.750           2.063
  22217718.417   -10110499.254 6  -7878296.00421        19.250           1.438
  23155070.722    -6639358.984 6  -5173515.78721        16.000           0.875
  23233682.347    -5602744.594 5  -4210093.39121        11.500           0.625
  20672861.534     -159990.004 6   -124668.89122        18.500           1.938
  23521067.909    -4769854.569 5  -3522478.80821         9.250           0.438
 91  5 21 18 41 44.9990000  0  6G18G 2G11G16G19G 6
  21640968.597     4978544.035 7   3879376.54322        22.000           2.000
  22209212.097   -10155207.383 6  -7913133.46421        19.250           1.344
  23150966.862    -6660926.528 6  -5190321.64521        15.500           0.875
  23230462.300    -5619665.224 5  -4223278.29821        11.750           0.563
  20673637.511     -155917.552 6   -121495.56722        18.000           1.813
  23513568.003    -4809232.739 5  -3553163.02721         8.750           0.438
 91  5 21 18 41 59.9990000  0  6G18G 2G11G16G19G 6
  21647424.003     5012456.339 7   3905801.63822        22.000           1.969
  22200714.636   -10199854.880 6  -7947923.67921        19.250           1.438
  23146886.308    -6682366.357 6  -5207027.97921        15.750           0.781
  23227266.464    -5636458.321 5  -4236363.82421        11.500           0.594
  20674420.034     -151802.959 6   -118289.40622        18.000           1.781
  23506087.386    -4848598.370 5  -3583837.47321         9.500           0.406
 91  5 21 18 42 14.9990000  0  6G18G 2G11G16G19G 6
  21653890.823     5046449.624 7   3932289.83222        21.500           1.844
  22192230.440   -10244437.206 6  -7982663.11021        19.250           1.469
  23142832.355    -6703673.742 6  -5223631.11421        15.750           0.875
  23224096.831    -5653119.304 5  -4249346.42021        11.500           0.500
  20675212.175     -147641.547 6   -115046.76222        18.250           1.938
  23498593.198    -4887946.974 5  -3614498.66221         9.500           0.375
 91  5 21 18 42 29.9990000  0  6G18G 2G11G16G19G 6
  21660372.206     5080519.225 7   3958837.49922        21.000           1.563
  22183757.190   -10288958.738 6  -8017355.16721        19.500           1.219
  23138801.136    -6724853.069 6  -5240134.46421        15.750           0.750
  23220947.573    -5669652.769 5  -4262229.64021        11.250           0.469
  20676012.667     -143437.948 6   -111771.24322        18.500           1.625
  23491107.401    -4927283.197 5  -3645150.19521         9.500           0.344
 91  5 21 18 42 44.9990000  0  6G18G 2G11G16G19G 6
  21666873.706     5114667.826 7   3985446.71221        21.750           1.375
  22175298.550   -10333416.624 6  -8051997.64521        19.250           1.063
  23134796.815    -6745901.257 6  -5256535.63421        15.750           0.688
  23217828.417    -5686056.031 5  -4275011.39721        11.500           0.469
  20676820.097     -139189.213 6   -108460.55822        18.750           1.500
  23483627.448    -4966604.210 5  -3675789.88221         9.500           0.281
 91  5 21 18 42 59.9990000  0  6G18G 2G11G16G19G 6
  21673384.878     5148895.727 7   4012117.72221        21.000           1.375
  22166851.605   -10377810.220 6  -8086590.01021        19.500           1.250
  23130816.237    -6766817.437 6  -5272833.92921        16.000           0.656
  23214732.159    -5702328.340 5  -4287691.13821        11.250           0.375
  20677637.112     -134894.844 6   -105114.30521        18.750           1.375
  23476146.776    -5005909.467 5  -3706417.29121         9.750           0.375
 91  5 21 18 43 14.9990000  0  6G18G 2G11G16G19G 6
  21679914.519     5183203.773 7   4038851.18922        21.000           1.781
  22158416.089   -10422138.156 6  -8121131.21522        19.500           1.500
  23126861.737    -6787600.428 6  -5289028.44321        15.750           0.906
  23211658.433    -5718468.482 5  -4300267.85921        11.250           0.531
  20678464.784     -130553.949 6   -101731.79822        19.000           1.875
  23468669.636    -5045198.040 5  -3737031.68521         9.500           0.375
 91  5 21 18 43 29.9990000  0  6G18G 2G11G16G19G 6
  21686455.261     5217586.272 7   4065642.66922        20.500           1.750
  22149990.769   -10466405.933 6  -8155625.54422        19.500           1.500
  23122930.159    -6808255.631 6  -5305123.38521        16.000           0.875
  23208610.745    -5734481.946 5  -4312745.88421        11.250           0.438
  20679297.425     -126171.939 6    -98317.25022        18.750           1.813
  23461199.011    -5084475.419 5  -3767637.38221         9.750           0.438
 91  5 21 18 43 44.9990000  0  6G18G 2G11G16G19G 6
  21693013.878     5252045.476 7   4092493.90422        20.750           1.844
  22141578.472   -10510611.059 6  -8190071.05822        19.000           1.625
  23119024.565    -6828780.268 6  -5321116.58921        15.750           0.813
  23205590.058    -5750366.324 5  -4325123.34021        11.250           0.625
  20680141.464     -121746.272 6    -94868.69422        18.750           1.969
  23453724.409    -5123739.127 5  -3798232.39721         9.750           0.344
 91  5 21 18 43 59.9990000  0  6G18G 2G11G16G19G 6
  21699586.175     5286580.247 7   4119404.03421        20.750           1.375
  22133179.690   -10554754.589 6  -8224468.57321        19.250           1.281
  23115144.448    -6849175.347 6  -5337008.83821        15.750           0.656
  23202590.276    -5766122.810 5  -4337401.11821        11.500           0.344
  20680989.995     -117278.157 6    -91387.05422        18.750           1.531
  23446253.151    -5162990.448 5  -3828817.78121         9.500           0.313
 91  5 21 18 44 14.9990000  0  6G18G 2G11G16G19G 6
  21706173.378     5321193.302 7   4146375.16222        20.750           1.563
  22124792.730   -10598833.028 6  -8258815.37322        19.750           1.500
  23111288.487    -6869437.390 6  -5352797.42021        15.500           0.781
  23199617.761    -5781748.002 5  -4349576.59121        11.250           0.438
  20681848.159     -112764.102 6    -87869.62622        18.250           1.781
  23438789.683    -5202226.039 5  -3859390.89821         9.750           0.406
 91  5 21 18 44 29.9990000  0  6G18G 2G11G16G19G 6
  21712775.175     5355887.381 7   4173409.42722        21.000           1.563
  22116415.901   -10642843.535 6  -8293109.23021        19.500           1.469
  23107458.558    -6889563.412 6  -5368480.01421        15.750           0.719
  23196670.964    -5797238.927 5  -4361647.46521        11.750           0.406
  20682717.433     -108201.418 6    -84314.30022        18.250           1.781
  23431325.651    -5241443.190 5  -3889949.65621         9.500           0.344
 91  5 21 18 44 44.9990000  0  6G18G 2G11G16G19G 6
  21719391.745     5390658.418 7   4200503.65522        21.000           1.719
  22108052.269   -10686790.146 6  -8327353.31122        19.000           1.563
  23103653.565    -6909557.348 6  -5384059.68021        16.000           0.813
  23193747.886    -5812600.062 5  -4373617.19021        11.250           0.406
  20683593.714     -103594.460 6    -80724.48522        18.500           1.969
  23423864.839    -5280646.167 5  -3920497.36321         9.250           0.469
 91  5 21 18 44 59.9990000  0  6G18G 2G11G16G19G 6
  21726022.964     5425505.858 7   4227657.42522        21.000           1.750
  22099703.925   -10730672.565 6  -8361547.35622        19.500           1.688
  23099874.323    -6929419.026 6  -5399536.28721        16.000           0.938
  23190848.245    -5827831.089 5  -4385485.53321        11.250           0.531
  20684478.573      -98943.206 6    -77100.13822        18.250           1.938
  23416413.417    -5319834.881 5  -3951033.96421         9.250           0.531
 91  5 21 18 45 14.9990000  0  6G18G 2G11G16G19G 6
  21732669.628     5460435.964 7   4254875.60822        21.000           1.563
  22091366.745   -10774484.583 6  -8395686.54322        19.500           1.719
  23096120.034    -6949141.924 6  -5414904.76021        15.750           0.844
  23187975.308    -5842926.046 5  -4397247.83521        11.250           0.500
  20685375.503      -94241.413 6    -73436.41722        18.750           2.000
  23408951.730    -5359003.114 5  -3981554.58721         9.250           0.469
 91  5 21 18 45 29.9990000  0  6G18G 2G11G16G19G 6
  21739332.323     5495438.317 7   4282150.08422        20.750           1.563
  22083039.925   -10818236.251 6  -8429778.71222        19.000           1.719
  23092392.073    -6968736.056 6  -5430172.88921        15.750           0.781
  23185127.940    -5857894.820 5  -4408911.84221        11.500           0.531
  20686276.823      -89499.269 6    -69741.25322        19.000           2.031
  23401502.675    -5398161.054 5  -4012067.20021         9.000           0.438
 91  5 21 18 45 44.9990000  0  6G18G 2G11G16G19G 6
  21746007.315     5530519.088 7   4309485.66522        21.000           1.688
  22074727.698   -10861921.276 6  -8463818.94622        19.000           1.781
  23088689.300    -6988195.153 6  -5445335.80621        15.500           0.938
  23182306.089    -5872731.035 6  -4420472.52621        12.000           0.531
  20687187.737      -84710.535 6    -66009.78622        18.750           2.000
  23394053.980    -5437302.593 5  -4042567.03921         9.250           0.500
 91  5 21 18 45 59.9990000  0  6G18G 2G11G16G19G 6
  21752697.620     5565681.084 7   4336884.53822        20.500           1.688
  22066426.190   -10905536.100 6  -8497804.48322        19.000           1.625
  23085012.831    -7007515.651 6  -5460390.71721        16.000           0.813
  23179508.323    -5887431.421 5  -4431927.38921        11.500           0.531
  20688107.128      -79871.921 6    -62239.45222        19.000           1.969
  23386610.378    -5476424.476 5  -4073051.54821         9.000           0.344
 91  5 21 18 46 14.9990000  0  6G18G 2G11G16G19G 6
  21759404.917     5600919.881 7   4364343.25622        21.000           1.719
  22058138.839   -10949084.958 6  -8531738.61622        19.000           1.688
  23081360.714    -7026701.540 6  -5475340.74021        15.500           0.875
  23176735.597    -5902000.094 5  -4443279.61921        11.750           0.563
  20689037.565      -74987.545 6    -58433.45922        19.000           1.875
  23379165.151    -5515530.953 5  -4103524.05721         9.000           0.469
 91  5 21 18 46 29.9990000  0  6G18G 2G11G16G19G 6
  21766124.362     5636233.804 7   4391860.50922        21.000           1.594
  22049864.034   -10992569.397 6  -8565622.55022        18.750           1.750
  23077734.995    -7045754.294 6  -5490187.03621        15.250           0.844
  23173987.456    -5916438.954 5  -4454530.69221        11.500           0.531
  20689975.628      -70059.135 6    -54593.15122        19.250           1.875
  23371730.323    -5554623.764 5  -4133985.92821         9.750           0.500
 91  5 21 18 46 44.9990000  0  6G18G 2G11G16G19G 6
  21772858.605     5671627.621 7   4419440.02022        20.750           1.656
  22041602.980   -11035984.470 6  -8599452.42922        19.000           1.656
  23074137.925    -7064668.954 6  -5504925.71221        16.250           0.844
  23171267.058    -5930743.119 5  -4465676.81021        11.750           0.469
  20690922.878      -65081.910 6    -50714.80622        18.750           1.938
  23364293.034    -5593698.002 5  -4164433.31121         9.500           0.438
 91  5 21 18 46 59.9990000  0  6G18G 2G11G16G19G 6
  21779610.261     5707101.143 7   4447081.63922        21.000           1.594
  22033354.917   -11079329.611 6  -8633227.82622        19.000           1.688
  23070563.784    -7083444.847 6  -5519556.26021        15.750           0.906
  23168569.823    -5944912.184 5  -4476717.66121        11.750           0.594
  20691879.784      -60055.513 6    -46798.14522        18.750           1.875
  23356862.386    -5632753.324 5  -4194865.97421         9.500           0.438
 91  5 21 18 47 14.9990000  0  6G18G 2G11G16G19G 6
  21786375.136     5742647.754 7   4474780.20722        21.500           1.719
  22025117.948   -11122611.466 6  -8666953.90622        18.500           1.813
  23067017.612    -7102088.429 6  -5534083.72621        16.000           0.875
  23165899.464    -5958952.662 6  -4487658.30421        12.000           0.531
  20692844.034      -54986.408 6    -42848.21222        18.500           1.969
  23349434.886    -5671796.368 5  -4225289.05121         9.500           0.375
 91  5 21 18 47 29.9990000  0  6G18G 2G11G16G19G 6
  21793154.128     5778274.486 7   4502541.20922        21.250           1.656
  22016897.292   -11165822.677 6  -8700624.93522        19.000           1.844
  23063494.503    -7120592.536 6  -5548502.49221        16.000           0.844
  23163250.847    -5972857.627 5  -4498493.35221        11.500           0.500
  20693818.347      -49867.656 6    -38859.58722        18.000           1.906
  23342004.128    -5710820.134 5  -4255697.10321         9.500           0.531
 91  5 21 18 47 44.9990000  0  6G18G 2G11G16G19G 6
  21799947.440     5813978.315 7   4530362.29822        20.750           1.688
  22008686.300   -11208965.937 6  -8734243.02022        19.250           1.844
  23060000.073    -7138959.565 6  -5562814.44921        16.250           0.938
  23160629.198    -5986629.920 5  -4509225.03221        11.500           0.406
  20694800.401      -44701.944 6    -34834.36922        18.500           2.000
  23334583.815    -5749827.430 5  -4286092.33821         9.250           0.375
 91  5 21 18 47 59.9990000  0  6G18G 2G11G16G19G 6
  21806757.026     5849759.401 7   4558243.57922        21.000           1.656
  22000489.120   -11252040.717 6  -8767807.73622        19.250           1.625
  23056530.870    -7157188.859 6  -5577019.07921        16.250           0.813
  23158032.526    -6000268.982 5  -4519852.89121        11.500           0.500
  20695793.550      -39488.762 6    -30772.16522        18.500           1.969
  23327166.620    -5788817.715 5  -4316474.29921         9.500           0.531
 91  5 21 18 48 14.9990000  0  6G18G 2G11G16G19G 6
  21813580.425     5885617.036 7   4586184.50522        21.000           1.750
  21992307.347   -11295047.600 6  -8801319.55022        19.500           1.750
  23053088.440    -7175280.870 6  -5591116.74321        16.250           0.938
  23155465.886    -6013775.313 6  -4530377.31921        12.000           0.469
  20696793.019      -34228.696 6    -26673.42922        18.250           2.094
  23319747.058    -5827791.540 5  -4346843.44921         9.250           0.500
 91  5 21 18 48 29.9990000  0  6G18G 2G11G16G19G 6
  21820417.933     5921553.473 7   4614186.84122        20.500           1.719
  21984133.386   -11337983.853 6  -8834776.32422        19.250           1.781
  23049672.542    -7193233.025 6  -5605105.42321        16.500           1.063
  23152921.940    -6027146.347 5  -4540796.31521        11.500           0.375
  20697808.214      -28919.381 6    -22536.31222        17.750           2.125
  23312333.565    -5866746.540 5  -4377197.93721         9.000           0.344
 91  5 21 18 48 44.9990000  0  6G18G 2G11G16G19G 6
  21827271.081     5957563.901 7   4642246.82922        20.500           1.719
  21975976.105   -11380853.939 6  -8868181.53922        19.250           1.781
  23046280.573    -7211049.700 6  -5618988.53921        16.250           0.844
  23150398.355    -6040386.862 5  -4551113.62021        11.250           0.469
  20698823.409      -23565.431 6    -18364.42222        18.750           2.031
  23304922.550    -5905687.375 5  -4407541.37221         9.000           0.406
 91  5 21 18 48 59.9990000  0  6G18G 2G11G16G19G 6
  21834138.151     5993648.077 7   4670364.28022        20.750           1.688
  21967831.605   -11423657.626 6  -8901535.01722        19.250           1.625
  23042917.940    -7228730.656 6  -5632765.89821        16.750           0.906
  23147905.253    -6053496.543 5  -4561328.97121        11.500           0.469
  20699854.261      -18166.767 6    -14157.68822        18.000           2.031
  23297516.159    -5944614.093 5  -4437873.80821         9.250           0.438
 91  5 21 18 49 14.9990000  0  6G18G 2G11G16G19G 6
  21841022.198     6029810.054 7   4698542.35922        21.000           1.656
  21959698.237   -11466390.883 6  -8934833.61922        19.250           1.750
  23039579.003    -7246271.689 6  -5646434.22521        16.500           0.844
  23145436.698    -6066471.430 5  -4571439.29121        11.500           0.438
  20700887.105      -12719.113 6     -9912.77722        18.750           2.094
  23290111.315    -5983522.545 5  -4468192.01821         9.250           0.406
 91  5 21 18 49 29.9990000  0  6G18G 2G11G16G19G 6
  21847916.058     6066050.181 7   4726781.32722        20.500           1.719
  21951580.964   -11509053.084 6  -8968076.84822        19.500           1.688
  23036267.878    -7263672.146 6  -5659993.01421        16.250           0.875
  23142991.269    -6079311.028 5  -4581444.18221        11.250           0.438
  20701936.401       -7221.982 6     -5629.31222        18.000           2.000
  23282710.847    -6022412.249 5  -4498495.62321         9.250           0.469
 91  5 21 18 49 44.9990000  0  6G18G 2G11G16G19G 6
  21854826.495     6102368.298 6   4755081.07522        19.750           1.688
  21943477.862   -11551643.837 6  -9001264.40322        19.750           1.625
  23032984.722    -7280931.569 6  -5673441.91021        17.000           0.875
  23140577.144    -6092014.999 5  -4591343.39421        11.750           0.500
  20702989.347       -1675.150 6     -1307.11922        19.000           2.063
  23275313.933    -6061282.970 5  -4528784.42521         9.500           0.406
 91  5 21 18 49 59.9990000  0  6G18G 2G11G16G19G 6
  21861750.495     6138760.285 7   4783438.38422        20.000           1.625
  21935384.214   -11594167.082 6  -9034399.35822        19.500           1.719
  23029722.823    -7298053.910 6  -5686783.98721        16.500           0.844
  23138181.800    -6104587.395 6  -4601140.07921        12.250           0.500
  20704056.245        3917.229 6      3050.56222        18.500           2.063
  23267919.097    -6100138.812 5  -4559061.64421         9.750           0.375
 91  5 21 18 50 14.9990000  0  6G18G 2G11G16G19G 6
  21868691.753     6175228.585 7   4811855.15022        20.000           1.625
  21927305.144   -11636620.095 6  -9067479.58522        19.750           1.500
  23026493.183    -7315036.190 6  -5700016.93421        16.500           0.813
  23135817.769    -6117025.630 5  -4610832.23021        11.750           0.469
  20705127.597        9558.032 6      7445.97422        19.000           2.063
  23260531.058    -6138977.196 5  -4589325.26521         9.750           0.313
 91  5 21 18 50 29.9990000  0  6G18G 2G11G16G19G 6
  21875645.675     6211770.741 6   4840329.46522        19.750           1.688
  21919240.808   -11679005.164 7  -9100506.86722        20.000           1.688
  23023288.003    -7331880.612 6  -5713142.45021        16.500           0.938
  23133477.112    -6129331.956 5  -4620421.58621        11.750           0.563
  20706209.315       15244.861 6     11877.25622        18.500           2.125
  23253143.558    -6177800.408 5  -4619577.04321        10.250           0.469
 91  5 21 18 50 44.9990000  0  6G18G 2G11G16G19G 6
  21882614.761     6248392.672 6   4868865.95222        19.500           1.563
  21911189.042   -11721315.878 6  -9133476.21122        19.750           1.719
  23020110.534    -7348580.873 6  -5726155.63621        16.750           0.813
  23131159.190    -6141500.339 6  -4629903.44521        12.000           0.469
  20707301.495       20983.788 6     16349.12722        19.000           2.188
  23245759.206    -6216602.303 5  -4649812.22021        10.500           0.500
 91  5 21 18 50 59.9990000  0  6G18G 2G11G16G19G 6
  21889598.722     6285087.290 6   4897459.06321        19.750           1.438
  21903150.511   -11763558.708 6  -9166392.66622        19.750           1.719
  23016958.081    -7365143.478 6  -5739061.56021        16.750           0.844
  23128870.769    -6153537.521 5  -4639283.09221        11.750           0.531
  20708401.089       26768.072 6     20856.34722        18.750           2.125
  23238378.448    -6255389.574 5  -4680036.00521        10.250           0.500
 91  5 21 18 51 14.9990000  0  6G18G 2G11G16G19G 6
  21896596.292     6321863.479 6   4926115.74522        19.500           1.500
  21895126.370   -11805724.975 7  -9199249.45522        20.250           1.688
  23013835.472    -7381559.584 6  -5751853.32721        17.250           0.844
  23126602.964    -6165434.511 5  -4648553.48321        11.500           0.375
  20709513.636       32606.510 6     25405.76522        18.750           2.188
  23231003.597    -6294153.549 5  -4710241.64721        10.250           0.438
 91  5 21 18 51 29.9990000  0  6G18G 2G11G16G19G 6
  21903608.706     6358713.511 6   4954829.96321        19.500           1.469
  21887116.214   -11847821.934 7  -9232052.23422        20.250           1.719
  23010738.847    -7397836.390 6  -5764536.54321        17.000           0.813
  23124366.151    -6177199.079 5  -4657720.70721        11.750           0.344
  20710632.706       38491.763 6     29991.66022        19.000           2.000
  23223625.565    -6332901.657 5  -4740434.91221        10.250           0.500
 91  5 21 18 51 44.9990000  0  6G18G 2G11G16G19G 6
  21910634.940     6395639.726 6   4983603.54721        19.250           1.438
  21879120.487   -11889847.085 7  -9264799.06222        20.750           1.688
  23007667.097    -7413971.109 6  -5777109.04821        17.000           0.906
  23122151.925    -6188828.428 5  -4666782.54221        11.750           0.469
  20711762.909       44426.387 6     34616.02522        18.500           2.156
  23216254.933    -6371631.350 5  -4770613.82421        10.250           0.375
 91  5 21 18 51 59.9990000  0  6G18G 2G11G16G19G 6
  21917675.081     6432641.887 6   5012436.30922        19.000           1.531
  21871135.917   -11931799.962 7  -9297489.57622        20.500           1.688
  23004623.058    -7429963.425 6  -5789570.58821        17.000           0.875
  23119966.073    -6200322.322 5  -4675738.84221        11.750           0.344
  20712900.409       50410.620 6     39279.04922        18.750           2.156
  23208889.230    -6410342.424 5  -4800778.22821        10.250           0.375
 91  5 21 18 52 14.9990000  0  6G18G 2G11G16G19G 6
  21924732.870     6469716.507 6   5041325.53222        19.500           1.531
  21863164.636   -11973683.815 7  -9330126.30522        20.500           1.781
  23001606.909    -7445816.584 6  -5801923.69321        17.000           0.875
  23117805.183    -6211684.320 5  -4684592.36021        11.750           0.438
  20714048.292       56441.129 6     43978.13022        19.000           2.219
  23201524.206    -6449038.306 5  -4830930.81621        10.000           0.438
 91  5 21 18 52 29.9990000  0  6G18G 2G11G16G19G 6
  21931804.433     6506871.436 6   5070277.33421        19.750           1.406
  21855210.464   -12015490.852 7  -9362703.17322        20.500           1.688
  22998617.519    -7461522.599 6  -5814162.14321        17.000           0.906
  23115669.472    -6222906.549 5  -4693336.97321        11.750           0.594
  20715205.917       62525.769 6     48719.39622        18.500           2.125
  23194167.776    -6487711.239 5  -4861065.50321        10.250           0.406
 91  5 21 18 52 44.9990000  0  6G18G 2G11G16G19G 6
  21938888.058     6544101.898 6   5099287.99321        19.500           1.438
  21847268.237   -12057225.122 7  -9395223.33822        20.500           1.719
  22995655.925    -7477085.550 6  -5826289.11721        16.750           0.875
  23113559.487    -6233993.272 5  -4701976.00021        11.750           0.344
  20716373.245       68660.149 6     53499.41722        18.750           2.125
  23186810.683    -6526365.389 5  -4891185.55121        10.250           0.500
 91  5 21 18 52 59.9990000  0  6G18G 2G11G16G19G 6
  21945986.995     6581406.647 6   5128356.54121        19.750           1.438
  21839338.909   -12098887.652 7  -9427687.60522        20.500           1.781
  22992721.534    -7492506.441 6  -5838305.38821        17.000           0.813
  23111476.151    -6244945.701 6  -4710510.38521        12.000           0.531
  20717550.511       74843.127 6     58317.30322        18.750           2.125
  23179457.128    -6565002.039 5  -4921291.97121        10.000           0.344
 91  5 21 18 53 14.9990000  0  6G18G 2G11G16G19G 6
  21953099.980     6618786.271 7   5157483.42721        20.000           1.375
  21831425.987   -12140477.689 7  -9460095.38322        20.500           1.750
  22989814.972    -7507784.398 6  -5850210.28221        16.750           0.938
  23109415.175    -6255762.867 6  -4718939.37421        12.000           0.406
  20718735.300       81075.387 6     63173.59422        18.500           2.094
  23172107.948    -6603620.438 5  -4951384.16321        10.250           0.406
 91  5 21 18 53 29.9990000  0  6G18G 2G11G16G19G 6
  21960225.706     6656242.342 6   5186669.87921        19.250           1.375
  21823525.401   -12181993.404 7  -9492445.24422        20.500           1.844
  22986935.409    -7522917.639 6  -5862002.41721        17.250           0.781
  23107384.987    -6266443.167 6  -4727261.70321        12.250           0.469
  20719933.206       87358.767 6     68069.72022        18.000           2.125
  23164762.261    -6642218.905 5  -4981460.83221        10.750           0.438
 91  5 21 18 53 44.9990000  0  6G18G 2G11G16G19G 6
  21967367.644     6693772.254 6   5215913.87821        19.000           1.375
  21815639.253   -12223437.140 7  -9524739.02122        20.500           1.844
  22984083.534    -7537908.400 6  -5873683.52321        17.500           0.906
  23105379.128    -6276989.296 6  -4735479.49221        12.500           0.469
  20721137.315       93690.905 6     73003.84022        18.500           2.188
  23157423.581    -6680799.810 5  -5011523.80721        11.000           0.438
 91  5 21 18 53 59.9990000  0  6G18G 2G11G16G19G 6
  21974525.206     6731380.328 6   5245218.77821        19.250           1.375
  21807767.190   -12264804.171 7  -9556973.03122        20.500           1.906
  22981256.651    -7552751.961 6  -5885249.92821        16.750           0.906
  23103396.058    -6287396.725 6  -4743589.18521        12.500           0.469
  20722351.784      100076.343 6     77979.49022        18.750           2.188
  23150088.620    -6719358.655 5  -5041569.59621        11.250           0.406
 91  5 21 18 54 14.9990000  0  6G18G 2G11G16G19G 6
  21981696.253     6769065.263 6   5274583.57621        19.250           1.375
  21799907.620   -12306095.511 7  -9589148.05122        20.500           1.875
  22978462.511    -7567449.215 6  -5896702.32921        17.250           0.906
  23101441.558    -6297666.122 6  -4751591.34621        12.250           0.563
  20723578.105      106513.931 6     82995.77922        18.250           2.219
  23142754.011    -6757896.492 5  -5071599.02221        11.000           0.438
 91  5 21 18 54 29.9990000  0  6G18G 2G11G16G19G 6
  21988881.112     6806825.219 6   5304006.82821        19.000           1.375
  21792065.651   -12347312.364 7  -9621265.03222        20.250           2.000
  22975691.667    -7582001.461 6  -5908041.73321        17.000           0.938
  23099516.917    -6307799.161 6  -4759487.23421        12.250           0.438
  20724811.261      113002.403 6     88051.71322        18.500           2.125
  23135422.698    -6796414.852 5  -5101613.27121        11.000           0.344
 91  5 21 18 54 44.9990000  0  6G18G 2G11G16G19G 6
  21996081.878     6844659.390 6   5333487.90521        19.250           1.281
  21784237.183   -12388455.482 7  -9653324.56222        20.750           1.906
  22972949.019    -7596409.367 6  -5919268.66621        16.750           0.813
  23097612.503    -6317796.620 5  -4767277.47221        11.750           0.469
  20726056.003      119540.941 6     93146.66222        18.500           2.219
  23128097.026    -6834914.469 5  -5131612.88921        11.750           0.500
 91  5 21 18 54 59.9990000  0  6G18G 2G11G16G19G 6
  22003295.753     6882564.693 6   5363024.40821        19.500           1.281
  21776419.706   -12429527.826 7  -9685328.93922        20.750           1.938
  22970234.831    -7610675.816 6  -5930385.37621        17.000           0.906
  23095734.519    -6327661.733 5  -4774964.59021        11.750           0.438
  20727308.105      126126.474 6     98278.23322        18.250           2.188
  23120773.097    -6873398.473 5  -5161600.36221        11.000           0.531
 91  5 21 18 55 14.9990000  0  6G18G 2G11G16G19G 6
  22010521.769     6920543.103 6   5392617.88221        19.000           1.375
  21768618.456   -12470526.736 7  -9717276.09922        20.750           2.031
  22967546.925    -7624798.136 6  -5941389.76221        16.750           0.844
  23093882.511    -6337391.956 5  -4782546.60121        11.750           0.406
  20728571.737      132761.467 6    103448.34222        18.500           2.094
  23113454.737    -6911864.356 5  -5191573.72021        10.750           0.438
 91  5 21 18 55 29.9990000  0  6G18G 2G11G16G19G 6
  22017762.831     6958593.889 6   5422267.75221        19.000           1.344
  21760830.542   -12511452.714 7  -9749166.41922        20.750           1.969
  22964887.565    -7638776.875 6  -5952282.27721        17.000           0.906
  23092056.651    -6346987.990 5  -4790024.03921        11.750           0.438
  20729842.706      139445.307 6    108656.51722        18.500           2.125
  23106135.526    -6950312.740 5  -5221533.43521        11.000           0.563
 91  5 21 18 55 44.9990000  0  6G18G 2G11G16G19G 6
  22025018.323     6996720.421 6   5451976.65021        19.250           1.313
  21753057.347   -12552302.441 7  -9780997.32922        21.000           2.000
  22962256.081    -7652608.541 6  -5963060.18721        17.000           0.969
  23090254.159    -6356446.602 6  -4797394.38921        12.000           0.438
  20731124.198      146181.215 6    113905.26522        18.250           2.063
  23098826.440    -6988740.311 5  -5251476.93821        11.000           0.500
 91  5 21 18 55 59.9990000  0  6G18G 2G11G16G19G 6
  22032287.823     7034918.451 6   5481741.25221        19.250           1.375
  21745297.745   -12593079.340 7  -9812771.48722        20.750           2.063
  22959650.706    -7666296.631 6  -5973726.22021        17.000           0.813
  23088484.339    -6365771.338 6  -4804660.45121        12.500           0.406
  20732416.370      152965.899 6    119192.02222        18.250           2.063
  23091513.105    -7027150.773 5  -5281407.10821        10.750           0.469
 91  5 21 18 56 14.9990000  0  6G18G 2G11G16G19G 6
  22039570.901     7073188.407 6   5511561.90021        19.250           1.313
  21737550.526   -12633782.803 7  -9844488.42322        20.750           2.000
  22957073.011    -7679840.394 6  -5984279.78321        17.250           0.844
  23086734.245    -6374961.418 6  -4811821.56321        12.500           0.406
  20733717.612      159799.892 6    124517.20022        18.250           2.125
  23084211.245    -7065543.496 5  -5311323.46021        10.750           0.500
 91  5 21 18 56 29.9990000  0  6G18G 2G11G16G19G 6
  22046866.917     7111532.585 6   5541440.38921        18.500           1.344
  21729820.886   -12674410.510 7  -9876146.32622        21.000           2.219
  22954523.417    -7693237.328 6  -5994718.94421        17.250           0.875
  23085014.159    -6384014.822 6  -4818876.19321        12.500           0.375
  20735026.847      166685.510 6    129882.60922        18.500           2.031
  23076906.284    -7103916.139 5  -5341224.15921        11.000           0.563
 91  5 21 18 56 44.9990000  0  6G18G 2G11G16G19G 6
  22054177.823     7149947.903 6   5571374.30121        18.500           1.281
  21722103.519   -12714965.256 7  -9907747.37822        21.500           2.125
  22952004.440    -7706490.328 6  -6005045.93721        17.250           0.781
  23083316.464    -6392934.403 6  -4825826.54021        12.500           0.438
  20736346.401      173619.779 6    135285.92422        18.250           2.094
  23069606.987    -7142271.698 5  -5371111.54421        10.500           0.656
 91  5 21 18 56 59.9990000  0  6G18G 2G11G16G19G 6
  22061501.448     7188436.001 6   5601364.93021        18.500           1.313
  21714400.940   -12755445.076 7  -9939290.04722        21.500           2.063
  22949508.605    -7719597.214 6  -6015259.08121        17.500           0.813
  23081642.589    -6401718.430 6  -4832671.25321        12.500           0.563
  20737674.987      180604.643 6    140728.66622        18.250           2.031
  23062313.097    -7180608.234 5  -5400984.12421        10.750           0.500
 91  5 21 18 57 14.9990000  0  6G18G 2G11G16G19G 6
  22068840.073     7226994.693 6   5631410.57221        18.750           1.313
  21706710.597   -12795851.670 7  -9970775.66322        21.500           2.125
  22947041.987    -7732559.816 6  -6025359.79421        17.500           0.813
  23079993.761    -6410368.723 6  -4839411.76121        12.000           0.438
  20739015.378      187638.318 6    146209.44222        18.250           2.031
  23055017.644    -7218927.685 5  -5430843.36121        11.000           0.563
 91  5 21 18 57 29.9990000  0  6G18G 2G11G16G19G 6
  22076188.730     7265628.886 6   5661515.05121        18.000           1.313
  21699035.151   -12836180.039 7 -10002200.32122        21.500           2.094
  22944604.534    -7745373.238 6  -6035344.25921        17.500           0.844
  23078375.761    -6418880.212 6  -4846044.10821        12.000           0.438
  20740362.073      194725.582 6    151731.97422        18.000           2.031
  23047733.440    -7257225.149 5  -5460685.47521        11.000           0.438
 91  5 21 18 57 44.9990000  0  6G18G 2G11G16G19G 6
  22083557.370     7304334.759 6   5691675.38221        18.500           1.344
  21691376.253   -12876433.584 7 -10033566.67822        21.750           2.063
  22942192.683    -7758040.858 6  -6045215.11821        17.250           0.781
  23076785.870    -6427256.687 6  -4852571.24921        12.000           0.406
  20741721.808      201862.896 6    157293.50622        18.000           2.188
  23040449.003    -7295504.228 5  -5490513.27021        11.500           0.531
 91  5 21 18 57 59.9990000  0  6G18G 2G11G16G19G 6
  22090937.534     7343112.276 6   5721891.53321        18.500           1.281
  21683730.308   -12916611.994 7 -10064874.48622        21.750           2.219
  22939809.636    -7770562.096 6  -6054971.91121        17.500           0.813
  23075215.675    -6435497.898 5  -4858992.99921        11.750           0.500
  20743087.964      209050.722 6    162894.39822        18.250           2.063
  23033168.511    -7333764.538 5  -5520326.43421        11.250           0.563
 91  5 21 18 58 14.9990000  0  6G18G 2G11G16G19G 6
  22098327.581     7381958.660 6   5752161.34821        18.000           1.375
  21676097.151   -12956717.693 7 -10096125.64022        21.250           2.125
  22937455.042    -7782939.411 6  -6064616.54621        17.750           0.875
  23073669.995    -6443606.510 5  -4865311.41521        11.500           0.500
  20744466.386      216286.385 6    168532.57022        17.750           1.969
  23025890.159    -7372008.623 5  -5550126.96321        11.500           0.563
 91  5 21 18 58 29.9990000  0  6G18G 2G11G16G19G 6
  22105732.425     7420877.226 6   5782487.40821        17.750           1.250
  21668481.440   -12996747.221 7 -10127317.43522        21.500           2.156
  22935127.534    -7795169.483 6  -6074146.46021        17.500           0.906
  23072156.026    -6451578.823 6  -4871523.62221        12.000           0.500
  20745849.612      223573.310 6    174210.68122        18.250           2.031
  23018616.956    -7410233.296 5  -5579912.35321        11.250           0.625
 91  5 21 18 58 44.9990000  0  6G18G 2G11G16G19G 6
  22113151.339     7459869.018 6   5812870.53521        17.750           1.375
  21660876.651   -13036698.800 7 -10158448.49222        21.250           2.125
  22932829.808    -7807250.622 6  -6083560.31621        17.750           0.875
  23070659.870    -6459413.880 5  -4877628.89321        11.500           0.563
  20747249.628      230913.006 6    179929.91322        18.000           2.000
  23011345.792    -7448436.946 5  -5609681.36921        11.000           0.563
 91  5 21 18 58 59.9990000  0  6G18G 2G11G16G19G 6
  22120586.417     7498928.111 6   5843306.09221        18.000           1.313
  21653287.808   -13076578.270 7 -10189523.36422        21.000           2.156
  22930557.261    -7819188.390 6  -6092862.45321        17.500           0.938
  23069197.284    -6467117.327 6  -4883631.60221        12.000           0.344
  20748654.901      238299.769 6    185685.82222        18.000           1.906
  23004082.386    -7486625.321 5  -5639438.48721        11.500           0.563
 91  5 21 18 59 14.9990000  0  6G18G 2G11G16G19G 6
  22128032.886     7538062.339 6   5873800.20421        18.250           1.250
  21645716.144   -13116377.608 7 -10220535.79522        21.500           2.031
  22928314.230    -7830974.906 6  -6102046.73621        17.750           0.781
  23067758.120    -6474681.284 6  -4889525.61321        12.000           0.500
  20750071.675      245741.532 6    191484.59222        17.750           1.969
  22996813.636    -7524790.658 5  -5669177.63521        11.000           0.531
 91  5 21 18 59 29.9990000  0  6G18G 2G11G16G19G 6
  22135491.519     7577267.104 6   5904349.27921        17.750           1.250
  21638157.073   -13156101.237 7 -10251489.22822        21.500           2.125
  22926098.964    -7842614.489 6  -6111116.52321        17.500           0.813
  23066344.550    -6482110.295 6  -4895314.48321        12.250           0.500
  20751496.698      253233.886 6    197322.77822        18.000           2.031
  22989557.034    -7562937.386 5  -5698902.31021        11.250           0.563
 91  5 21 18 59 44.9990000  0  6G18G 2G11G16G19G 6
  22142968.651     7616544.637 6   5934955.05621        17.750           1.313
  21630613.339   -13195746.421 7 -10282381.53522        21.250           2.188
  22923911.808    -7854104.385 6  -6120069.67321        17.500           0.906
  23064955.620    -6489401.795 6  -4900996.19321        12.000           0.500
  20752933.589      260779.554 6    203202.51522        18.000           2.000
  22982300.683    -7601062.864 5  -5728610.40021        11.750           0.531
 91  5 21 18 59 59.9990000  0  6G18G 2G11G16G19G 6
  22150453.651     7655888.919 6   5965612.85021        17.750           1.219
  21623082.284   -13235319.089 7 -10313217.32922        21.250           2.125
  22921754.136    -7865450.423 6  -6128910.72121        17.500           0.938
  23063596.081    -6496561.784 6  -4906575.43321        12.250           0.438
  20754378.362      268372.441 6    209119.03922        17.750           1.875
  22975051.276    -7639172.993 5  -5758306.54921        11.750           0.500
 91  5 21 19  0 14.9990000  0  6G18G 2G11G16G19G 6
  22157956.003     7695302.829 6   5996324.89021        18.500           1.125
  21615566.800   -13274815.963 7 -10343994.07022        21.500           2.188
  22919621.925    -7876649.412 6  -6137637.19621        17.250           0.813
  23062256.433    -6503587.249 6  -4912049.84821        12.250           0.438
  20755831.495      276015.710 6    215074.82622        18.000           2.094
  22967804.144    -7677264.820 5  -5787988.42321        11.750           0.594
 91  5 21 19  0 29.9990000  0  6G18G 2G11G16G19G 6
  22165470.456     7734789.726 6   6027093.80521        18.000           1.250
  21608065.175   -13314233.227 7 -10374708.77422        21.750           2.188
  22917519.753    -7887697.542 6  -6146246.10621        17.500           0.844
  23060948.019    -6510474.255 6  -4917416.37921        12.000           0.469
  20757296.894      283713.000 6    221072.70822        18.000           2.000
  22960556.519    -7715334.529 5  -5817653.06821        11.750           0.531
 91  5 21 19  0 44.9990000  0  6G18G 2G11G16G19G 6
  22172997.878     7774344.457 6   6057915.57421        18.250           1.188
  21600580.480   -13353575.763 7 -10405365.25522        21.750           2.094
  22915444.370    -7898599.560 6  -6154741.17421        17.500           0.875
  23059662.612    -6517227.937 5  -4922679.01821        11.750           0.438
  20758770.433      291459.460 6    227108.90722        17.750           2.000
  22953317.464    -7753387.151 5  -5847304.39621        11.750           0.531
 91  5 21 19  0 59.9990000  0  6G18G 2G11G16G19G 6
  22180536.386     7813968.189 6   6088791.10321        18.000           1.188
  21593107.440   -13392842.085 7 -10435962.34822        21.500           2.125
  22913398.753    -7909354.006 6  -6163121.25121        17.500           1.000
  23058401.589    -6523847.097 5  -4927836.83121        11.750           0.563
  20760259.151      299256.661 6    233184.63922        17.000           2.156
  22946076.417    -7791421.164 5  -5876941.23021        11.750           0.531
 91  5 21 19  1 14.9990000  0  6G18G 2G11G16G19G 6
  22188090.230     7853662.296 6   6119721.47721        17.750           1.125
  21585648.550   -13432030.659 7 -10466498.85622        21.750           2.125
  22911380.214    -7919959.421 6  -6171385.18921        18.000           0.938
  23057169.276    -6530330.614 5  -4932888.95321        11.500           0.531
  20761747.597      307105.792 6    239300.84122        17.750           1.938
  22938843.308    -7829435.312 5  -5906562.59721        11.750           0.500
 91  5 21 19  1 29.9990000  0  6G18G 2G11G16G19G 6
  22195657.706     7893426.542 6   6150706.50321        17.750           1.156
  21578206.558   -13471141.101 7 -10496974.48522        22.000           2.094
  22909390.831    -7930415.407 6  -6179532.71121        17.750           0.875
  23055961.550    -6536677.935 5  -4937834.94921        11.500           0.469
  20763254.206      315007.195 6    245457.77222        17.000           2.031
  22931617.284    -7867429.297 6  -5936168.22121        12.250           0.531
 91  5 21 19  1 44.9990000  0  6G18G 2G11G16G19G 6
  22203237.190     7933256.977 6   6181743.09921        18.000           1.219
  21570777.534   -13510177.107 7 -10527392.11522        21.750           2.063
  22907429.136    -7940725.674 6  -6187566.66421        17.750           0.969
  23054774.808    -6542893.032 5  -4942677.89521        11.250           0.531
  20764764.917      322957.113 6    251652.50322        17.500           1.969
  22924386.136    -7905406.962 6  -5965761.14721        12.000           0.531
 91  5 21 19  1 59.9990000  0  6G18G 2G11G16G19G 6
  22210829.448     7973152.995 6   6212830.80121        17.750           1.094
  21563365.198   -13549139.037 7 -10557752.02422        22.000           2.125
  22905494.730    -7950890.491 6  -6195487.29321        18.000           0.938
  23053620.597    -6548976.170 5  -4947418.03221        11.500           0.563
  20766287.964      330955.095 6    257884.69422        17.000           1.906
  22917162.144    -7943368.652 5  -5995341.63421        11.750           0.500
 91  5 21 19  2 14.9990000  0  6G18G 2G11G16G19G 6
  22218435.948     8013119.083 6   6243973.10421        17.750           1.125
  21555963.761   -13588022.538 7 -10588050.81422        21.750           2.094
  22903587.917    -7960905.333 6  -6203291.05721        17.750           0.813
  23052488.636    -6554923.040 5  -4952051.98521        11.500           0.531
  20767818.917      339005.782 6    264157.94622        17.750           1.906
  22909945.612    -7981309.940 5  -6024906.22521        11.750           0.531
 91  5 21 19  2 29.9990000  0  6G18G 2G11G16G19G 6
  22226055.112     8053153.571 6   6275168.70721        17.750           1.031
  21548580.878   -13626828.677 7 -10618289.32822        21.750           2.063
  22901710.870    -7970771.376 6  -6210978.87421        17.750           0.969
  23051380.526    -6560735.206 5  -4956580.97121        11.500           0.469
  20769362.253      347108.116 6    270471.44422        17.250           1.906
  22902724.753    -8019232.066 5  -6054455.86021        11.750           0.500
 91  5 21 19  2 44.9990000  0  6G18G 2G11G16G19G 6
  22233685.769     8093255.430 6   6306416.80521        17.750           1.063
  21541210.417   -13665558.019 7 -10648468.00422        21.750           2.094
  22899862.628    -7980489.208 6  -6218551.20221        17.750           0.813
  23050301.198    -6566413.149 5  -4961005.36321        11.500           0.469
  20770912.855      355261.009 6    276824.34022        18.000           1.781
  22895514.136    -8057135.864 5  -6083991.24321        11.750           0.563
 91  5 21 19  2 59.9990000  0  6G18G 2G11G16G19G 6
  22241329.917     8133424.402 6   6337717.19321        17.750           1.094
  21533856.456   -13704210.531 7 -10678586.80522        21.750           2.094
  22898040.706    -7990058.793 6  -6226008.01621        17.750           0.813
  23049244.597    -6571957.153 5  -4965325.38821        11.500           0.469
  20772476.105      363464.590 6    283216.73522        17.750           1.906
  22888303.683    -8095021.279 5  -6113512.28021        11.750           0.531
 91  5 21 19  3 14.9990000  0  6G18G 2G11G16G19G 6
  22248986.472     8173666.029 6   6369074.19621        17.000           1.125
  21526514.503   -13742780.614 7 -10708641.37622        21.750           2.188
  22896249.980    -7999474.552 6  -6233344.96621        17.750           0.875
  23048217.097    -6577361.780 5  -4969536.81321        11.500           0.531
  20774043.792      371724.309 6    289652.87122        18.000           1.969
  22881100.433    -8132882.796 6  -6143014.70921        12.000           0.500
 91  5 21 19  3 29.9990000  0  6G18G 2G11G16G19G 6
  22256656.659     8213973.037 6   6400482.13721        17.500           1.188
  21519192.253   -13781275.171 7 -10738637.09722        21.750           2.156
  22894483.401    -8008743.266 6  -6240567.33021        17.250           0.781
  23047215.730    -6582634.036 5  -4973645.10121        11.500           0.438
  20775626.886      380033.391 6    296127.47622        18.250           1.875
  22873896.440    -8170727.522 6  -6172504.06421        12.500           0.531
 91  5 21 19  3 44.9990000  0  6G18G 2G11G16G19G 6
  22264341.628     8254348.975 6   6431943.80321        17.250           1.063
  21511879.151   -13819690.044 7 -10768570.72622        21.500           2.063
  22892750.800    -8017860.849 6  -6247671.92621        17.750           1.031
  23046234.573    -6587769.977 5  -4977647.15521        11.750           0.469
  20777217.495      388395.761 6    302643.60122        18.250           1.906
  22866701.581    -8208551.295 6  -6201977.06721        12.500           0.500
 91  5 21 19  3 59.9990000  0  6G18G 2G11G16G19G 6
  22272036.190     8294791.757 6   6463457.55621        17.250           1.031
  21504584.503   -13858027.217 7 -10798443.80822        22.000           2.063
  22891043.269    -8026829.364 6  -6254660.37421        17.500           0.875
  23045288.534    -6592771.740 6  -4981544.64321        12.500           0.438
  20778818.269      396809.535 6    309199.78022        18.500           2.000
  22859507.183    -8246356.110 6  -6231435.30221        12.500           0.563
 91  5 21 19  4 14.9990000  0  6G18G 2G11G16G19G 6
  22279745.675     8335306.162 6   6495027.10621        17.250           1.125
  21497305.487   -13896281.556 7 -10828252.34522        21.750           2.156
  22889368.519    -8035643.711 6  -6261528.68421        17.750           0.969
  23044358.456    -6597634.147 5  -4985333.56621        11.750           0.469
  20780430.300      405279.709 6    315799.90922        18.250           1.969
  22852314.667    -8284136.993 6  -6260874.89621        12.250           0.563
 91  5 21 19  4 29.9990000  0  6G18G 2G11G16G19G 6
  22287468.519     8375886.616 6   6526648.12721        17.000           1.094
  21490040.269   -13934458.467 7 -10858000.54722        21.250           2.156
  22887717.011    -8044309.213 6  -6268281.01221        17.500           0.875
  23043461.667    -6602363.017 5  -4989018.43321        11.750           0.500
  20782051.878      413800.802 6    322439.71622        18.250           1.938
  22845130.964    -8321899.510 6  -6290300.18121        12.000           0.500
 91  5 21 19  4 44.9990000  0  6G18G 2G11G16G19G 6
  22295203.503     8416534.938 6   6558322.02721        17.000           1.125
  21482790.058   -13972555.908 7 -10887686.82822        22.000           2.188
  22886096.534    -8052823.693 6  -6274915.66321        17.250           0.938
  23042585.097    -6606956.357 5  -4992597.67121        11.500           0.469
  20783684.159      422374.823 6    329120.76422        18.250           1.969
  22837949.831    -8359641.530 6  -6319709.49121        12.000           0.594
 91  5 21 19  4 59.9990000  0  6G18G 2G11G16G19G 6
  22302950.605     8457245.720 6   6590044.59321        17.000           1.125
  21475553.940   -14010578.808 7 -10917315.02022        21.750           2.188
  22884504.714    -8061192.279 6  -6281436.63121        17.250           1.031
  23041738.378    -6611419.192 5  -4996075.23021        11.500           0.500
  20785323.995      430996.767 6    335839.15522        18.000           1.969
  22830769.261    -8397368.323 5  -6349106.94321        11.750           0.531
 91  5 21 19  5 14.9990000  0  6G18G 2G11G16G19G 6
  22310707.230     8498021.853 6   6621818.09721        16.750           1.156
  21468333.659   -14048524.005 7 -10946882.66422        22.000           2.219
  22882940.011    -8069411.747 6  -6287841.40521        17.500           0.875
  23040914.245    -6615748.560 5  -4999448.80021        11.500           0.438
  20786974.120      439669.818 6    342597.36222        18.250           1.906
  22823590.964    -8435076.620 5  -6378489.97321        11.500           0.500
 91  5 21 19  5 29.9990000  0  6G18G 2G11G16G19G 6
  22318479.683     8538863.702 6   6653642.80121        16.750           1.031
  21461129.175   -14086390.768 7 -10976389.19322        22.000           2.250
  22881404.948    -8077481.442 6  -6294129.46921        17.250           0.906
  23040116.698    -6619944.046 5  -5002718.03021        11.500           0.406
  20788634.948      448394.443 6    349395.76222        18.500           1.969
  22816419.800    -8472765.874 6  -6407858.18121        12.000           0.469
 91  5 21 19  5 44.9990000  0  6G18G 2G11G16G19G 6
  22326266.901     8579770.171 6   6685517.85621        16.500           1.094
  21453937.487   -14124179.974 7                        22.250
  22879897.495    -8085402.029 6  -6300301.34321        17.500           0.938
  23039340.628    -6624006.578 5  -5005883.66321        11.000           0.531
  20790305.089      457170.032 6    356233.87022        18.250           1.938
  22809250.612    -8510436.824 6                        12.000
 91  5 21 19  5 59.9990000  0  6G18G 2G11G16G19G 6
  22334065.058     8620744.513 6   6717445.79321        17.000           1.094
  21446760.706   -14161888.123 7                        22.000
  22878418.378    -8093170.020 6  -6306354.31221        17.500           0.906
  23038594.644    -6627932.785 5  -5008943.07021        11.750           0.531
  20791986.675      465999.952 6    363114.31822        17.250           2.000
  22802088.261    -8548086.206 6                        12.000
 91  5 21 19  6 14.9990000  0  6G18G 2G11G16G19G 6
  22341872.230     8661786.306 6   6749426.29721        16.750           1.063
  21439600.472   -14199515.216 7                        21.750
  22876971.222    -8100785.649 6  -6312288.55821        17.500           0.938
  23037874.300    -6631722.848 5  -5011896.39821        11.750           0.438
  20793676.050      474884.102 6    370037.01922        18.500           1.938
  22794925.151    -8585714.153 6                        12.000
 91  5 21 19  6 29.9990000  0  6G18G 2G11G16G19G 6
  22349696.050     8702893.168 6   6781457.49621        16.250           1.031
  21432455.573   -14237063.411 7                        22.000
  22875549.722    -8108251.050 6  -6318105.74721        17.250           0.906
  23037179.933    -6635379.190 5  -5014745.52521        11.750           0.438
  20795375.886      483820.203 6    377000.20222        18.750           2.000
  22787770.214    -8623322.789 6                        12.000
 91  5 21 19  6 44.9990000  0  6G18G 2G11G16G19G 6
  22357529.753     8744062.727 6   6813537.55121        16.250           1.125
  21425326.331   -14274534.594 7 -11122994.56322        22.000           2.313
  22874157.487    -8115568.204 6  -6323807.42321        17.250           0.969
  23036507.823    -6638904.157 5  -5017492.28421        11.750           0.500
  20797085.730      492806.262 6    384002.31122        18.500           1.938
  22780616.659    -8660914.235 6  -6554466.55921        12.000           0.719
 91  5 21 19  6 59.9990000  0  6G18G 2G11G16G19G 6
  22365375.167     8785298.214 6   6845668.97921        16.000           0.969
  21418210.972   -14311925.189 7 -11152130.05622        22.000           2.406
  22872793.167    -8122733.473 6  -6329390.73621        17.500           0.875
  23035866.456    -6642293.837 6  -5020133.62921        12.250           0.500
  20798806.292      501845.822 6    391046.11322        18.500           1.906
  22773464.761    -8698485.016 6  -6583742.45121        12.000           0.656
 91  5 21 19  7 14.9990000  0  6G18G 2G11G16G19G 6
  22373235.667     8826598.253 6   6877850.70021        16.000           0.938
  21411109.605   -14349236.376 7 -11181203.67222        22.000           2.438
  22871459.675    -8129748.201 6  -6334856.74521        17.500           0.906
  23035244.565    -6645549.791 6  -5022670.78021        12.250           0.500
  20800537.058      510937.644 6    398130.63822        18.750           1.875
  22766324.550    -8736036.458 6  -6613003.26121        12.000           0.563
 91  5 21 19  7 29.9990000  0  6G18G 2G11G16G19G 6
  22381107.245     8867961.374 6   6910081.57421        16.000           1.125
  21404024.706   -14386469.456 7 -11210216.41722        22.000           2.375
  22870152.308    -8136613.428 6  -6340206.26121        17.500           0.969
  23034648.815    -6648673.207 5  -5025104.64521        11.750           0.531
  20802275.776      520080.619 6    405255.02022        18.500           1.938
  22759184.933    -8773569.629 6  -6642249.84121        12.250           0.688
 91  5 21 19  7 44.9990000  0  6G18G 2G11G16G19G 6
  22388991.651     8909393.032 6   6942365.86221        15.750           0.969
  21396954.433   -14423618.791 7 -11239163.91322        22.000           2.375
  22868875.909    -8143323.564 6  -6345434.92521        17.750           0.938
  23034080.472    -6651658.968 6  -5027431.23921        12.000           0.375
  20804027.886      529280.202 6    412423.51422        18.750           1.969
  22752043.925    -8811079.004 6  -6671477.86321        12.000           0.594
 91  5 21 19  7 59.9990000  0  6G18G 2G11G16G19G 6
  22396887.050     8950885.947 6   6974697.87621        15.750           0.875
  21389901.214   -14460691.165 7 -11268051.43922        21.750           2.469
  22867625.769    -8149885.652 6  -6350548.22721        17.500           0.906
  23033538.644    -6654514.160 5  -5029656.10321        11.500           0.438
  20805786.823      538529.345 6    419630.63122        19.000           1.844
  22744907.417    -8848571.630 5  -6700692.84621        11.750           0.688
 91  5 21 19  8 14.9990000  0  6G18G 2G11G16G19G 6
  22404797.409     8992444.530 6   7007081.06521        15.750           0.906
  21382862.300   -14497682.071 7 -11296875.48322        22.250           2.375
  22866409.659    -8156294.974 6  -6355542.49121        17.750           0.938
  23033019.425    -6657233.989 5  -5031775.48521        11.500           0.563
  20807559.511      547832.751 6    426880.02722        18.750           1.906
  22737777.190    -8886042.956 5  -6729891.23821        11.750           0.531
 91  5 21 19  8 29.9990000  0  6G18G 2G11G16G19G 6
  22412717.128     9034067.146 6   7039514.14221        15.750           1.000
  21375838.050   -14534592.729 7 -11325637.00023        22.000           2.531
  22865214.972    -8162552.658 6  -6360418.60121        17.250           0.969
  23032527.378    -6659820.187 5  -5033790.73321        11.500           0.469
  20809337.253      557189.180 6    434170.73722        19.000           1.938
  22730652.542    -8923494.183 5  -6759073.96421        11.750           0.625
 91  5 21 19  8 44.9990000  0  6G18G 2G11G16G19G 6
  22420649.151     9075752.728 6   7071996.27621        15.500           1.031
  21368829.394   -14571423.589 7 -11354336.33722        22.000           2.469
  22864053.362    -8168659.444 6  -6365177.11521        17.750           0.969
  23032062.542    -6662273.281 5  -5035702.27621        11.500           0.469
  20811128.980      566597.965 6    441502.24822        18.750           1.813
  22723526.011    -8960925.970 6  -6788241.54421        12.000           0.688
 91  5 21 19  8 59.9990000  0  6G18G 2G11G16G19G 6
  22428591.753     9117501.724 6   7104527.83721        15.250           0.875
  21361833.909   -14608174.288 7 -11382973.19823        22.000           2.500
  22862921.323    -8174614.827 6  -6369817.66221        17.750           0.906
  23031617.612    -6664593.059 5  -5037509.92621        11.250           0.531
  20812929.112      576059.481 6    448874.84822        19.000           1.969
  22716410.198    -8998338.099 5  -6817393.80421        11.750           0.531
 91  5 21 19  9 14.9990000  0  6G18G 2G11G16G19G 6
  22436549.839     9159313.783 6   7137108.54221        15.250           0.875
  21354857.761   -14644844.657 7 -11411547.47322        22.000           2.469
  22861816.894    -8180418.618 6  -6374340.07821        17.750           0.969
  23031202.073    -6666779.666 5  -5039213.81121        11.250           0.531
  20814740.714      585573.892 6    456288.66422        18.750           1.906
  22709290.292    -9035730.296 6  -6846530.54321        12.000           0.656
 91  5 21 19  9 29.9990000  0  6G18G 2G11G16G19G 6
  22444520.151     9201187.714 6   7169737.44821        15.500           0.750
  21347893.995   -14681435.749 7 -11440059.98222        22.000           2.469
  22860739.675    -8186071.961 6  -6378745.26821        17.500           0.844
  23030814.339    -6668834.099 6  -5040814.70121        12.000           0.406
  20816560.167      595140.119 6    463742.85322        18.750           2.000
  22702183.690    -9073103.748 6  -6875652.66721        12.500           0.594
 91  5 21 19  9 44.9990000  0  6G18G 2G11G16G19G 6
  22452502.425     9243126.486 6   7202416.87221        16.000           0.875
  21340947.987   -14717943.978 7 -11468507.90923        22.000           2.500
  22859695.112    -8191571.468 6  -6383030.58221        17.750           0.938
  23030446.159    -6670753.207 5  -5042310.15821        11.250           0.438
  20818391.120      604761.594 6    471240.09322        18.250           1.875
  22695071.440    -9110455.099 6  -6904757.57321        12.250           0.688
 91  5 21 19  9 59.9990000  0  6G18G 2G11G16G19G 6
  22460493.315     9285122.044 6   7235140.55221        15.500           0.906
  21334012.761   -14754377.535 7 -11496897.65823        22.000           2.594
  22858676.190    -8196925.326 6  -6387202.40521        17.500           0.906
  23030105.331    -6672545.375 5  -5043706.68321        11.500           0.438
  20820231.128      614430.096 6    478773.97622        18.500           2.063
  22687971.315    -9147792.573 6  -6933851.67021        12.750           0.594
 91  5 21 19 10 14.9990000  0  6G18G 2G11G16G19G 6
  22468497.511     9327180.082 6   7267912.91521        15.500           0.875
  21327097.019   -14790730.198 7 -11525224.37323        22.500           2.500
  22857684.597    -8202127.233 6  -6391255.82621        17.250           0.875
  23029794.722    -6674204.409 5  -5044999.47221        11.750           0.469
  20822081.394      624151.955 6    486349.43422        18.250           2.156
  22680865.542    -9185109.857 6  -6962930.01321        12.500           0.625
 91  5 21 19 10 29.9990000  0  6G18G 2G11G16G19G 6
  22476510.917     9369301.056 6   7300734.33221        15.500           0.750
  21320193.253   -14827001.334 7 -11553487.55922        22.250           2.406
  22856725.597    -8207176.419 6  -6395190.24021        17.750           0.906
  23029499.706    -6675729.648 5  -5046188.00821        11.750           0.500
  20823940.175      633927.676 6    493966.86622        18.500           1.969
  22673768.433    -9222406.295 5  -6991992.10621        11.500           0.500
 91  5 21 19 10 44.9990000  0  6G18G 2G11G16G19G 6
  22484537.292     9411481.506 6   7333602.07621        15.500           0.844
  21313306.292   -14863193.958 7 -11581689.56922        22.500           2.438
  22855792.894    -8212076.108 6  -6399008.17321        17.500           0.906
  23029237.120    -6677124.544 6  -5047274.97921        12.000           0.469
  20825810.784      643754.080 6    501623.78822        18.250           2.125
  22666677.042    -9259684.914 6  -7021040.18321        12.500           0.688
 91  5 21 19 10 59.9990000  0  6G18G 2G11G16G19G 6
  22492574.823     9453722.795 6   7366517.23321        15.000           0.875
  21306435.230   -14899306.107 7 -11609828.87422        22.750           2.438
  22854887.378    -8216824.363 6  -6402708.09321        17.250           0.938
  23028995.503    -6678387.462 5  -5048259.10721        11.750           0.500
  20827689.487      653633.300 6    509321.86922        19.000           2.031
  22659586.745    -9296944.291 6  -7050073.42521        13.000           0.781
 91  5 21 19 11 14.9990000  0  6G18G 2G11G16G19G 6
  22500627.605     9496025.575 6   7399480.30421        15.000           0.906
  21299579.862   -14935337.387 7 -11637905.15722        23.250           2.406
  22854012.448    -8221420.846 6  -6406289.75421        17.250           0.969
  23028782.394    -6679518.034 6  -5049140.11421        12.000           0.469
  20829581.214      663565.513 6    517061.23922        18.500           2.063
  22652494.394    -9334183.819 6  -7079091.19221        12.500           0.719
 91  5 21 19 11 29.9990000  0  6G18G 2G11G16G19G 6
  22508689.245     9538391.502 6   7432492.58021        15.250           0.906
  21292738.323   -14971285.850 7 -11665916.91322        23.000           2.438
  22853168.862    -8225863.529 6  -6409751.57321        17.500           0.938
  23028593.206    -6680514.339 5  -5049916.48721        11.750           0.469
  20831479.925      673552.809 6    524843.53622        18.750           2.000
  22645412.331    -9371401.501 6  -7108091.93621        12.250           0.688
 91  5 21 19 11 44.9990000  0  6G18G 2G11G16G19G 6
  22516761.565     9580814.655 6   7465549.44121        15.250           0.875
  21285910.573   -15007156.694 7 -11693868.18622        22.750           2.438
  22852351.714    -8230157.876 6  -6413097.80221        17.500           0.938
  23028422.472    -6681382.134 5  -5050592.74621        11.250           0.531
  20833391.097      683589.669 6    532664.45222        18.500           2.063
  22638334.933    -9408602.830 6  -7137079.95221        12.500           0.781
 91  5 21 19 11 59.9990000  0  6G18G 2G11G16G19G 6
  22524848.151     9623300.282 6   7498654.98921        15.250           0.844
  21279101.565   -15042944.485 7 -11721754.74622        23.250           2.406
  22851564.245    -8234298.389 6  -6416324.16821        17.250           1.000
  23028282.886    -6682116.272 5  -5051164.84121        11.500           0.469
  20835310.456      693681.622 6    540528.29922        18.750           2.063
  22631260.706    -9445782.361 6  -7166050.95321        12.500           0.750
 91  5 21 19 12 14.9990000  0  6G18G 2G11G16G19G 6
  22532942.315     9665846.099 6   7531807.43221        14.750           0.875
  21272305.940   -15078651.169 7 -11749578.10222        23.250           2.438
  22850803.761    -8238287.155 6  -6419432.29421        17.750           1.031
  23028172.019    -6682718.623 5  -5051634.24421        11.500           0.469
  20837242.073      703826.511 6    548433.39522        18.500           2.125
  22624190.542    -9482942.109 6  -7195006.55921        13.000           0.750
 91  5 21 19 12 29.9990000  0  6G18G 2G11G16G19G 6
  22541050.355     9708451.903 6   7565006.61421        15.500           0.906
  21265525.792   -15114276.804 7 -11777338.30722        23.000           2.469
  22850073.714    -8242124.109 6  -6422422.11221        17.500           0.906
  23028079.495    -6683188.939 5  -5052000.76821        10.750           0.500
  20839184.823      714024.475 6    556379.84622        18.000           2.094
  22617122.784    -9520082.114 6  -7223946.77121        13.000           0.688
 91  5 21 19 12 44.9990000  0  6G18G 2G11G16G19G 6
  22549167.823     9751116.833 6   7598251.88421        15.000           0.875
  21258762.761   -15149822.218 7 -11805036.00322        23.250           2.375
  22849372.355    -8245810.128 6  -6425294.32921        17.500           0.969
  23028018.230    -6683528.567 5  -5052265.45421        11.000           0.438
  20841134.245      724274.791 6    564367.09722        18.000           1.969
  22610058.355    -9557203.209 6  -7252872.24321        12.750           0.656
 91  5 21 19 12 59.9990000  0  6G18G 2G11G16G19G 6
  22557299.769     9793840.703 6   7631543.06421        15.250           0.875
  21252014.112   -15185287.081 7 -11832670.93022        22.750           2.344
  22848699.190    -8249344.815 6  -6428048.62121        17.500           0.813
  23027978.972    -6683737.440 5                        11.000
  20843094.214      734577.732 6    572395.35022        18.000           2.156
  22602998.097    -9594305.087 6  -7281782.74321        13.250           0.719
 91  5 21 19 13 14.9990000  0  6G18G 2G11G16G19G 6
  22565441.573     9836628.445 6   7664884.02021        14.750           0.875
  21245281.401   -15220666.261 7 -11860239.09822        23.250           2.406
  22848057.300    -8252723.071 6  -6430681.01821        17.500           1.000
  23027961.136    -6683810.601 5                        11.250
  20845066.222      744938.393 6    580468.57722        18.000           2.000
  22595939.339    -9631382.777 6  -7310674.40321        13.000           0.656
 91  5 21 19 13 29.9990000  0  6G18G 2G11G16G19G 6
  22573593.800     9879471.452 6   7698268.04221        15.000           0.844
  21238563.878   -15255967.810 7 -11887746.77222        23.250           2.406
  22847441.870    -8255953.074 6  -6433197.90421        17.750           0.969
  23027976.284    -6683756.512 5                        11.250
  20847050.714      755348.529 6    588580.36222        16.750           2.125
  22588886.534    -9668444.327 6  -7339553.48221        13.000           0.656
 91  5 21 19 13 44.9990000  0  6G18G 2G11G16G19G 6
  22581757.847     9922374.838 6   7731699.10821        14.500           0.875
  21231862.933   -15291186.487 7 -11915189.87422        23.500           2.438
  22846857.519    -8259029.719 6  -6435595.28621        17.750           0.969
  23028011.222    -6683569.660 5                        11.000
  20849037.472      765813.432 6    596734.81522        17.750           2.094
  22581838.855    -9705484.597 6  -7368415.98221        13.250           0.688
 91  5 21 19 13 59.9990000  0  6G18G 2G11G16G19G 6
  22589934.698     9965334.647 6   7765174.13721        14.750           0.844
  21225176.815   -15326325.872 7 -11942571.18622        23.750           2.406
  22846299.636    -8261956.490 6  -6437875.88321        17.750           0.938
  23028070.651    -6683254.087 5                        11.250
  20851041.558      776329.586 6    604929.20822        16.750           1.969
  22574796.605    -9742507.131 6  -7397264.65821        13.500           0.781
 91  5 21 19 14 14.9990000  0  6G18G 2G11G16G19G 6
  22598119.276    10008351.813 6   7798693.86021        14.750           0.750
  21218502.347   -15361384.696 7 -11969889.72722        23.500           2.406
  22845771.292    -8264732.375 6  -6440038.90921        17.500           0.938
  23028156.980    -6682809.004 6  -5051704.99921        12.000           0.625
  20853050.269      786898.127 6    613164.42322        17.750           2.063
  22567754.167    -9779510.890 6  -7426098.70121        13.000           0.719
 91  5 21 19 14 29.9990000  0  6G18G 2G11G16G19G 6
  22606316.245    10051427.831 6   7832259.43621        14.500           0.813
  21211848.253   -15396361.275 7 -11997144.17822        24.250           2.438
  22845273.315    -8267355.594 6  -6442082.98021        17.500           0.969
  23028263.565    -6682232.546 5  -5051255.84921        11.750           0.500
  20855076.081      797520.772 6    621441.79522        17.000           2.156
  22560712.972    -9816494.184 6  -7454916.80721        13.000           0.781
 91  5 21 19 14 44.9990000  0  6G18G 2G11G16G19G 6
  22614524.909    10094562.165 6   7865870.46821        14.750           0.813
  21205209.019   -15431255.822 7 -12024334.69922        24.250           2.375
  22844802.925    -8269826.443 6  -6444008.31721        17.500           0.938
  23028399.831    -6681525.341 5  -5050704.82621        11.500           0.531
  20857102.862      808197.238 6    629761.10422        17.500           2.188
  22553682.175    -9853457.116 6  -7483719.03621        13.500           0.688
 91  5 21 19 14 59.9990000  0  6G18G 2G11G16G19G 6
  22622744.972    10137754.296 6   7899526.53021        14.750           0.781
  21198582.651   -15466068.615 7 -12051461.52022        24.000           2.375
  22844360.862    -8272145.330 6  -6445815.23521        17.250           0.938
  23028559.651    -6680688.041 5  -5050052.42721        11.500           0.531
  20859146.237      818927.226 6    638122.12022        17.000           2.125
  22546651.237    -9890400.132 6  -7512505.75221        13.000           0.781
 91  5 21 19 15 14.9990000  0  6G18G 2G11G16G19G 6
  22630975.112    10181001.643 6   7933225.61721        15.000           0.813
  21191975.058   -15500801.843 7 -12078526.34622        24.000           2.438
  22843948.612    -8274314.384 6  -6447505.42221        17.500           0.969
  23028738.980    -6679722.751 5  -5049300.28821        11.500           0.438
  20861195.956      829708.458 6    646523.06722        17.750           2.188
  22539620.190    -9927325.543 6  -7541278.75321        12.750           0.688
 91  5 21 19 15 29.9990000  0  6G18G 2G11G16G19G 6
  22639214.659    10224305.422 6   7966968.68921        14.750           0.813
  21185376.526   -15535453.978 7 -12105527.98322        24.000           2.406
  22843565.050    -8276332.154 6  -6449077.71021        17.750           1.000
  23028950.120    -6678627.981 5  -5048447.27221        11.500           0.438
  20863260.401      840542.379 6    654965.06922        17.250           2.125
  22532606.526    -9964231.759 6  -7570036.79521        13.000           0.750
 91  5 21 19 15 44.9990000  0  6G18G 2G11G16G19G 6
  22647464.542    10267664.813 6   8000755.08221        14.500           0.813
  21178802.347   -15570025.534 7 -12132466.82822        24.500           2.406
  22843207.940    -8278199.104 6  -6450532.48421        17.000           0.969
  23029180.800    -6677404.677 5  -5047494.08621        11.000           0.438
  20865330.253      851428.536 6    663447.77522        17.750           2.063
  22525582.636   -10001119.360 6  -7598780.33721        13.250           0.688
 91  5 21 19 15 59.9990000  0  6G18G 2G11G16G19G 6
  22655730.042    10311083.522 6   8034587.71021        14.500           0.656
  21172238.964   -15604512.444 7 -12159339.71422        24.250           2.406
  22842883.448    -8279911.422 6  -6451866.77121        17.500           0.938
  23029439.644    -6676048.690 5  -5046437.51521        11.000           0.469
  20867413.940      862370.850 6    671974.23922        17.750           2.094
  22518569.128   -10037984.431 6  -7627506.32221        13.000           0.688
 91  5 21 19 16 14.9990000  0  6G18G 2G11G16G19G 6
  22664002.144    10354559.460 6   8068464.91821        14.500           0.813
  21165692.409   -15638916.847 7 -12186148.30922        24.000           2.469
  22842587.886    -8281471.158 6  -6453082.16021        17.750           0.906
  23029723.042    -6674562.487 5  -5045279.47521        10.750           0.500
  20869504.886      873367.419 6    680542.98022        17.500           2.156
  22511556.472   -10074828.989 6  -7656216.32221        13.250           0.719
 91  5 21 19 16 29.9990000  0  6G18G 2G11G16G19G 6
  22672284.323    10398089.982 6   8102384.66721        14.500           0.781
  21159157.667   -15673241.046 7 -12212894.40822        23.500           2.344
  22842318.558    -8282880.731 6  -6454180.53921        17.500           0.938
  23030030.065    -6672948.790 5  -5044022.09921        11.250           0.469
  20871606.503      884415.925 6    689152.19222        18.000           2.156
  22504550.003   -10111655.466 6  -7684912.24121        13.250           0.750
 91  5 21 19 16 44.9990000  0  6G18G 2G11G16G19G 6
  22680579.456    10441674.424 6   8136346.43121        15.000           0.781
  21152640.753   -15707485.229 7 -12239578.16022        23.750           2.469
  22842077.815    -8284140.342 6  -6455162.07121        17.500           0.969
  23030362.628    -6671207.880 5  -5042665.59421        10.750           0.594
  20873720.261      895516.130 6    697801.68722        17.750           2.125
  22497547.487   -10148463.970 6  -7713594.14321        13.500           0.719
 91  5 21 19 16 59.9990000  0  6G18G 2G11G16G19G 6
  22688884.003    10485311.712 6   8170349.37021        14.750           0.750
  21146142.347   -15741650.266 7 -12266200.23523        23.750           2.531
  22841867.933    -8285250.956 6  -6456027.49721        17.750           1.000
  23030714.995    -6669340.954 5  -5041210.89921        10.500           0.531
  20875841.909      906666.908 6    706490.59222        17.750           2.125
  22490543.394   -10185255.603 6  -7742262.90521        13.750           0.750
 91  5 21 19 17 14.9990000  0  6G18G 2G11G16G19G 6
  22697196.308    10529004.365 6   8204395.46021        14.000           0.719
  21139657.175   -15775733.163 7 -12292758.30423        23.750           2.500
  22841682.823    -8286209.594 6  -6456774.50721        17.250           1.000
  23031098.042    -6667345.046 5  -5039655.68621        11.250           0.438
  20877971.886      917871.355 6    715221.32222        17.750           2.031
  22483547.440   -10222027.334 6  -7770916.15921        14.000           0.688
 91  5 21 19 17 29.9990000  0  6G18G 2G11G16G19G 6
  22705521.175    10572750.220 6   8238483.00121        14.250           0.688
  21133185.370   -15809735.889 7 -12319253.90622        23.750           2.469
  22841530.261    -8287018.312 6  -6457404.70621        17.500           1.000
  23031499.964    -6665222.482 5  -5038001.78721        10.500           0.594
  20880115.019      929127.372 6    723992.23022        17.750           2.188
  22476553.370   -10258781.168 6  -7799555.46021        13.500           0.750
 91  5 21 19 17 44.9990000  0  6G18G 2G11G16G19G 6
  22713856.964    10616553.187 6   8272615.04721        14.000           0.750
  21126729.308   -15843653.931 7 -12345683.51823        23.500           2.500
  22841408.698    -8287672.893 6  -6457914.77221        17.500           0.938
  23031928.808    -6662968.966 5  -5036245.85321        11.000           0.406
  20882266.722      940439.553 6    732806.89922        17.750           2.125
  22469565.308   -10295512.801 6  -7828177.46921        13.750           0.656
 91  5 21 19 17 59.9990000  0  6G18G 2G11G16G19G 6
  22722203.800    10660409.214 6   8306788.42221        14.250           0.656
  21120291.940   -15877491.598 7 -12372050.50723        23.750           2.531
  22841309.980    -8288177.518 6  -6458308.01021        17.250           0.875
  23032388.034    -6660588.627 5  -5034391.09321        11.250           0.469
  20884430.378      951803.717 6    741662.07622        18.000           2.125
  22462576.839   -10332226.273 6  -7856785.32421        13.500           0.688
 91  5 21 19 18 14.9990000  0  6G18G 2G11G16G19G 6
  22730558.237    10704318.605 6   8341003.39321        14.000           0.688
  21113867.519   -15911248.002 7 -12398354.16723        23.750           2.500
  22841241.776    -8288531.347 6  -6458583.73921        17.500           1.000
  23032857.659    -6658080.951 5  -5032437.11821        10.750           0.563
  20886603.761      963220.555 6    750558.30122        18.000           2.094
  22455592.948   -10368920.959 6  -7885378.54321        13.250           0.781
 91  5 21 19 18 29.9990000  0  6G18G 2G11G16G19G 6
  22738925.808    10748280.522 6   8375259.29221        14.250           0.563
  21107458.839   -15944923.788 7 -12424595.01622        23.250           2.188
  22841204.058    -8288735.046 6                        17.500
  23033363.034    -6655447.239 5  -5030384.93221        11.250           0.406
  20888788.605      974689.327 6    759494.98522        17.000           1.750
  22448613.331   -10405597.425 6  -7913957.56321        13.500           0.594
 91  5 21 19 18 44.9990000  0  6G18G 2G11G16G19G 6
  22747302.401    10792294.073 6   8409555.41721        14.000           0.531
  21101066.886   -15978519.467 7 -12450773.44222        24.000           2.188
  22841195.292    -8288789.300 6                        17.500
  23033886.933    -6652687.998 5  -5028234.91321        11.250           0.469
  20890977.769      986209.504 6    768471.73822        17.750           1.688
  22441639.019   -10442256.266 6  -7942522.84521        13.500           0.750
 91  5 21 19 18 59.9990000  0  6G18G 2G11G16G19G 6
  22755686.050    10836360.845 6   8443893.03021        13.750           0.563
  21094688.323   -16012032.995 7 -12476887.84222        23.500           2.219
  22841212.105    -8288692.176 6                        17.750
  23034438.245    -6649801.364 5  -5025985.64421        11.500           0.469
  20893178.651      997782.984 6    777490.02022        18.250           1.750
  22434667.464   -10478895.594 6  -7971072.91421        13.750           0.625
 91  5 21 19 19 14.9990000  0  6G18G 2G11G16G19G 6
  22764080.550    10880480.534 6   8478271.85321        13.000           0.563
  21088327.120   -16045464.518 7 -12502938.35522        23.250           2.281
  22841261.519    -8288443.850 6                        18.000
  23035010.284    -6646787.630 5  -5023637.33721        10.750           0.469
  20895393.003     1009409.711 6    786549.78822        18.000           1.688
  22427698.792   -10515515.516 6  -7999607.88321        14.000           0.500
 91  5 21 19 19 29.9990000  0  6G18G 2G11G16G19G 6
  22772488.464    10924652.188 6   8512691.18321        13.500           0.656
  21081979.323   -16078814.783 7 -12528925.54422        23.250           2.406
  22841337.190    -8288044.980 6                        17.750
  23035605.480    -6643647.627 5  -5021190.61821        11.000           0.438
  20897616.245     1021089.129 6    795650.62422        18.250           1.781
  22420735.542   -10552116.678 6  -8028128.20621        14.000           0.625
 91  5 21 19 19 44.9990000  0  6G18G 2G11G16G19G 6
  22780902.261    10968876.242 6   8547151.35221        13.250           0.688
  21075650.105   -16112082.923 7 -12554848.73123        23.250           2.719
  22841441.605    -8287495.029 6  -6457776.34721        17.750           0.969
  23036232.378    -6640380.734 5  -5018645.04521        11.500           0.531
  20899847.370     1032821.961 6    804793.07422        18.000           2.000
  22413769.362   -10588698.485 6  -8056633.45921        13.500           0.781
 91  5 21 19 19 59.9990000  0  6G18G 2G11G16G19G 6
  22789328.284    11013150.262 6   8581650.42721        13.000           0.750
  21069333.050   -16145271.238 7 -12580709.72523        23.000           2.750
  22841572.933    -8286796.215 6  -6457231.83521        17.750           0.906
  23036871.808    -6636989.492 5  -5016002.57321        11.000           0.531
  20902090.347     1044605.925 6    813975.36822        18.250           2.063
  22406814.019   -10625263.067 6  -8085125.29521        14.250           0.781
 91  5 21 19 20 14.9990000  0  6G18G 2G11G16G19G 6
  22797765.214    11057479.732 6   8616192.73721        13.000           0.750
  21063036.417   -16178373.973 7 -12606504.02723        23.250           2.781
  22841736.737    -8285942.783 6  -6456566.85421        17.750           1.031
  23037548.823    -6633468.469 5  -5013258.95921        11.000           0.469
  20904343.675     1056446.760 6    823201.98122        18.250           1.969
  22399858.886   -10661804.723 6  -8113599.26421        14.250           0.813
 91  5 21 19 20 29.9990000  0  6G18G 2G11G16G19G 6
  22806208.605    11101857.948 6   8650773.02321        12.750           0.688
  21056751.019   -16211397.861 7 -12632236.89423        23.000           2.688
  22841928.081    -8284941.486 6  -6455786.64121        17.750           0.906
  23038235.206    -6629824.527 5  -5010419.58221        10.750           0.500
  20906607.425     1068337.918 6    832467.80322        18.750           2.031
  22392909.120   -10698330.141 6  -8142060.58221        14.000           0.750
 91  5 21 19 20 44.9990000  0  6G18G 2G11G16G19G 6
  22814663.690    11146288.118 6   8685393.79421        13.000           0.656
  21050481.948   -16244338.916 7 -12657905.21423        23.000           2.719
  22842146.511    -8283788.728 6  -6454888.41121        17.500           0.906
  23038953.839    -6626054.220 5  -5007481.72721        10.500           0.469
  20908879.433     1080282.846 6    841775.52422        18.250           2.094
  22385961.956   -10734835.564 6  -8170506.32221        14.000           0.719
 91  5 21 19 20 59.9990000  0  6G18G 2G11G16G19G 6
  22823130.964    11190771.384 6   8720055.93521        13.250           0.656
  21044231.417   -16277195.606 7 -12683507.79923        23.250           2.813
  22842393.276    -8282482.935 6  -6453870.93521        17.500           0.969
  23039701.425    -6622155.913 5  -5004444.12921        10.500           0.563
  20911163.831     1092283.409 6    851126.59622        18.750           2.031
  22379016.550   -10771319.304 6  -8198935.16821        14.250           0.781
 91  5 21 19 21 14.9990000  0  6G18G 2G11G16G19G 6
  22831606.105    11235306.760 6   8754758.67821        13.250           0.563
  21037991.534   -16309969.018 7 -12709045.49323        23.000           2.906
  22842673.058    -8281025.194 6  -6452735.06421        18.000           1.094
  23040458.659    -6618130.955 5  -5001307.84921        10.000           0.531
  20913457.105     1104338.461 6    860520.12222        18.500           1.938
  22372077.847   -10807782.518 6  -8227348.01021        14.000           0.844
 91  5 21 19 21 29.9990000  0  6G18G 2G11G16G19G 6
  22840088.089    11279891.921 6   8789500.21821        13.000           0.719
  21031772.761   -16342661.239 7 -12734519.92023        23.000           2.875
  22842977.058    -8279417.599 6  -6451482.41221        17.500           0.938
  23041255.144    -6613981.326 5  -4998074.40921        11.000           0.469
  20915761.120     1116446.136 6    869954.66222        18.500           1.938
  22365146.183   -10844227.194 6  -8255746.41221        14.500           0.750
 91  5 21 19 21 44.9990000  0  6G18G 2G11G16G19G 6
  22848584.800    11324526.298 6   8824280.11821        13.250           0.656
  21025565.870   -16375272.335 7 -12759931.13023        22.750           2.750
  22843311.917    -8277660.354 6  -6450113.15421        17.750           1.031
  23042065.112    -6609707.507 5  -4994744.21921        10.750           0.469
  20918076.964     1128606.172 6    879429.99922        18.500           1.938
  22358214.565   -10880653.542 6  -8284130.53921        14.500           0.719
 91  5 21 19 21 59.9990000  0  6G18G 2G11G16G19G 6
  22857086.550    11369212.437 6   8859100.34221        13.250           0.500
  21019376.745   -16407799.337 7 -12785276.81023        22.750           2.781
  22843676.440    -8275750.830 6  -6448625.23321        17.750           0.969
  23042903.042    -6605307.299 5  -4991315.52621        10.500           0.531
  20920399.581     1140821.308 6    888948.27022        18.500           1.875
  22351286.925   -10917058.868 6  -8312498.28321        14.250           0.813
 91  5 21 19 22 14.9990000  0  6G18G 2G11G16G19G 6
  22865598.659    11413949.188 6   8893960.00621        12.750           0.594
  21013202.503   -16440243.211 7 -12810557.71123        23.250           2.750
  22844068.831    -8273689.758 6  -6447019.23221        17.500           1.000
  23043763.839    -6600781.515 5  -4987789.00321        11.000           0.469
  20922735.362     1153090.855 6    898508.93922        18.500           1.938
  22344362.159   -10953443.802 6  -8340850.14221        14.250           0.781
 91  5 21 19 22 29.9990000  0  6G18G 2G11G16G19G 6
  22874122.058    11458735.626 6   8928858.39021        12.750           0.563
  21007043.769   -16472604.699 7 -12835774.42123        22.750           2.875
  22844489.167    -8271477.912 6  -6445295.73721        17.750           0.906
  23044648.097    -6596130.985 5  -4984165.25821        11.000           0.500
  20925080.065     1165414.153 6    908111.49622        18.750           1.844
  22337438.847   -10989809.133 6  -8369186.72421        14.250           0.781
 91  5 21 19 22 44.9990000  0  6G18G 2G11G16G19G 6
  22882653.433    11503572.452 6   8963796.03021        13.250           0.406
  21000901.956   -16504882.736 7 -12860926.10522        22.750           2.344
  22844939.198    -8269114.484 6  -6443454.13421        17.500           0.813
  23045557.495    -6591354.768 5  -4980443.58121        11.250           0.375
  20927434.683     1177792.014 6    917756.56122        18.500           1.500
  22330525.917   -11026153.991 6  -8397507.34721        14.250           0.594
 91  5 21 19 22 59.9990000  0  6G18G 2G11G16G19G 6
  22891196.565    11548461.712 6   8998774.53321        13.000           0.500
  20994776.917   -16537075.044 7 -12886010.97722        23.250           2.344
  22845417.605    -8266597.197 6  -6441492.62621        17.750           0.781
  23046496.675    -6586450.962 5  -4976622.48921        11.500           0.469
  20929801.745     1190226.814 6    927446.00522        18.250           1.594
  22323612.339   -11062476.006 6  -8425810.17321        14.250           0.594
 91  5 21 19 23 14.9990000  0  6G18G 2G11G16G19G 6
  22899745.722    11593398.989 6   9033790.46121        12.500           0.594
  20988667.831   -16569185.738 7 -12911032.25023        23.250           2.844
  22845925.355    -8263930.327 6  -6439414.56121        17.750           1.000
  23047448.526    -6581423.780 5  -4972705.24621        11.000           0.594
  20932178.050     1202714.305 6    937176.50622        18.250           1.875
  22316706.808   -11098779.332 6  -8454098.43421        14.250           0.750
 91  5 21 19 23 29.9990000  0  6G18G 2G11G16G19G 6
  22908305.175    11638384.670 6   9068844.10021        12.250           0.500
  20982571.706   -16601213.965 7 -12935989.27723        23.250           2.813
  22846461.909    -8261113.106 6  -6437219.34721        17.500           1.031
  23048433.253    -6576272.833 5  -4968691.57821        11.250           0.500
  20934561.417     1215255.417 6    946948.78522        19.000           1.906
  22309801.722   -11135063.103 6  -8482371.47121        14.500           0.781
 91  5 21 19 23 44.9990000  0  6G18G 2G11G16G19G 6
  22916878.698    11683418.518 6   9103935.27421        12.500           0.594
  20976492.315   -16633159.871 7 -12960882.15023        23.500           2.906
  22847025.753    -8258145.690 6  -6434907.10221        17.500           1.063
  23049426.065    -6570997.900 5  -4964581.29721        10.500           0.438
  20936961.589     1227850.074 6    956762.78722        18.250           1.969
  22302899.534   -11171327.449 6  -8510629.35321        14.750           0.781
 91  5 21 19 23 59.9990000  0  6G18G 2G11G16G19G 6
  22925457.253    11728502.207 6   9139065.27221        12.750           0.563
  20970428.690   -16665021.770 7 -12985709.56923        23.500           3.000
  22847619.112    -8255026.423 6  -6432476.52121        18.000           0.969
  23050461.487    -6565598.026 5  -4960373.63621        10.750           0.469
  20939368.839     1240500.100 6    966619.93622        18.500           1.875
  22296002.503   -11207570.633 6  -8538870.76121        14.250           0.875
 91  5 21 19 24 14.9990000  0  6G18G 2G11G16G19G 6
  22934048.065    11773635.013 6   9174233.55721        12.750           0.594
  20964380.339   -16696799.908 7 -13010471.71823        23.250           2.969
  22848240.995    -8251755.836 6  -6429928.02821        17.500           0.906
  23051508.245    -6560074.016 5  -4956069.27721        10.250           0.531
  20941786.925     1253204.984 6    976519.82622        18.250           2.063
  22289112.097   -11243792.994 6  -8567095.93121        15.000           0.844
 91  5 21 19 24 29.9990000  0  6G18G 2G11G16G19G 6
  22942644.792    11818815.874 6   9209439.28021        12.750           0.438
  20958349.558   -16728494.687 7 -13035168.91323        23.500           2.906
  22848894.190    -8248334.463 6  -6427262.04821        17.750           0.938
  23052588.472    -6554426.296 5  -4951668.49221        10.750           0.563
  20944213.253     1265964.288 6    986462.12622        18.250           1.813
  22282220.917   -11279995.184 6  -8595305.39721        14.750           0.813
 91  5 21 19 24 44.9990000  0  6G18G 2G11G16G19G 6
  22951252.394    11864044.533 6   9244682.24521        12.750           0.531
  20952335.675   -16760106.589 7 -13059801.52623        23.750           2.813
  22849573.894    -8244762.753 6  -6424478.91021        17.750           0.906
  23053678.276    -6548655.583 5  -4947171.88221        10.000           0.500
  20946653.120     1278777.563 6    996446.48222        17.750           1.906
  22275334.675   -11316177.526 6  -8623499.39021        14.750           0.750
 91  5 21 19 24 59.9990000  0  6G18G 2G11G16G19G 6
  22959867.019    11909319.375 6   9279961.20121        12.500           0.438
  20946335.214   -16791636.413 7 -13084370.19322        23.750           2.406
  22850280.089    -8241041.660 6  -6421579.38521        17.750           0.844
  23054809.308    -6542763.021 5  -4942580.32421        10.500           0.469
  20949102.894     1291643.818 6   1006472.11322        17.500           1.594
  22268454.120   -11352341.062 6  -8651678.74121        14.750           0.688
 91  5 21 19 25 14.9990000  0  6G18G 2G11G16G19G 6
  22968491.776    11954642.615 6   9315277.88821        12.250           0.594
  20940351.151   -16823081.870 7 -13108873.11523        23.750           2.938
  22851017.995    -8237168.935 6  -6418561.69121        17.750           0.875
  23055948.612    -6536746.244 5  -4937891.97221        10.250           0.500
  20951560.183     1304565.690 6   1016541.09222        18.000           1.844
  22261575.901   -11388483.210 6  -8679841.41421        14.500           0.813
 91  5 21 19 25 29.9990000  0  6G18G 2G11G16G19G 6
  22977123.456    12000012.942 6   9350631.24921        12.000           0.531
  20934383.269   -16854444.104 7 -13133311.19223        24.000           2.813
  22851783.440    -8233145.838 6  -6415426.82821        17.750           0.906
  23057116.847    -6530606.616 5  -4933107.88121        10.250           0.625
  20954029.448     1317541.943 6   1026652.43122        18.250           1.875
  22254704.159   -11424605.186 6  -8707988.38221        14.500           0.938
 91  5 21 19 25 44.9990000  0  6G18G 2G11G16G19G 6
  22985768.378    12045430.761 6   9386021.60221        12.250           0.406
  20928429.394   -16885722.647 7 -13157684.04923        23.750           2.594
  22852576.675    -8228971.795 6  -6412174.34621        17.750           0.844
  23058312.503    -6524343.727 5  -4928227.75121        10.750           0.563
  20956508.839     1330573.330 6   1036806.74622        17.750           1.719
  22247831.245   -11460706.320 6  -8736119.09621        14.500           0.813
 91  5 21 19 25 59.9990000  0  6G18G 2G11G16G19G 6
  22994418.987    12090900.541 5   9421452.47221        11.750           0.563
  20922495.675   -16916912.244 7 -13181987.60623        24.000           2.688
  22853400.519    -8224641.952 6  -6408800.45721        17.500           0.875
  23059528.440    -6517953.116 5  -4923248.10521        10.750           0.500
  20959004.065     1343664.631 6   1047007.74322        17.000           1.844
  22240967.175   -11496781.691 6  -8764229.73621        14.750           0.875
 91  5 21 19 26 14.9990000  0  6G18G 2G11G16G19G 6
  23003080.550    12136412.698 6   9456916.34221        12.000           0.469
  20916576.503   -16948022.426 7 -13206229.27423        24.000           2.750
  22854253.628    -8220165.767 6  -6405312.53721        17.750           0.844
  23060764.597    -6511443.883 5  -4918176.03121        10.750           0.469
  20961501.784     1356806.454 6   1057248.10422        18.000           1.750
  22234103.058   -11532840.574 6  -8792327.51821        14.500           0.813
 91  5 21 19 26 29.9990000  0  6G18G 2G11G16G19G 6
  23011753.964    12181973.154 6   9492417.85421        12.500           0.563
  20910671.769   -16979047.202 7 -13230404.39923        23.750           2.813
  22855135.151    -8215537.521 6  -6401706.13021        17.500           0.750
  23062032.550    -6504810.585 5  -4913007.28521        11.500           0.531
  20964014.987     1370004.633 6   1067532.38022        16.750           1.781
  22227248.597   -11568877.214 6  -8820407.97621        15.250           0.813
 91  5 21 19 26 44.9990000  0  6G18G 2G11G16G19G 6
  23020430.925    12227579.856 6   9527955.40121        12.000           0.406
  20904783.198   -17009988.201 7 -13254514.24123        24.000           2.688
  22856043.558    -8210758.977 6  -6397982.60121        17.500           1.000
  23063312.128    -6498055.306 5  -4907743.49121        11.000           0.531
  20966535.339     1383257.682 6   1077859.41122        17.750           1.875
  22220395.355   -11604893.222 6  -8848472.35721        15.000           0.875
 91  5 21 19 26 59.9990000  0  6G18G 2G11G16G19G 6
  23029117.776    12273229.664 6   9563526.54121        12.000           0.531
  20898911.565   -17040847.975 7 -13278560.79023        23.750           2.813
  22856981.597    -8205832.739 6  -6394143.97821        17.750           0.875
  23064622.230    -6491180.781 5  -4902386.77821        11.000           0.500
  20969068.886     1396563.042 6   1088227.20622        16.750           1.781
  22213543.019   -11640891.220 6  -8876522.70221        14.750           0.844
 91  5 21 19 27 14.9990000  0  6G18G 2G11G16G19G 6
  23037810.886    12318923.779 5   9599132.19521        11.750           0.531
  20893053.425   -17071625.437 7 -13302543.20123        24.000           2.625
  22857947.440    -8200757.772 6  -6390189.47021        17.750           0.969
  23065947.901    -6484185.896 5  -4896936.28321        10.500           0.469
  20971609.300     1409922.052 6   1098636.80622        17.500           1.781
  22206699.690   -11676870.019 6  -8904558.07521        15.250           0.906
 91  5 21 19 27 29.9990000  0  6G18G 2G11G16G19G 6
  23046515.331    12364663.358 6   9634773.28921        12.000           0.469
  20887212.761   -17102318.785 7 -13326460.06523        23.750           2.781
  22858940.761    -8195532.349 6  -6386117.72621        17.750           0.844
  23067308.620    -6477069.214 5  -4891390.86721        10.750           0.469
  20974163.183     1423336.451 6   1109089.56222        17.000           1.813
  22199857.550   -11712827.651 6  -8932576.96921        15.000           0.781
 91  5 21 19 27 44.9990000  0  6G18G 2G11G16G19G 6
  23055230.269    12410448.631 6   9670449.98921        12.250           0.500
  20881389.214   -17132927.799 7 -13350311.21523        24.000           2.688
  22859964.261    -8190156.438 6  -6381928.71421        17.750           0.844
  23068683.745    -6469830.702 5  -4885750.53021        10.500           0.531
  20976722.878     1436806.327 6   1119585.55622        17.500           1.750
  22193013.667   -11748764.140 6  -8960579.38421        14.750           0.906
 91  5 21 19 27 59.9990000  0  6G18G 2G11G16G19G 6
  23063950.886    12456279.671 5   9706162.34221        11.750           0.563
  20875580.472   -17163452.144 7 -13374096.39123        24.250           2.656
  22861016.089    -8184629.657 6  -6377622.13621        17.750           0.969
  23070085.112    -6462470.301 5  -4880015.21021        10.250           0.438
  20979299.542     1450332.012 6   1130125.02622        16.750           1.906
  22186183.151   -11784678.983 6  -8988564.92821        14.750           0.844
 91  5 21 19 28 14.9990000  0  6G18G 2G11G16G19G 6
  23072680.237    12502155.895 6   9741909.89521        12.250           0.438
  20869788.112   -17193891.871 7 -13397815.63123        23.750           2.719
  22862095.401    -8178952.315 6  -6373198.24621        17.750           0.875
  23071509.769    -6454988.500 5  -4874185.29821        10.500           0.469
  20981883.269     1463913.441 6   1140707.93922        17.500           1.750
  22179350.878   -11820572.377 6  -9016533.75921        14.750           0.750
 91  5 21 19 28 29.9990000  0  6G18G 2G11G16G19G 6
  23081419.651    12548074.180 6   9777690.23921        12.250           0.469
  20864010.019   -17224250.008 7 -13421471.29423        23.750           2.781
  22863205.026    -8173127.472 6  -6368659.41221        17.500           0.813
  23072953.550    -6447388.301 5  -4868263.13021        10.500           0.563
  20984476.894     1477547.722 6   1151332.03522        17.250           1.875
  22172524.995   -11856447.249 6  -9044488.17221        14.500           0.906
 91  5 21 19 28 44.9990000  0  6G18G 2G11G16G19G 6
  23090165.003    12594033.526 6   9813502.56621        12.250           0.500
  20858249.612   -17254527.225 7 -13445063.90523        24.250           2.656
  22864340.651    -8167155.959 6  -6364006.29421        17.500           0.875
  23074423.386    -6439670.533 5  -4862249.35221        10.500           0.469
  20987082.745     1491234.041 6   1161996.67422        17.250           1.906
  22165702.659   -11892304.213 6  -9072428.62821        14.750           0.906
 91  5 21 19 28 59.9990000  0  6G18G 2G11G16G19G 6
  23098917.433    12640036.862 6   9849349.18821        12.250           0.500
  20852502.714   -17284720.657 7 -13468591.22523        24.000           2.750
  22865504.511    -8161034.937 6  -6359236.67221        17.250           0.906
  23075912.167    -6431832.732 5  -4856142.03621        10.500           0.438
  20989695.808     1504975.547 6   1172704.31922        17.500           1.906
  22158880.901   -11928140.394 6  -9100352.88721        14.750           0.844
 91  5 21 19 29 14.9990000  0  6G18G 2G11G16G19G 6
  23107680.472    12686083.103 6   9885229.21421        12.000           0.500
  20846773.573   -17314830.844 7 -13492053.68623        24.000           2.688
  22866699.073    -8154765.115 6  -6354351.10421        17.500           0.813
  23077428.878    -6423875.859 5  -4849941.93021        10.500           0.500
  20992321.894     1518771.333 6   1183454.25922        17.250           1.813
  22152066.933   -11963956.479 6  -9128261.49321        15.000           0.844
 91  5 21 19 29 29.9990000  0  6G18G 2G11G16G19G 6
  23116451.417    12732169.650 6   9921140.66021        12.000           0.469
  20841059.214   -17344859.817 7 -13515452.85623        23.750           2.781
  22867920.855    -8148348.745 6  -6349351.33621        17.750           0.969
  23078969.159    -6415802.085 5  -4843650.72721        11.000           0.469
  20994956.683     1532619.457 6   1194244.98622        17.250           1.906
  22145257.690   -11999754.501 6  -9156156.00721        15.250           0.813
 91  5 21 19 29 44.9990000  0  6G18G 2G11G16G19G 6
  23125230.472    12778300.769 6   9957086.83421        12.000           0.344
  20835361.058   -17374803.459 7 -13538785.53823        23.750           2.813
  22869169.355    -8141781.745 6  -6344234.20021        17.250           0.906
  23080525.987    -6407607.431 5  -4837265.35821        10.750           0.594
  20997602.964     1546524.321 6   1205079.91722        17.500           1.875
  22138446.847   -12035530.209 6  -9184033.16021        15.250           0.906
 91  5 21 19 29 59.9990000  0  6G18G 2G11G16G19G 6
  23134016.808    12824472.305 5   9993064.51321        11.500           0.406
  20829679.480   -17404665.664 7 -13562054.76123        24.000           2.625
  22870445.855    -8135068.093 6  -6339002.78821        17.250           0.938
  23082109.980    -6399295.866 5  -4830788.86321        10.750           0.500
  21000260.378     1560481.874 6   1215955.90622        17.250           1.938
  22131640.347   -12071287.488 6  -9211895.92821        15.500           0.938
 91  5 21 19 30 14.9990000  0  6G18G 2G11G16G19G 6
  23142811.206    12870684.026 5  10029073.50321        11.250           0.469
  20824011.706   -17434446.136 7 -13585260.29823        23.750           2.750
  22871751.628    -8128207.632 6  -6333656.96821        17.750           0.875
  23083710.526    -6390867.418 5  -4824221.30421        10.750           0.594
  21002926.315     1574492.219 6   1226873.03822        17.500           1.813
  22124841.089   -12107026.017 6  -9239744.09521        15.250           0.875
 91  5 21 19 30 29.9990000  0  6G18G 2G11G16G19G 6
  23151613.433    12916936.537 6  10065114.26621        12.000           0.531
  20818360.636   -17464144.231 7 -13608401.64323        23.750           2.781
  22873083.940    -8121199.784 6  -6328196.30521        17.500           0.906
  23085336.956    -6382321.887 5  -4817562.51021        10.750           0.438
  21005602.409     1588556.231 6   1237831.98322        17.250           1.906
  22118044.315   -12142745.120 6  -9267577.12421        15.250           0.844
 91  5 21 19 30 44.9990000  0  6G18G 2G11G16G19G 6
  23160419.925    12963230.649 5  10101187.45721        11.000           0.406
  20812724.519   -17493758.383 7 -13631477.58223        23.500           2.750
  22874447.831    -8114043.358 6  -6322619.87421        17.500           0.875
  23086986.519    -6373658.025 5  -4810811.52221        10.750           0.469
  21008288.394     1602675.283 6   1248833.81722        17.750           1.938
  22111250.589   -12178443.405 6  -9295393.92421        15.000           0.906
 91  5 21 19 30 59.9990000  0  6G18G 2G11G16G19G 6
  23169238.667    13009566.966 5  10137293.52021        11.000           0.500
  20807104.214   -17523287.636 7 -13654487.36023        23.750           2.813
  22875837.581    -8106737.557 6  -6316927.04221        17.750           0.844
  23088661.636    -6364875.248 5  -4803967.85321        10.750           0.438
  21010989.097     1616850.210 6   1259879.19122        16.750           1.969
  22104463.120   -12214120.084 6  -9323193.89421        15.250           0.844
 91  5 21 19 31 14.9990000  0  6G18G 2G11G16G19G 6
  23178063.026    13055943.783 5  10173431.14721        11.000           0.469
  20801502.323   -17552733.762 7 -13677432.36623        24.000           2.781
  22877255.089    -8099284.048 6  -6311119.10921        17.250           0.938
  23090351.503    -6355975.132 5  -4797032.75221        10.500           0.406
  21013693.605     1631079.459 6   1270966.88822        17.500           1.938
  22097675.472   -12249776.673 6  -9350978.21421        15.250           0.906
 91  5 21 19 31 29.9980000  0  6G18G 2G11G16G19G 6
  23186897.248    13102357.114 5  10209597.23221        10.750           0.438
  20795915.967   -17582095.456 7 -13700311.58123        24.250           2.750
  22878702.537    -8091684.139 6  -6305197.09421        17.250           0.875
  23092068.436    -6346959.322 5  -4790007.51221        10.750           0.469
  21016410.897     1645361.526 6   1282095.75122        17.750           2.000
  22090893.982   -12285411.307 6  -9378745.42221        15.250           0.844
 91  5 21 19 31 44.9980000  0  6G18G 2G11G16G19G 6
  23195739.795    13148809.936 5  10245794.08721        11.000           0.469
  20790341.998   -17611379.910 7 -13723130.60723        24.000           2.719
  22880177.279    -8083940.173 6  -6299162.84121        17.750           0.969
  23093801.928    -6337830.037 5  -4782893.85921        10.500           0.406
  21019139.607     1659695.077 6   1293264.71822        17.500           2.031
  22084115.764   -12321032.036 6  -9406501.79121        15.750           0.906
 91  5 21 19 31 59.9980000  0  6G18G 2G11G16G19G 6
  23204585.053    13195305.475 5  10282024.21621        10.750           0.469
  20784786.131   -17640578.134 7 -13745882.44023        24.000           2.750
  22881678.053    -8076045.766 6  -6293011.35121        17.250           0.906
  23095566.389    -6328581.149 5  -4775686.98021        10.500           0.469
  21021876.873     1674086.214 6   1304478.56622        17.250           1.938
  22077340.576   -12356629.467 6  -9434240.00621        16.000           1.063
 91  5 21 19 32 14.9980000  0  6G18G 2G11G16G19G 6
  23213439.240    13241838.295 5  10318283.40321        10.250           0.500
  20779244.928   -17669695.469 7 -13768571.24323        24.500           2.781
  22883208.514    -8068006.336 6  -6286746.84721        17.250           0.906
  23097343.326    -6319218.258 5  -4768391.29221        10.250           0.438
  21024624.732     1688529.635 6   1315733.14822        17.500           1.969
  22070573.436   -12392208.880 6  -9461964.18021        16.250           0.938
 91  5 21 19 32 29.9980000  0  6G18G 2G11G16G19G 6
  23222300.904    13288409.758 5  10354572.70321        10.750           0.500
  20773718.998   -17698730.127 7 -13791195.62323        24.250           2.875
  22884765.576    -8059820.363 6  -6280368.17121        17.250           0.906
  23099148.951    -6309740.203 5  -4761005.84621        10.750           0.438
  21027384.467     1703026.939 6   1327029.72422        17.500           1.906
  22063805.615   -12427768.622 6  -9489673.03321        16.250           0.906
 91  5 21 19 32 44.9980000  0  6G18G 2G11G16G19G 6
  23231168.897    13335016.997 5  10390889.87521        10.250           0.469
  20768211.670   -17727684.938 7 -13813757.78323        24.250           2.813
  22886351.045    -8051490.577 6  -6273877.43021        17.000           0.844
  23100976.850    -6300149.703 5  -4753532.79621        10.500           0.438
  21030154.076     1717575.483 6   1338366.22522        17.750           2.031
  22057043.881   -12463311.314 6  -9517368.59421        16.500           1.000
 91  5 21 19 32 59.9980000  0  6G18G 2G11G16G19G 6
  23240045.209    13381660.483 5  10427235.30021        10.500           0.563
  20762716.873   -17756558.610 7 -13836256.71623        24.750           2.844
  22887963.186    -8043016.181 6  -6267274.00021        17.000           0.906
  23102820.904    -6290445.865 5  -4745971.44021        10.250           0.344
  21032931.725     1732176.313 6   1349743.46022        17.750           2.000
  22050279.779   -12498835.906 6  -9545050.05421        16.250           1.031
 91  5 21 19 33 14.9980000  0  6G18G 2G11G16G19G 6
  23248929.006    13428343.013 5  10463611.14521        10.250           0.469
  20757237.217   -17785348.481 7 -13858690.35523        24.250           2.875
  22889605.428    -8034394.506 6  -6260555.81221        17.250           0.969
  23104693.154    -6280626.187 5  -4738319.79921        11.000           0.406
  21035719.998     1746832.254 6   1361163.64522        17.250           2.031
  22043528.654   -12534339.574 6  -9572715.21121        16.500           1.063
 91  5 21 19 33 29.9980000  0  6G18G 2G11G16G19G 6
  23257819.709    13475063.392 5  10500016.46421        10.500           0.469
  20751774.139   -17814055.512 7 -13881059.43723        24.000           2.844
  22891273.803    -8025626.576 6  -6253723.66021        17.250           0.906
  23106580.272    -6270691.654 5  -4730578.68121        10.500           0.406
  21038519.764     1761542.340 6   1372626.02722        17.750           2.031
  22036771.209   -12569823.212 6  -9600364.76021        16.500           1.000
 91  5 21 19 33 44.9980000  0  6G18G 2G11G16G19G 6
  23266718.631    13521818.005 5  10536448.48921        10.750           0.500
  20746325.615   -17842683.081 7 -13903366.61123        24.000           2.813
  22892969.795    -8016715.855 6  -6246780.23021        17.750           0.938
  23108494.529    -6260646.037 5  -4722750.98621        10.750           0.406
  21041329.772     1776303.426 6   1384128.14222        17.500           2.000
  22030024.264   -12605290.156 6  -9628001.30221        16.250           0.938
 91  5 21 19 33 59.9980000  0  6G18G 2G11G16G19G 6
  23275620.717    13568607.360 5  10572907.55221        10.250           0.438
  20740894.279   -17871230.536 7 -13925611.35123        24.500           2.938
  22894690.561    -8007661.802 6  -6239725.11621        17.250           0.813
  23110424.350    -6250488.935 5  -4714836.43421        10.250           0.438
  21044148.647     1791116.184 6   1395670.52422        17.750           1.938
  22023275.826   -12640739.638 6  -9655624.23821        16.000           1.031
 91  5 21 19 34 14.9980000  0  6G18G 2G11G16G19G 6
  23284534.787    13615433.422 5  10609395.23721        10.500           0.500
  20735477.186   -17899695.525 7 -13947791.83023        24.500           2.969
  22896443.139    -7998462.245 6  -6232556.64521        16.750           0.875
  23112375.857    -6240218.255 5  -4706833.38221        10.250           0.375
  21046978.053     1805982.919 6   1407254.96122        17.750           2.000
  22016535.904   -12676169.403 6  -9683231.80821        16.250           1.063
 91  5 21 19 34 29.9980000  0  6G18G 2G11G16G19G 6
  23293451.201    13662292.970 5  10645908.99821        10.500           0.438
  20730075.482   -17928080.884 7 -13969910.26623        24.500           2.875
  22898219.725    -7989120.077 6  -6225277.02821        17.500           0.781
  23114354.397    -6229837.191 5  -4698744.29921        10.250           0.344
  21049815.748     1820900.794 6   1418879.25022        17.750           1.938
  22009796.568   -12711582.139 6  -9710826.11021        16.500           0.969
 91  5 21 19 34 44.9980000  0  6G18G 2G11G16G19G 6
  23302371.139    13709190.824 5  10682452.61821        10.000           0.375
  20724690.631   -17956381.584 7 -13991962.72923        24.750           2.938
  22900024.600    -7979630.438 6  -6217882.49921        17.500           0.813
  23116353.092    -6219340.683 5  -4690565.28021        10.250           0.406
  21052666.006     1835874.780 6   1430547.26322        17.750           1.938
  22003063.459   -12746972.859 6  -9738403.25421        16.500           0.969
 91  5 21 19 34 59.9980000  0  6G18G 2G11G16G19G 6
  23311304.217    13756123.173 5  10719023.13321        10.250           0.375
  20719322.240   -17984601.198 7 -14013952.01223        25.000           2.875
  22901859.756    -7969997.043 6  -6210375.95721        16.750           0.875
  23118372.397    -6208732.757 5  -4682299.42421        10.000           0.406
  21055524.490     1850901.441 6   1442256.32022        17.750           1.969
  21996330.686   -12782345.088 6  -9765965.98721        16.750           1.031
 91  5 21 19 35 14.9980000  0  6G18G 2G11G16G19G 6
  23320243.881    13803089.859 5  10755620.38521        10.500           0.469
  20713965.318   -18012739.502 7 -14035877.93523        25.000           2.938
  22903720.186    -7960219.988 6  -6202757.47421        17.250           0.781
  23120408.350    -6198013.556 5  -4673946.86921         9.500           0.375
  21058393.982     1865980.946 6   1454006.55722        17.750           1.969
  21989602.475   -12817698.657 6  -9793514.18421        16.750           1.031
 91  5 21 19 35 29.9980000  0  6G18G 2G11G16G19G 6
  23329187.467    13850089.129 5  10792243.03121        10.250           0.406
  20708625.982   -18040797.876 7 -14057741.57923        25.000           2.969
  22905606.107    -7950300.808 6  -6195028.24321        17.250           0.875
  23122472.709    -6187184.725 5  -4665508.89221        10.000           0.406
  21061273.857     1881111.851 6   1465796.84122        18.000           1.875
  21982882.068   -12853035.028 6  -9821048.98321        16.750           1.031
 91  5 21 19 35 44.9980000  0  6G18G 2G11G16G19G 6
  23338138.686    13897124.151 5  10828893.53721        10.500           0.406
  20703302.662   -18068773.212 7 -14079540.51623        25.000           3.094
  22907524.295    -7940236.436 6  -6187185.87421        17.250           0.781
  23124552.529    -6176243.412 5  -4656983.27221        10.000           0.375
  21064161.756     1896297.327 6   1477629.65122        17.500           1.938
  21976159.709   -12888350.923 6  -9848567.81521        16.750           1.031
 91  5 21 19 35 59.9980000  0  6G18G 2G11G16G19G 6
  23347095.420    13944191.659 5  10865569.37421        10.250           0.438
  20697994.428   -18096668.126 7 -14101276.78423        25.000           2.938
  22909463.897    -7930029.740 6  -6179232.61521        16.750           0.688
  23126657.818    -6165192.636 5  -4648372.32121         9.500           0.438
  21067061.678     1911534.570 6   1489502.79822        18.250           1.875
  21969443.397   -12923649.045 6  -9876072.80821        16.750           1.094
 91  5 21 19 36 14.9980000  0  6G18G 2G11G16G19G 6
  23356060.053    13991293.490 5  10902271.92421        10.000           0.375
  20692702.170   -18124480.681 7 -14122948.88023        25.000           3.063
  22911434.037    -7919678.883 6  -6171167.01721        17.000           0.781
  23128781.006    -6154030.375 5  -4639674.52621         9.750           0.375
  21069973.686     1926825.806 6   1501418.01722        17.750           1.875
  21962727.287   -12958927.354 6  -9903562.35621        16.500           0.969
 91  5 21 19 36 29.9980000  0  6G18G 2G11G16G19G 6
  23365027.272    14038432.170 5  10939003.19221        10.000           0.313
  20687425.537   -18152208.281 7 -14144554.77523        25.000           3.031
  22913431.982    -7909181.288 6  -6162987.08021        17.500           0.844
  23130925.654    -6142754.242 5  -4630887.99921         9.500           0.375
  21072895.014     1942173.739 6   1513377.42022        18.000           1.906
  21956019.506   -12994183.006 6  -9931034.25521        16.250           1.000
 91  5 21 19 36 44.9980000  0  6G18G 2G11G16G19G 6
  23374003.178    14085602.142 5  10975758.86221         9.500           0.281
  20682164.670   -18179856.043 7 -14166098.46123        25.250           3.031
  22915457.561    -7898542.254 6  -6154696.93221        17.250           0.781
  23133094.068    -6131369.746 5  -4622017.03021        10.000           0.375
  21075824.186     1957573.196 6   1525376.97122        17.750           1.813
  21949314.779   -13029421.291 6  -9958492.62721        16.250           1.000
 91  5 21 19 36 59.9980000  0  6G18G 2G11G16G19G 6
  23382987.795    14132807.228 5  11012541.88921        10.000           0.313
  20676919.162   -18207420.119 7 -14187576.93623        25.250           3.125
  22917509.045    -7887758.129 6  -6146293.72821        17.000           0.875
  23135278.428    -6119873.329 5  -4613058.83821         9.500           0.469
  21078763.506     1973027.982 6   1537419.62922        17.750           1.875
  21942613.279   -13064638.282 6  -9985934.39921        16.250           1.031
 91  5 21 19 37 14.9980000  0  6G18G 2G11G16G19G 6
  23391977.014    14180042.096 5  11049348.12021         9.500           0.438
  20671688.272   -18234905.046 7 -14208993.74223        25.500           3.125
  22919586.912    -7876833.628 6  -6137781.13821        17.000           0.813
  23137489.037    -6108269.919 5  -4604017.27521         9.750           0.344
  21081716.365     1988533.652 6   1549501.94222        17.500           1.844
  21935914.818   -13099838.504 6 -10013363.10921        16.250           1.031
 91  5 21 19 37 29.9980000  0  6G18G 2G11G16G19G 6
  23400973.389    14227312.296 5  11086181.87521         9.500           0.375
  20666474.842   -18262305.226 7 -14230344.50323        25.750           2.938
  22921694.342    -7865763.249 6  -6129154.87721        17.250           0.750
  23139717.178    -6096553.911 5  -4594887.99521         9.500           0.375
  21084678.584     2004095.834 6   1561628.29222        17.250           1.813
  21929218.607   -13135016.310 6 -10040774.34621        16.250           1.094
 91  5 21 19 37 44.9980000  0  6G18G 2G11G16G19G 6
  23409970.529    14274615.396 5  11123041.27821         9.000           0.375
  20661276.553   -18289622.866 7 -14251630.95323        26.000           3.063
  22923827.217    -7854549.388 6  -6120416.81621        17.000           0.781
  23141973.701    -6084727.927 5  -4585673.00021         9.750           0.344
  21087650.482     2019712.283 6   1573796.92522        17.500           1.844
  21922530.943   -13170173.924 6 -10068169.84821        16.500           1.156
 91  5 21 19 37 59.9980000  0  6G18G 2G11G16G19G 6
  23418980.701    14321951.594 5  11159926.46321         9.500           0.250
  20656094.397   -18316857.489 7 -14272852.70723        26.000           3.000
  22925989.326    -7843191.754 6  -6111566.72321        17.000           0.844
  23144239.584    -6072791.995 5  -4576372.36521         9.500           0.469
  21090631.631     2035383.356 6   1586008.12522        17.500           1.906
  21915841.990   -13205310.835 6 -10095549.21421        16.750           0.969
 91  5 21 19 38 14.9980000  0  6G18G 2G11G16G19G 6
  23427993.139    14369320.726 5  11196837.32021         9.250           0.406
  20650927.264   -18344009.281 7 -14294009.92523        26.000           3.094
  22928179.881    -7831690.541 6  -6102604.75821        17.000           0.844
  23146535.225    -6060746.311 5  -4566986.15221         9.500           0.344
  21093623.850     2051109.200 6   1598262.00122        17.500           1.813
  21909163.303   -13240427.039 6 -10122912.45221        16.750           1.063
 91  5 21 19 38 29.9980000  0  6G18G 2G11G16G19G 6
  23437015.764    14416720.687 5  11233772.18421         9.750           0.250
  20645775.303   -18371079.730 7 -14315103.75923        26.000           3.125
  22930395.022    -7820047.482 6  -6093532.25421        17.000           0.875
  23148844.053    -6048592.723 5  -4557515.90521         9.250           0.375
  21096628.951     2066888.247 6   1610557.34022        16.500           1.781
  21902483.756   -13275524.059 6 -10150260.74321        16.750           1.031
 91  5 21 19 38 44.9980000  0  6G18G 2G11G16G19G 6
  23446040.764    14464149.427 5  11270729.47921         9.500           0.375
  20640639.561   -18398070.866 7 -14336135.79423        26.000           3.125
  22932634.928    -7808264.617 6  -6084350.81721        16.750           0.875
  23151176.537    -6036333.228 5  -4547963.11921         9.000           0.313
  21099640.107     2082718.452 6   1622892.53122        17.500           1.844
  21895807.045   -13310603.793 6 -10177595.55921        16.750           1.094
 91  5 21 19 38 59.9980000  0  6G18G 2G11G16G19G 6
  23455072.365    14511608.992 5  11307710.79021         9.500           0.250
  20635519.225   -18424979.974 7 -14357103.91323        25.750           3.031
  22934905.818    -7796339.546 6  -6075058.57521        17.000           0.813
  23153535.764    -6023965.616 5  -4538326.07121         9.250           0.344
  21102663.068     2098602.375 6   1635269.58922        16.500           1.781
  21889135.232   -13345663.612 6 -10204914.86321        16.750           1.000
 91  5 21 19 39 14.9980000  0  6G18G 2G11G16G19G 6
  23464109.272    14559100.487 5  11344716.98921         9.500           0.344
  20630413.568   -18451806.033 7 -14378007.31623        25.750           3.219
  22937199.654    -7784271.452 6  -6065654.87421        16.750           0.875
  23155908.732    -6011488.952 5  -4528604.06321         9.250           0.375
  21105694.920     2114541.299 6   1647689.50122        17.250           1.781
  21882468.740   -13380702.454 6 -10232217.82221        16.750           1.031
 91  5 21 19 39 29.9980000  0  6G18G 2G11G16G19G 6
  23473154.350    14606621.719 5  11381746.36121         9.750           0.313
  20625323.897   -18478551.049 7 -14398847.57023        25.750           3.188
  22939524.467    -7772062.221 6  -6056141.21021        16.750           0.813
  23158302.006    -5998905.591 5  -4518798.91421         9.250           0.375
  21108739.318     2130533.245 6   1660150.73122        16.750           1.813
  21875802.959   -13415722.104 6 -10259505.82021        16.000           1.000
 91  5 21 19 39 44.9980000  0  6G18G 2G11G16G19G 6
  23482202.561    14654174.704 5  11418800.45221         9.750           0.344
  20620250.850   -18505212.594 7 -14419622.78023        25.750           3.094
  22941873.061    -7759709.731 6  -6046515.91321        17.000           0.875
  23160716.725    -5986213.387 5  -4508908.94421         9.000           0.469
  21111791.248     2146580.564 6   1672655.10722        17.500           1.688
  21869141.404   -13450720.212 6 -10286777.04021        16.250           1.125
 91  5 21 19 39 59.9980000  0  6G18G 2G11G16G19G 6
  23491256.498    14701758.937 5  11455878.89121        10.250           0.313
  20615192.623   -18531790.825 7 -14440333.07323        25.750           2.969
  22944251.678    -7747214.341 6  -6036779.25621        16.500           0.875
  23163149.037    -5973412.672 5  -4498934.43721         8.750           0.375
  21114857.209     2162683.098 6   1685202.51022        17.000           1.688
  21862489.740   -13485696.919 6 -10314031.58421        16.500           1.094
 91  5 21 19 40 14.9980000  0  6G18G 2G11G16G19G 6
  23500317.100    14749371.208 5  11492979.21621         9.250           0.344
  20610151.373   -18558288.813 7 -14460980.83423        26.000           3.188
  22946658.600    -7734579.300 6  -6026933.79121        16.500           0.875
  23165606.100    -5960506.971 5  -4488878.08421         9.000           0.406
  21117928.795     2178837.807 6   1697790.56822        17.500           1.688
  21855833.123   -13520655.280 6 -10341271.82521        16.500           1.063
 91  5 21 19 40 29.9980000  0  6G18G 2G11G16G19G 6
  23509382.397    14797009.516 5  11530099.80621         9.250           0.375
  20605123.373   -18584708.556 7 -14481567.62523        26.250           3.125
  22949087.982    -7721806.578 6  -6016981.04721        16.500           0.844
  23168086.889    -5947498.276 5  -4478741.51721         9.000           0.438
  21121013.514     2195042.940 6   1710417.91622        17.000           1.781
  21849187.389   -13555596.998 6 -10368499.10321        16.750           1.156
 91  5 21 19 40 44.9980000  0  6G18G 2G11G16G19G 6
  23518451.959    14844681.795 5  11567246.85821         9.000           0.375
  20600113.084   -18611041.645 7 -14502086.89623        26.250           3.156
  22951545.959    -7708888.089 6  -6006914.70721        16.750           0.906
  23170582.193    -5934378.821 5  -4468518.63821         9.000           0.281
  21124108.990     2211306.871 6   1723091.08222        17.250           1.813
  21842542.381   -13590513.843 6 -10395706.99721        17.250           1.031
 91  5 21 19 40 59.9980000  0  6G18G 2G11G16G19G 6
  23527530.178    14892379.054 5  11604413.38521         9.250           0.313
  20595116.053   -18637296.638 7 -14522545.31223        26.250           3.125
  22954030.490    -7695832.709 6  -5996741.70221        16.750           0.844
  23173093.326    -5921157.555 5  -4458216.41521         8.750           0.500
  21127213.717     2227620.945 6   1735803.31722        17.000           1.688
  21835900.131   -13625414.394 6 -10422902.20521        17.250           1.188
 91  5 21 19 41 14.9980000  0  6G18G 2G11G16G19G 6
  23536613.272    14940100.409 5  11641598.67521         9.500           0.188
  20590135.162   -18663474.302 7 -14542943.47323        26.500           3.063
  22956540.592    -7682641.346 6  -5986462.73421        16.750           0.969
  23175636.389    -5907835.231 5  -4447835.46621         9.250           0.406
  21130326.631     2243984.363 6   1748554.00722        17.000           1.719
  21829261.850   -13660299.266 6 -10450085.18421        17.250           1.094
 91  5 21 19 41 29.9980000  0  6G18G 2G11G16G19G 6
  23545697.607    14987845.023 5  11678802.09621         9.250           0.438
  20585167.631   -18689575.031 7 -14563281.67923        26.250           3.125
  22959077.404    -7669314.456 6                        16.750
  23178185.256    -5894412.327 5                         9.250
  21133450.154     2260396.993 6   1761343.04022        17.250           1.813
  21822626.412   -13695168.853 6 -10477256.25921        17.250           1.094
 91  5 21 19 41 44.9980000  0  6G18G 2G11G16G19G 6
  23554791.498    15035615.014 5  11716025.27621        10.000           0.250
  20580216.053   -18715596.486 7 -14583558.12023        26.000           3.031
  22961639.920    -7655849.752 6                        17.000
  23180759.139    -5880887.047 5                         9.250
  21136582.607     2276861.206 6   1774172.26222        16.500           1.719
  21815995.006   -13730020.536 6 -10504413.38421        17.250           1.156
 91  5 21 19 41 59.9980000  0  6G18G 2G11G16G19G 6
  23563884.412    15083411.197 5  11753268.88821         9.000           0.375
  20575278.897   -18741537.951 7 -14603772.23023        26.000           3.031
  22964228.045    -7642246.748 6                        17.000
  23183353.061    -5867258.772 5                         9.000
  21139726.975     2293377.643 6   1787042.17822        17.000           1.688
  21809367.803   -13764853.712 6 -10531556.09121        17.250           1.063
 91  5 21 19 42 14.9980000  0  6G18G 2G11G16G19G 6
  23572983.998    15131227.549 5  11790528.19121         9.250           0.313
  20570357.842   -18767404.755 7 -14623928.16223        26.000           3.031
  22966843.209    -7628511.122 6                        16.500
  23185963.936    -5853533.405 5                         9.250
  21142874.943     2309940.996 6   1799948.65722        16.500           1.688
  21802740.389   -13799673.685 6 -10558688.49521        16.750           1.188
 91  5 21 19 42 29.9980000  0  6G18G 2G11G16G19G 6
  23582086.178    15179068.056 5  11827806.35521         8.750           0.281
  20565449.764   -18793192.836 7 -14644022.74823        26.000           3.063
  22969482.326    -7614638.943 6                        16.500
  23188593.467    -5839707.111 5                         9.250
  21146038.537     2326555.365 6   1812894.89022        16.750           1.688
  21796118.318   -13834476.302 6 -10585807.38821        17.250           1.031
 91  5 21 19 42 44.9980000  0  6G18G 2G11G16G19G 6
  23591192.272    15226935.175 5  11865105.21021         8.500           0.313
  20560558.365   -18818899.685 7 -14664054.03823        25.750           3.031
  22972147.982    -7600627.555 6  -5922556.01721        16.750           0.875
  23191248.193    -5825777.132 5  -4383894.48521         9.250           0.313
  21149211.373     2343223.428 6   1825882.95422        17.000           1.719
  21789497.975   -13869258.876 6 -10612910.66021        17.500           0.969
 91  5 21 19 42 59.9980000  0  6G18G 2G11G16G19G 6
  23600309.287    15274826.855 5  11902423.24221         8.250           0.344
  20555680.732   -18844526.887 7 -14684023.26423        25.500           2.969
  22974839.209    -7586478.858 6  -5911531.08021        16.750           0.938
  23193916.178    -5811745.575 5  -4372960.89521         9.000           0.375
  21152393.045     2359943.481 6   1838911.52922        17.000           1.656
  21782882.350   -13904022.901 6 -10639999.47821        17.750           1.156
 91  5 21 19 43 14.9980000  0  6G18G 2G11G16G19G 6
  23609427.264    15322742.667 5  11939760.04721         8.500           0.313
  20550819.959   -18870074.669 7 -14703930.60923        26.000           3.000
  22977559.397    -7572193.238 6  -5900399.45221        16.500           0.781
  23196603.490    -5797612.826 5  -4361948.42921         9.000           0.438
  21155585.568     2376715.282 6   1851980.42822        16.750           1.594
  21776270.076   -13938768.775 6 -10667074.15021        17.500           1.125
 91  5 21 19 43 29.9980000  0  6G18G 2G11G16G19G 6
  23618549.826    15370678.714 5  11977112.63821         8.500           0.281
  20545972.303   -18895546.550 7 -14723778.80123        26.000           3.031
  22980302.076    -7557774.434 6  -5889164.04321        16.750           0.844
  23199319.365    -5783382.939 5  -4350860.28021         9.500           0.406
  21158788.209     2393535.442 6   1865087.00722        15.750           1.750
  21769661.084   -13973499.828 6 -10694137.28421        17.500           1.156
 91  5 21 19 43 44.9980000  0  6G18G 2G11G16G19G 6
  23627674.998    15418639.743 5  12014484.69821         8.500           0.250
  20541139.936   -18920937.515 7 -14743563.94823        26.000           2.938
  22983072.936    -7543217.794 6  -5877821.23321        16.500           0.750
  23202042.131    -5769051.349 5  -4339692.88221         9.250           0.375
  21161994.139     2410408.848 6   1878235.08322        16.500           1.656
  21763057.076   -14008211.021 6 -10721184.93721        18.000           1.156
 91  5 21 19 43 59.9980000  0  6G18G 2G11G16G19G 6
  23636806.865    15466622.730 5  12051873.85921         8.500           0.250
  20536323.857   -18946250.376 7 -14763288.22723        26.000           2.938
  22985866.279    -7528526.293 6  -5866373.33721        16.500           0.875
  23204781.709    -5754621.253 5  -4328448.72421         9.000           0.344
  21165217.014     2427332.697 6   1891422.46122        17.000           1.656
  21756454.482   -14042905.189 6 -10748219.32121        17.750           1.094
 91  5 21 19 44 14.9980000  0  6G18G 2G11G16G19G 6
  23645944.717    15514628.320 5  12089280.62721         8.500           0.250
  20531521.959   -18971484.209 7 -14782950.93123        26.000           3.031
  22988692.068    -7513698.954 6  -5854819.59221        16.500           0.906
  23207551.936    -5740091.613 5  -4317127.01221         9.250           0.375
  21168446.592     2444308.221 6   1904650.10722        17.000           1.719
  21749856.639   -14077581.244 6 -10775239.60121        17.500           1.125
 91  5 21 19 44 29.9980000  0  6G18G 2G11G16G19G 6
  23655082.498    15562660.083 5  12126707.81421         8.500           0.313
  20526735.998   -18996635.325 7 -14802549.18323        26.000           3.000
  22991537.365    -7498732.347 6  -5843157.32321        16.250           0.844
  23210333.943    -5725458.844 5  -4305724.93121         9.250           0.438
  21171687.912     2461339.132 6   1917920.90722        16.750           1.813
  21743263.381   -14112235.395 6 -10802242.80621        17.750           1.188
 91  5 21 19 44 44.9980000  0  6G18G 2G11G16G19G 6
  23664226.068    15610715.275 5  12164153.24721         8.250           0.250
  20521964.256   -19021706.385 7 -14822085.05523        25.500           3.000
  22994412.107    -7483629.254 6  -5831388.70921        16.500           0.719
  23213140.162    -5710726.170 5  -4294244.98921         9.500           0.406
  21174940.287     2478422.601 6   1931232.66622        17.000           1.750
  21736670.701   -14146870.220 6 -10829230.95321        17.750           1.156
 91  5 21 19 44 59.9980000  0  6G18G 2G11G16G19G 6
  23673379.498    15658795.128 5  12201617.87421         9.250           0.219
  20517209.717   -19046695.761 7 -14841557.27523        25.750           2.906
  22997311.443    -7468388.185 6  -5819512.57921        16.250           0.813
  23215968.397    -5695892.130 5  -4282686.08321         9.500           0.406
  21178199.318     2495560.487 6   1944586.82522        17.000           1.719
  21730083.162   -14181484.115 6 -10856202.78821        17.750           1.156
 91  5 21 19 45 14.9980000  0  6G18G 2G11G16G19G 6
  23682531.131    15706897.531 5  12239100.12421         8.500           0.156
  20512469.514   -19071605.198 7 -14860967.19723        25.500           2.906
  23000240.701    -7453011.214 6  -5807530.54621        17.000           0.719
  23218801.764    -5680958.606 5  -4271049.64021         8.750           0.406
  21181471.084     2512751.000 6   1957981.99722        17.000           1.750
  21723501.686   -14216078.723 6 -10883159.59721        17.750           1.188
 91  5 21 19 45 29.9980000  0  6G18G 2G11G16G19G 6
  23691690.959    15755023.098 5  12276600.37821         9.250           0.219
  20507743.592   -19096433.734 7 -14880314.08423        25.250           2.906
  23003192.193    -7437497.531 6  -5795441.98721        16.750           0.813
  23221667.850    -5665924.914 5  -4259335.15221         9.500           0.469
  21184751.365     2529995.074 6   1971418.90422        17.250           1.688
  21716919.084   -14250652.950 6 -10910100.52521        17.500           1.156
 91  5 21 19 45 44.9980000  0  6G18G 2G11G16G19G 6
  23700852.873    15803171.073 5  12314118.09821         8.500           0.219
  20503036.100   -19121181.953 7 -14899598.39323        25.250           2.906
  23006169.014    -7421847.923 6  -5783247.51021        16.250           0.750
  23224550.522    -5650792.278 5  -4247543.56921         9.750           0.438
  21188044.936     2547292.212 6   1984897.15422        17.000           1.781
  21710345.068   -14285207.421 6 -10937026.05821        17.750           1.219
 91  5 21 19 45 59.9980000  0  6G18G 2G11G16G19G 6
  23710013.732    15851339.435 5  12351651.72221         8.250           0.281
  20498340.936   -19145851.841 7 -14918821.66323        25.750           2.875
  23009171.795    -7406064.375 6  -5770948.66721        15.750           0.906
  23227445.982    -5635563.077 5  -4235676.73421         9.500           0.469
  21191346.537     2564640.374 6   1998415.16522        17.250           1.781
  21703774.193   -14319743.944 6 -10963937.60321        18.000           1.156
 91  5 21 19 46 14.9980000  0  6G18G 2G11G16G19G 6
  23719186.850    15899528.523 5  12389201.48921         8.750           0.281
  20493661.389   -19170442.757 7 -14937983.39023        25.500           2.844
  23012202.584    -7390146.397 6  -5758545.08221        16.250           0.844
  23230358.897    -5620236.393 5  -4223733.93321         9.250           0.438
  21194656.217     2582040.450 6   2011973.63522        17.250           1.781
  21697205.951   -14354261.820 6 -10990834.62021        18.000           1.188
 91  5 21 19 46 29.9980000  0  6G18G 2G11G16G19G 6
  23728364.881    15947740.227 5  12426768.84921         9.500           0.188
  20488997.467   -19194952.383 7 -14957081.78323        25.750           2.938
  23015257.842    -7374091.990 6  -5746035.17521        16.250           0.813
  23233298.670    -5604810.249 5  -4211713.65121         9.750           0.500
  21197976.725     2599494.641 6   2025574.26122        17.250           1.719
  21690639.717   -14388758.626 6 -11017715.22021        17.500           1.250
 91  5 21 19 46 44.9980000  0  6G18G 2G11G16G19G 6
  23737540.607    15995972.072 5  12464351.96221         8.750           0.281
  20484348.287   -19219382.970 7 -14976118.58323        25.750           2.844
  23018337.748    -7357903.458 6  -5733420.76821        16.000           0.844
  23236252.272    -5589287.216 5  -4199617.85621         9.750           0.438
  21201309.076     2617000.818 6   2039215.40622        17.000           1.781
  21684079.459   -14423236.478 6 -11044581.05121        17.750           1.188
 91  5 21 19 46 59.9980000  0  6G18G 2G11G16G19G 6
  23746722.686    16044224.949 5  12501951.40821         8.250           0.250
  20479713.381   -19243733.453 7 -14995092.95723        25.500           2.906
  23021443.490    -7341580.212 6  -5720701.37821        16.000           0.813
  23239223.443    -5573666.860 5  -4187446.22121         9.500           0.500
  21204652.998     2634560.246 6   2052898.04022        17.500           1.781
  21677523.600   -14457694.314 6 -11071431.28421        18.000           1.250
 91  5 21 19 47 14.9980000  0  6G18G 2G11G16G19G 6
  23755910.928    16092497.347 5  12539566.08721         8.750           0.281
  20475095.459   -19268004.871 7 -15014005.72823        25.750           2.906
  23024573.561    -7325123.407 6  -5707877.91521        16.000           0.813
  23242209.287    -5557950.546 5  -4175199.83021         9.750           0.500
  21208002.311     2652171.611 6   2066621.15022        17.250           1.781
  21670969.623   -14492133.213 6 -11098266.76021        18.000           1.313
 91  5 21 19 47 29.9980000  0  6G18G 2G11G16G19G 6
  23765103.529    16140791.579 5  12577197.77621         8.500           0.250
  20470492.092   -19292194.832 7 -15032855.02823        26.000           2.938
  23027734.123    -7308530.754 6  -5694948.60221        16.000           0.844
  23245227.881    -5542135.872 5  -4162876.77921         9.500           0.344
  21211363.162     2669837.312 6   2080386.59322        17.250           1.844
  21664418.451   -14526550.751 6 -11125085.60221        17.750           1.344
 91  5 21 19 47 44.9980000  0  6G18G 2G11G16G19G 6
  23774293.967    16189109.622 5  12614848.01221         7.750           0.188
  20465905.084   -19316301.260 7 -15051639.23123        26.000           2.844
  23030916.303    -7291800.464 6  -5681912.05221        16.000           0.813
  23248255.514    -5526220.943 5  -4150475.62421         9.500           0.375
  21214737.092     2687559.543 6   2094196.09222        17.250           1.750
  21657875.701   -14560944.643 6 -11151886.00421        18.000           1.313
 91  5 21 19 47 59.9980000  0  6G18G 2G11G16G19G 6
  23783493.389    16237446.798 5  12652513.17421         8.000           0.156
  20461333.240   -19340328.428 7 -15070361.68523        25.750           2.813
  23034124.850    -7274936.857 6  -5668771.60921        16.250           0.750
  23251299.045    -5510210.439 5  -4137999.98321         9.500           0.375
  21218119.443     2705334.202 6   2108046.44322        17.500           1.781
  21651333.475   -14595319.000 6 -11178671.19021        18.000           1.375
 91  5 21 19 48 14.9980000  0  6G18G 2G11G16G19G 6
  23792689.498    16285802.114 4  12690192.45021         7.000           0.375
  20456776.490   -19364277.219 7 -15089023.06123        26.250           2.969
  23037359.529    -7257940.914 6  -5655528.03621        15.500           0.781
  23254360.443    -5494105.592 5  -4125450.83421         9.500           0.438
  21221510.943     2723160.438 6   2121936.98222        17.250           1.813
  21644796.857   -14629674.638 6 -11205441.78921        18.000           1.250
 91  5 21 19 48 29.9980000  0  6G18G 2G11G16G19G 6
  23801897.459    16334175.275 5  12727885.63021         7.750           0.344
  20452232.311   -19388147.654 7 -15107623.37523        25.750           2.906
  23040617.725    -7240812.943 6  -5642181.60721        15.750           0.844
  23257445.982    -5477906.607 5  -4112828.32121         9.500           0.344
  21224913.248     2741038.265 6   2135867.72222        18.000           1.781
  21638261.967   -14664011.523 6 -11232197.78521        18.000           1.344
 91  5 21 19 48 44.9980000  0  6G18G 2G11G16G19G 6
  23811104.959    16382567.773 4  12765593.88421         7.000           0.313
  20447705.295   -19411937.961 7 -15126161.25923        26.000           2.938
  23043902.686    -7223551.353 6  -5628731.04221        16.000           0.750
  23260547.647    -5461612.193 5  -4100131.45821         9.750           0.438
  21228326.725     2758969.454 6   2149840.03922        17.250           1.813
  21631731.936   -14698327.852 6 -11258937.74721        18.000           1.313
 91  5 21 19 48 59.9980000  0  6G18G 2G11G16G19G 6
  23820322.170    16430981.351 4  12803318.56521         7.250           0.375
  20443194.912   -19435646.180 7 -15144635.17723        26.000           2.906
  23047215.912    -7206154.337 6  -5615174.94921        16.000           0.750
  23263664.264    -5445220.373 5  -4087358.69421         9.500           0.438
  21231747.209     2776956.219 6   2163855.66822        17.250           1.719
  21625206.045   -14732621.401 6 -11285659.96621        18.000           1.281
 91  5 21 19 49 14.9980000  0  6G18G 2G11G16G19G 6
  23829538.475    16479410.695 4  12841055.53421         7.250           0.313
  20438697.279   -19459277.265 7 -15163048.98923        26.000           3.031
  23050547.975    -7188627.133 6  -5601517.42221        15.750           0.844
  23266801.272    -5428736.243 5  -4074513.98921         9.250           0.438
  21235181.045     2794993.506 6   2177910.66122        17.250           1.750
  21618682.584   -14766897.149 6 -11312368.31221        18.000           1.219
 91  5 21 19 49 29.9980000  0  6G18G 2G11G16G19G 6
  23838757.889    16527859.308 4  12878807.49421         6.750           0.219
  20434216.350   -19482827.589 7 -15181399.87623        26.250           2.938
  23053910.475    -7170966.484 6  -5587755.90521        16.250           0.719
  23269962.178    -5412156.730 5  -4061594.96121         9.500           0.438
  21238623.076     2813084.680 6   2192007.64922        17.250           1.813
  21612163.795   -14801151.708 6 -11339060.14621        17.750           1.313
 91  5 21 19 49 44.9980000  0  6G18G 2G11G16G19G 6
  23847983.295    16576324.653 4  12916572.50521         7.250           0.313
  20429749.404   -19506299.495 7 -15199689.64923        26.250           2.906
  23057295.600    -7153174.760 6  -5573892.25421        16.000           0.875
  23273130.022    -5395484.423 5  -4048603.63921         9.000           0.375
  21242076.123     2831227.758 6   2206145.07822        17.000           1.719
  21605648.904   -14835386.856 6 -11365736.85821        17.750           1.344
 91  5 21 19 49 59.9980000  0  6G18G 2G11G16G19G 6
  23857206.998    16624812.860 4  12954355.32721         6.750           0.375
  20425299.936   -19529686.255 7 -15217913.08023        26.500           2.969
  23060708.115    -7135245.421 6  -5559921.36821        16.000           0.781
  23276323.498    -5378713.122 5  -4035535.18421         9.000           0.375
  21245539.928     2849429.457 6   2220328.18622        16.500           1.750
  21599139.561   -14869596.195 6 -11392393.44821        17.750           1.313
 91  5 21 19 50 14.9980000  0  6G18G 2G11G16G19G 6
  23866437.842    16673317.019 5  12992150.56721         8.000           0.188
  20420864.522   -19552994.665 7 -15236075.45823        26.250           2.813
  23064143.037    -7117185.463 6  -5545848.71221        15.500           0.781
  23279531.123    -5361849.726 5  -4022394.94421         9.000           0.375
  21249013.951     2867682.962 6   2234551.66122        16.750           1.781
  21592631.475   -14903786.271 6 -11419035.04121        17.500           1.250
 91  5 21 19 50 29.9980000  0  6G18G 2G11G16G19G 6
  23875668.186    16721837.919 5  13029958.89821         7.500           0.188
  20416442.451   -19576223.932 7 -15254176.16523        26.250           2.938
  23067605.522    -7098994.214 6                        15.750
  23282759.772    -5344893.417 5  -4009182.32221         8.750           0.375
  21252498.123     2885989.242 6                        17.250
  21586129.873   -14937955.907 6 -11445660.70321        18.000           1.313
 91  5 21 19 50 44.9980000  0  6G18G 2G11G16G19G 6
  23884906.647    16770376.782 5  13067781.19521         8.000           0.375
  20412038.631   -19599372.305 7 -15272213.84523        26.250           2.906
  23071093.068    -7080670.131 6                        16.250
  23286005.818    -5327843.083 5  -3995896.43921         8.750           0.375
  21255991.522     2904349.997 6                        16.750
  21579631.803   -14972103.501 6 -11472269.18821        18.000           1.375
 91  5 21 19 50 59.9980000  0  6G18G 2G11G16G19G 6
  23894146.279    16818930.402 5  13105615.01721         8.500           0.219
  20407647.295   -19622442.806 7 -15290190.83523        26.500           2.969
  23074604.131    -7062216.464 6                        15.500
  23289262.623    -5310701.897 5  -3982539.74321         8.750           0.313
  21259498.545     2922762.168 6                        16.000
  21573139.490   -15006232.044 6 -11498862.83121        17.750           1.438
 91  5 21 19 51 14.9980000  0  6G18G 2G11G16G19G 6
  23903390.654    16867502.993 5  13143463.57321         8.000           0.281
  20403274.037   -19645431.351 7 -15308103.96423        26.500           2.906
  23078141.186    -7043629.295 6  -5488532.36321        15.500           0.750
  23292541.631    -5293466.047 5  -3969109.29721         8.500           0.313
  21263010.311     2941230.045 6   2291860.93622        16.750           1.688
  21566648.420   -15040337.171 6 -11525438.23021        18.250           1.406
 91  5 21 19 51 29.9980000  0  6G18G 2G11G16G19G 6
  23912637.389    16916095.233 5  13181327.47721         8.000           0.188
  20398914.037   -19668336.638 7 -15325952.22323        26.500           2.969
  23081706.154    -7024907.549 6  -5473944.03021        15.500           0.750
  23295842.865    -5276134.725 5  -3955604.45521         9.000           0.344
  21266535.240     2959754.949 6   2306295.89022        15.750           1.750
  21560163.303   -15074417.716 6 -11551994.47221        18.250           1.344
 91  5 21 19 51 44.9980000  0  5G 2G11G16G19G 6
  20394570.186   -19691160.601 7 -15343737.11023        26.250           2.906
  23085294.725    -7006053.616 6  -5459252.68921        15.500           0.750
  23299156.115    -5258710.067 5  -3942026.88521         8.500           0.375
  21270070.193     2978334.900 6   2320773.73222        16.250           1.594
  21553683.600   -15108475.511 6 -11578532.98921        18.500           1.375
 91  5 21 19 51 59.9980000  0  5G 2G11G16G19G 6
  20390244.779   -19713904.922 7 -15361459.93923        26.750           2.969
  23088905.100    -6987069.094 6  -5444459.58021        15.500           0.750
  23302489.982    -5241193.753 5  -3928377.89821         8.500           0.313
  21273618.240     2996968.321 6   2335293.24922        15.750           1.719
  21547205.678   -15142511.885 6 -11605054.80521        18.500           1.438
 91  5 21 19 52 14.9980000  0  5G 2G11G16G19G 6
  20385931.490   -19736567.097 7 -15379118.75823        26.750           2.938
  23092543.201    -6967951.793 6  -5429563.01421        15.500           0.750
  23305842.912    -5223583.911 5  -3914656.03721         8.500           0.313
  21277172.818     3015657.663 6   2349856.33822        16.250           1.688
  21540731.936   -15176524.476 6 -11631558.09821        18.750           1.438
 91  5 21 19 52 29.9980000  0  5G 2G11G16G19G 6
  20381633.404   -19759150.313 7 -15396716.05223        27.000           2.969
  23096206.264    -6948704.898 6  -5414565.46921        15.500           0.781
  23309211.107    -5205884.029 5  -3900864.00521         8.500           0.344
  21280741.967     3034399.876 6   2364460.62022        15.500           1.656
  21534263.857   -15210516.326 6 -11658045.22921        18.750           1.406
 91  5 21 19 52 44.9980000  0  5G 2G11G16G19G 6
  20377352.623   -19781651.925 7 -15414249.75923        27.000           3.094
  23099894.186    -6929326.188 6  -5399465.21221        15.750           0.906
  23312596.740    -5188091.794 5  -3887000.03921         8.250           0.469
  21284316.482     3053197.516 6   2379108.09922        16.000           1.625
  21527798.647   -15244484.697 6 -11684514.05821        18.750           1.344
 91  5 21 19 52 59.9980000  0  5G 2G11G16G19G 6
  20373085.061   -19804073.043 7 -15431720.74023        27.000           3.000
  23103604.615    -6909816.796 6  -5384263.12421        15.750           0.719
  23315999.568    -5170208.393 5  -3873065.00121         8.000           0.406
  21287906.045     3072049.781 6   2393798.14022        15.750           1.594
  21521340.053   -15278430.620 6 -11710965.39321        18.750           1.313
 91  5 21 19 53 14.9980000  0  5G 2G11G16G19G 6
  20368834.740   -19826410.207 7 -15449126.31123        26.750           3.063
  23107344.865    -6890173.588 6  -5368956.76121        15.500           0.781
  23319419.615    -5152230.592 5  -3859056.42321         7.750           0.406
  21291501.068     3090960.046 6   2408533.38022        16.000           1.594
  21514885.725   -15312350.296 6 -11737396.28821        18.750           1.313
 91  5 21 19 53 29.9980000  0  5G 2G11G16G19G 6
  20364599.053   -19848667.745 7 -15466469.83023        27.250           3.000
  23111106.240    -6870401.059 6  -5353549.63821        15.500           0.719
  23322857.975    -5134162.900 5  -3844977.79921         8.000           0.375
  21295112.482     3109923.905 6   2423310.37622        16.250           1.656
  21508436.451   -15346248.051 6 -11763810.09521        19.000           1.344
 91  5 21 19 53 44.9980000  0  5G 2G11G16G19G 6
  20360379.170   -19870847.643 7 -15483752.85123        27.000           3.094
  23114894.092    -6850501.469 6  -5338043.50321        16.000           0.719
  23326314.029    -5116007.865 5  -3830831.10121         8.000           0.344
  21298729.053     3128939.595 6   2438127.76622        16.000           1.500
  21501986.748   -15380125.982 6 -11790208.45621        18.750           1.313
 91  5 21 19 53 59.9980000  0  5G 2G11G16G19G 6
  20356172.709   -19892948.363 7 -15500974.18123        27.000           3.094
  23118704.514    -6830473.591 6  -5322437.40221        16.000           0.781
  23329791.897    -5097764.071 5  -3816615.26021         8.250           0.406
  21302357.514     3148008.723 6   2452986.78922        16.250           1.656
  21495544.951   -15413982.361 6 -11816590.02021        18.750           1.250
 91  5 21 19 54 14.9980000  0  5G 2G11G16G19G 6
  20351982.873   -19914968.680 7 -15518132.85423        27.500           2.969
  23122540.154    -6810316.358 6  -5306730.50621        15.750           0.781
  23333272.881    -5079430.644 5  -3802329.55721         7.750           0.219
  21305998.951     3167132.503 6   2467888.39822        15.750           1.594
  21489107.850   -15447815.831 6 -11842953.74121        19.250           1.219
 91  5 21 19 54 29.9980000  0  5G 2G11G16G19G 6
  20347808.529   -19936907.334 7 -15535227.89423        27.500           3.063
  23126401.514    -6790028.692 6  -5290921.98021        15.250           0.719
  23336774.115    -5061007.025 5  -3787973.57921         7.750           0.375
  21309645.639     3186312.156 6   2482833.54622        15.750           1.594
  21482673.873   -15481625.126 6 -11869298.61721        19.500           1.281
 91  5 21 19 54 44.9980000  0  5G 2G11G16G19G 6
  20343647.389   -19958767.107 7 -15552261.46523        27.500           3.156
  23130286.342    -6769613.489 6  -5275014.06821        15.000           0.813
  23340304.068    -5042496.064 5  -3773549.55121         8.250           0.219
  21313307.334     3205545.067 6   2497820.19522        16.000           1.500
  21476244.256   -15515412.804 6 -11895626.65121        19.750           1.438
 91  5 21 19 54 59.9980000  0  5G 2G11G16G19G 6
  20339501.857   -19980551.273 7 -15569236.12123        27.250           3.094
  23134193.264    -6749074.154 6  -5259009.44121        15.500           0.656
  23343846.857    -5023900.948 5  -3759059.98321         8.250           0.281
  21316977.272     3224828.193 6   2512845.98322        15.750           1.625
  21469819.022   -15549181.918 6 -11921940.21121        19.250           1.313
 91  5 21 19 55 14.9980000  0  5G 2G11G16G19G 6
  20335372.107   -20002255.249 7 -15586148.29823        27.250           3.094
  23138125.522    -6728406.572 6  -5242904.85921        15.500           0.688
  23347399.857    -5005218.026 5  -3744501.95721         7.750           0.313
  21320656.639     3244165.829 6   2527914.24122        15.750           1.563
  21463397.584   -15582927.832 6 -11948235.70221        19.500           1.281
 91  5 21 19 55 29.9980000  0  5G 2G11G16G19G 6
  20331256.459   -20023881.284 7 -15602999.73623        27.000           3.031
  23142083.725    -6707613.049 6  -5226702.15021        15.250           0.625
  23350969.912    -4986449.371 5  -3729877.15521         8.500           0.313
  21324347.756     3263555.817 6   2543023.28122        16.000           1.563
  21456978.857   -15616652.821 6 -11974514.88421        19.000           1.281
 91  5 21 19 55 44.9980000  0  5G 2G11G16G19G 6
  20327156.068   -20045428.276 7 -15619789.58523        27.000           3.063
  23146064.147    -6686692.723 6  -5210400.63521        15.250           0.656
  23354555.303    -4967593.954 5  -3715184.73221         7.750           0.250
  21328046.162     3282999.406 6   2558174.09822        15.750           1.531
  21450566.928   -15650355.617 6 -12000776.77621        19.000           1.344
 91  5 21 19 55 59.9980000  0  5G 2G11G16G19G 6
  20323070.920   -20066896.855 7 -15636518.33423        27.250           3.188
  23150069.936    -6665646.430 6  -5194000.96721        15.500           0.656
  23358162.326    -4948653.046 5  -3700425.71121         8.250           0.250
  21331760.287     3302495.974 6   2573366.18922        15.250           1.625
  21444157.232   -15684036.614 6 -12027021.68621        19.000           1.469
 91  5 21 19 56 14.9980000  0  5G 2G11G16G19G 6
  20318999.436   -20088288.826 7 -15653187.38823        27.250           3.063
  23154098.193    -6644476.189 6  -5177504.72021        15.250           0.750
  23361781.936    -4929628.728 5  -3685601.63221         8.250           0.188
  21335476.881     3322043.808 6   2588598.23221        15.750           1.438
  21437751.834   -15717697.745 6 -12053251.10821        19.000           1.406
 91  5 21 19 56 29.9980000  0  5G 2G11G16G19G 6
  20314945.443   -20109602.013 7 -15669795.05623        27.500           3.094
  23158149.998    -6623180.041 6  -5160910.36021        15.250           0.719
  23365424.350    -4910519.039 5  -3670711.06121         8.500           0.281
  21339205.967     3341644.986 6   2603871.83821        16.500           1.438
  21431349.092   -15751336.597 6 -12079463.17821        19.000           1.344
 91  5 21 19 56 44.9980000  0  5G 2G11G16G19G 6
  20310902.959   -20130837.897 7 -15686342.48123        27.250           3.094
  23162228.139    -6601759.662 6  -5144219.19621        15.250           0.656
  23369068.779    -4891325.821 5  -3655755.38921         8.250           0.281
  21342945.623     3361298.187 6   2619185.97822        16.000           1.500
  21424952.443   -15784954.687 6 -12105659.07121        19.000           1.313
 91  5 21 19 56 59.9980000  0  5G 2G11G16G19G 6
  20306876.561   -20151998.427 7 -15702831.19023        27.000           3.156
  23166329.357    -6580217.247 6  -5127432.94621        15.500           0.656
  23372741.272    -4872051.032 5  -3640736.15021         9.000           0.281
  21346693.959     3381001.626 6   2634539.27522        16.000           1.500
  21418559.811   -15818553.454 6 -12131839.90421        19.250           1.344
 91  5 21 19 57 14.9980000  0  5G 2G11G16G19G 6
  20302865.092   -20173081.873 7 -15719259.83123        27.000           3.094
  23170450.186    -6558551.223 6  -5110550.37521        15.500           0.781
  23376423.084    -4852693.496 5  -3625652.43521         8.750           0.281
  21350455.857     3400757.105 6   2649933.12122        16.250           1.563
  21412169.904   -15852131.183 6 -12158004.34121        19.250           1.406
 91  5 21 19 57 29.9980000  0  5G 2G11G16G19G 6
  20298867.662   -20194088.956 7 -15735628.97323        27.000           3.031
  23174594.779    -6536762.656 6  -5093572.31021        15.000           0.719
  23380123.842    -4833254.403 5  -3610505.16221         9.000           0.188
  21354222.975     3420563.935 6   2665366.97722        16.000           1.531
  21405784.693   -15885688.579 6 -12184152.93121        19.250           1.375
 91  5 21 19 57 44.9980000  0  5G 2G11G16G19G 6
  20294884.006   -20215015.692 7 -15751935.50623        26.750           3.094
  23178767.920    -6514847.883 6  -5076495.91321        15.500           0.750
  23383839.381    -4813729.961 5  -3595291.39921         8.750           0.281
  21358003.482     3440425.843 6   2680843.75121        16.000           1.406
  21399402.498   -15919221.780 6 -12210282.67221        19.500           1.438
 91  5 21 19 57 59.9980000  0  5G 2G11G16G19G 6
  20290918.693   -20235864.355 7 -15768181.20423        27.250           3.125
  23182958.920    -6492809.086 6  -5059322.87421        15.250           0.656
  23387570.951    -4794122.662 5  -3580013.04421         9.000           0.281
  21361792.764     3460340.968 6   2696361.99221        16.000           1.406
  21393026.522   -15952732.673 6 -12236395.03121        19.500           1.375
 91  5 21 19 58 14.9980000  0  5G 2G11G16G19G 6
  20286964.350   -20256635.638 7 -15784366.60523        27.000           3.063
  23187177.107    -6470647.193 6  -5042053.91421        15.250           0.688
  23391316.670    -4774433.219 5  -3564670.68321         8.750           0.313
  21365594.248     3480308.687 6   2711921.22921        16.000           1.438
  21386652.264   -15986221.649 6 -12262490.30821        19.250           1.469
 91  5 21 19 58 29.9980000  0  5G 2G11G16G19G 6
  20283027.076   -20277330.868 7 -15800492.75023        27.250           3.063
  23191418.920    -6448363.816 6  -5024690.28421        15.000           0.750
  23395079.584    -4754663.480 5  -3549265.76321         9.000           0.313
  21369402.897     3500327.508 6   2727520.25621        16.250           1.438
  21380283.600   -16019690.102 6 -12288569.58821        19.000           1.438
 91  5 21 19 58 44.9980000  0  5G 2G11G16G19G 6
  20279103.920   -20297948.647 7 -15816558.53623        27.500           3.000
  23195681.287    -6425957.948 6  -5007231.21621        15.500           0.719
  23398854.482    -4734812.462 5  -3533797.50721         8.500           0.313
  21373221.186     3520398.872 6   2743160.24622        15.500           1.500
  21373919.334   -16053136.591 6 -12314631.76521        19.000           1.344
 91  5 21 19 58 59.9980000  0  5G 2G11G16G19G 6
  20275194.303   -20318487.346 7 -15832562.70623        27.250           3.063
  23199970.162    -6403428.189 6  -4989675.59721        15.500           0.594
  23402649.264    -4714878.793 5  -3518264.84021         8.750           0.281
  21377052.162     3540524.543 6   2758842.54922        16.000           1.500
  21367558.428   -16086559.457 6 -12340675.53122        19.250           1.531
 91  5 21 19 59 14.9980000  0  5G 2G11G16G19G 6
  20271300.881   -20338948.405 7 -15848506.37123        27.250           3.000
  23204279.639    -6380776.024 6  -4972024.60221        14.750           0.781
  23406461.889    -4694863.942 5  -3502668.92621         9.000           0.281
  21380891.334     3560703.099 6   2774566.05621        16.000           1.469
  21361203.561   -16119959.778 6 -12366701.73122        19.000           1.500
 91  5 21 19 59 29.9980000  0  5G 2G11G16G19G 6
  20267423.818   -20359332.355 7 -15864389.95723        27.750           3.000
  23208613.053    -6358002.315 6  -4954278.90521        14.750           0.688
  23410280.053    -4674769.049 5  -3487010.63021         8.250           0.281
  21384742.623     3580933.975 6   2790330.33121        16.000           1.375
  21354852.045   -16153338.144 6 -12392710.82622        19.250           1.500
 91  5 21 19 59 44.9980000  0  5G 2G11G16G19G 6
  20263557.350   -20379639.933 7 -15880214.02623        27.500           3.094
  23212971.936    -6335107.866 6  -4936439.13721        15.500           0.813
  23414118.397    -4654594.880 5                         8.500
  21388600.654     3601216.558 6                        15.750
  21348504.061   -16186694.911 6 -12418703.08521        19.000           1.469
 91  5 21 19 59 59.9980000  0  5G 2G11G16G19G 6
  20259708.545   -20399870.902 7 -15895978.40323        27.250           3.063
  23217351.107    -6312092.742 6  -4918505.31921        15.500           0.750
  23417974.303    -4634341.565 5                         8.500
  21392471.076     3621551.215 6                        16.000
  21342159.397   -16220029.882 6 -12444678.36322        18.750           1.500
 91  5 21 20  0 14.9980000  0  5G 2G11G16G19G 6
  20255872.717   -20420025.031 7 -15911682.91223        27.500           2.969
  23221752.904    -6288956.958 6  -4900477.49021        15.000           0.719
  23421839.842    -4614009.398 5                         8.500
  21396350.662     3641938.140 6                        16.750
  21335819.818   -16253342.815 6 -12470636.47222        18.750           1.500
 91  5 21 20  0 29.9980000  0  5G 2G11G16G19G 6
  20252052.201   -20440102.442 7 -15927327.63423        27.250           3.063
  23226177.459    -6265700.758 6  -4882355.82221        14.750           0.688
  23425728.482    -4593598.722 5                         8.250
  21400239.662     3662377.356 6                        16.000
  21329486.014   -16286633.524 6 -12496577.25922        19.000           1.563
 91  5 21 20  0 44.9980000  0  5G 2G11G16G19G 6
  20248246.076   -20460104.872 7 -15942913.92923        27.500           3.156
  23230625.537    -6242326.077 6  -4864141.83821        15.250           0.781
  23429622.631    -4573111.583 5                         8.250
  21404138.162     3682867.208 6                        16.250
  21323155.076   -16319903.445 6 -12522501.84822        19.000           1.594
 91  5 21 20  0 59.9980000  0  5G 2G11G16G19G 6
  20244453.928   -20480030.191 7 -15958440.14223        27.250           3.063
  23235095.725    -6218831.182 6  -4845834.17621        15.250           0.844
  23433539.162    -4552546.097 5                         8.250
  21408047.451     3703409.869 6                        16.250
  21316829.201   -16353150.568 6 -12548408.67322        19.250           1.531
 91  5 21 20  1 14.9980000  0  5G 2G11G16G19G 6
  20240677.201   -20499879.509 7 -15973907.12823        27.750           3.094
  23239590.936    -6195217.240 6  -4827433.76521        14.500           0.750
  23437473.201    -4531903.467 5                         8.500
  21411965.748     3724004.235 6                        16.000
  21310505.873   -16386375.810 6 -12574298.44922        19.250           1.563
 91  5 21 20  1 29.9980000  0  5G 2G11G16G19G 6
  20236914.053   -20519652.249 7 -15989314.44523        27.750           3.063
  23244107.100    -6171484.017 6  -4808940.40521        14.500           0.781
  23441411.029    -4511183.511 5                         8.500
  21415896.506     3744651.035 6                        15.750
  21304187.186   -16419578.419 6 -12600170.58722        19.250           1.656
 91  5 21 20  1 44.9980000  0  5G 2G11G16G19G 6
  20233166.592   -20539346.841 7 -16004660.86723        27.750           3.031
  23248645.889    -6147630.227 6  -4790353.07921        14.500           0.625
  23445370.748    -4490385.071 5  -3343336.57721         8.250           0.281
  21419834.592     3765351.780 6   2934032.13021        16.000           1.438
  21297875.037   -16452756.859 6 -12626023.89322        19.250           1.563
 91  5 21 20  1 59.9980000  0  5G 2G11G16G19G 6
  20229434.068   -20558961.661 7 -16019945.13023        27.750           3.156
  23253208.498    -6123654.520 6  -4771670.75821        15.000           0.594
  23449341.850    -4469506.825 5  -3327067.92421         8.000           0.188
  21423785.865     3786108.100 6   2950205.84322        15.500           1.500
  21291565.256   -16485909.287 6 -12651856.93022        19.000           1.656
 91  5 21 20  2 14.9980000  0  5G 2G11G16G19G 6
  20225715.873   -20578498.923 7 -16035168.95123        27.750           3.094
  23257792.857    -6099559.446 6  -4752895.41821        14.750           0.656
  23453327.139    -4448551.255 5  -3310739.01921         7.750           0.344
  21427744.412     3806917.866 6   2966421.20122        16.000           1.500
  21285258.412   -16519037.924 6 -12677671.43022        19.000           1.688
 91  5 21 20  2 29.9980000  0  5G 2G11G16G19G 6
  20222012.490   -20597961.779 7 -16050334.80323        27.500           3.063
  23262400.920    -6075348.301 6  -4734029.63321        14.750           0.750
  23457331.732    -4427521.699 5  -3294352.43421         8.000           0.344
  21431717.732     3827777.963 6   2982675.77421        15.250           1.438
  21278959.779   -16552145.805 6 -12703469.76022        18.750           1.688
 91  5 21 20  2 44.9980000  0  5G 2G11G16G19G 6
  20218323.709   -20617348.911 7 -16065441.64723        27.750           3.031
  23267031.537    -6051019.760 6  -4715072.38221        14.500           0.719
  23461348.912    -4406417.194 5  -3277907.49421         7.750           0.281
  21435690.217     3848689.863 6   2998970.71322        15.500           1.531
  21272666.897   -16585231.200 6 -12729250.56422        19.250           1.688
 91  5 21 20  2 59.9980000  0  5G 2G11G16G19G 6
  20214647.647   -20636663.155 7 -16080491.69323        27.250           3.031
  23271681.100    -6026577.045 6  -4696026.16921        14.500           0.719
  23465381.936    -4385240.917 5  -3261406.61421         8.000           0.406
  21439683.373     3869650.837 6   3015303.89021        15.750           1.469
  21266371.186   -16618296.781 6 -12755015.93522        19.250           1.750
 91  5 21 20  3 14.9980000  0  5G 2G11G16G19G 6
  20210987.217   -20655900.929 7 -16095482.15223        27.250           3.063
  23276356.459    -6002016.867 6  -4676888.41221        14.750           0.750
  23469424.600    -4363989.750 5  -3244847.38421         8.000           0.344
  21443681.467     3890664.305 6   3031677.98122        16.000           1.500
  21260084.584   -16651339.060 6 -12780763.14222        19.500           1.719
 91  5 21 20  3 29.9980000  0  5G 2G11G16G19G 6
  20207340.068   -20675063.449 7 -16110413.97123        27.500           3.063
  23281052.795    -5977340.492 6  -4657660.11521        14.500           0.688
  23473482.279    -4342665.042 5  -3228230.83421         7.500           0.313
  21447693.545     3911729.265 6   3048092.18121        14.500           1.375
  21253802.006   -16684359.002 7 -12806492.94522        20.000           1.781
 91  5 21 20  3 44.9980000  0  5G 2G11G16G19G 6
  20203708.131   -20694153.759 7 -16125289.52523        27.500           3.000
  23285769.693    -5952551.409 6  -4638343.99221        14.500           0.656
  23477552.654    -4321270.106 5  -3211559.57221         7.500           0.344
  21451705.686     3932842.688 6   3064544.15721        15.750           1.438
  21247521.803   -16717359.592 7 -12832207.67122        20.000           1.781
 91  5 21 20  3 59.9980000  0  5G 2G11G16G19G 6
  20200089.607   -20713164.991 7 -16140103.45923        27.500           2.969
  23290508.834    -5927642.773 6  -4618934.70821        14.250           0.656
  23481637.889    -4299798.178 5  -3194828.32121         7.500           0.375
  21455740.264     3954011.677 6   3081039.42421        14.500           1.438
  21241246.654   -16750333.629 7 -12857901.70922        20.000           1.750
 91  5 21 20  4 14.9980000  0  5G 2G11G16G19G 6
  20196485.967   -20732106.188 7 -16154862.81923        27.750           3.031
  23295268.631    -5902623.832 6  -4599439.47221        14.250           0.625
  23485731.701    -4278258.629 4  -3178044.36821         6.750           0.313
  21459772.670     3975227.124 6   3097570.89021        16.000           1.438
  21234974.623   -16783290.059 7 -12883582.02422        20.000           1.719
 91  5 21 20  4 29.9980000  0  5G 2G11G16G19G 6
  20192895.912   -20750972.160 7 -16169563.56223        27.750           3.094
  23300052.014    -5877489.884 6  -4579854.63121        14.500           0.688
  23489842.014    -4256646.709 4  -3161204.03121         7.000           0.375
  21463823.162     3996493.980 6   3114142.41722        14.500           1.531
  21228707.467   -16816223.758 7 -12909244.62922        20.000           1.750
 91  5 21 20  4 44.9980000  0  5G 2G11G16G19G 6
  20189319.764   -20769765.210 7 -16184207.48423        27.750           3.063
  23304858.443    -5852243.366 6  -4560182.06321        15.000           0.656
  23493973.357    -4234965.117 4  -3144309.39721         7.250           0.313
  21467874.397     4017810.289 6   3130752.48021        15.500           1.438
  21222444.443   -16849136.710 6 -12934891.06822        19.750           1.813
 91  5 21 20  4 59.9980000  0  5G 2G11G16G19G 6
  20185757.311   -20788484.780 7 -16198794.15123        27.500           3.063
  23309684.451    -5826883.885 6  -4540421.47521        14.750           0.563
  23498116.818    -4213213.650 5  -3127360.32721         7.500           0.406
  21471946.545     4039176.587 6   3147401.50221        15.250           1.344
  21216186.014   -16882028.307 6 -12960520.86622        19.500           1.719
 91  5 21 20  5 14.9980000  0  5G 2G11G16G19G 6
  20182209.053   -20807130.456 7 -16213323.23723        27.750           3.063
  23314528.670    -5801411.254 6  -4520572.71721        14.500           0.563
  23502267.850    -4191391.830 4  -3110356.40921         7.000           0.469
  21476016.951     4060593.284 6   3164089.78521        16.000           1.375
  21209931.147   -16914897.894 6 -12986133.51122        19.750           1.719
 91  5 21 20  5 29.9980000  0  5G 2G11G16G19G 6
  20178674.811   -20825705.589 7 -16227797.35323        27.500           3.031
  23319399.217    -5775829.219 6  -4500638.70221        14.250           0.531
  23506432.584    -4169503.436 4  -3093300.63321         7.000           0.375
  21480104.568     4082057.190 6   3180814.86121        15.000           1.375
  21203680.225   -16947748.752 7 -13011731.57022        20.000           1.906
 91  5 21 20  5 44.9980000  0  5G 2G11G16G19G 6
  20175153.186   -20844204.258 7 -16242211.89023        27.250           3.094
  23324288.982    -5750132.122 6  -4480615.03321        14.250           0.625
  23510612.303    -4147543.165 4  -3076188.85521         7.000           0.375
  21484195.662     4103574.201 6   3197581.31921        15.750           1.406
  21197433.693   -16980574.884 7 -13037310.35022        20.500           1.781
 91  5 21 20  5 59.9980000  0  5G 2G11G16G19G 6
  20171649.607   -20862625.044 7 -16256565.73623        27.500           3.031
  23329203.631    -5724318.518 6  -4460500.57121        14.500           0.688
  23514809.311    -4125509.651 4  -3059020.01321         7.000           0.344
  21488302.365     4125146.103 6   3214390.54821        15.250           1.406
  21191190.217   -17013374.387 7 -13062868.39222        20.250           1.750
 91  5 21 20  6 14.9980000  0  5G 2G11G16G19G 6
  20168158.115   -20880971.338 7 -16270861.53723        27.500           3.000
  23334133.131    -5698392.337 6  -4440298.40221        14.500           0.563
  23519010.451    -4103406.847 4  -3041797.14721         6.750           0.375
  21492417.397     4146769.291 6   3231239.74221        16.000           1.313
  21184955.748   -17046150.796 7 -13088408.43622        20.250           1.719
 91  5 21 20  6 29.9980000  0  5G 2G11G16G19G 6
  20164681.115   -20899239.678 7 -16285096.59523        27.500           2.813
  23339089.787    -5672350.433 6  -4420006.04121        14.250           0.563
  23523230.115    -4081231.462 4  -3024517.77121         7.250           0.281
  21496543.100     4168447.314 6   3248131.66221        15.500           1.344
  21178722.092   -17078900.683 7 -13113927.80822        20.750           1.875
 91  5 21 20  6 44.9980000  0  5G 2G11G16G19G 6
  20161218.967   -20917432.013 7 -16299272.43123        27.750           3.031
  23344068.912    -5646194.747 6  -4399625.03221        14.000           0.531
  23527463.107    -4058985.613 4  -3007183.45621         7.000           0.281
  21500675.475     4190178.269 6   3265064.83121        16.000           1.406
  21172494.693   -17111625.408 7 -13139427.57622        20.500           1.750
 91  5 21 20  6 59.9980000  0  5G 2G11G16G19G 6
  20157771.772   -20935547.665 7 -16313388.51023        27.500           3.031
  23349065.592    -5619924.719 6  -4379154.92121        14.000           0.656
  23531709.272    -4036668.832 4  -2989793.88321         7.250           0.250
  21504823.936     4211963.051 6   3282039.94721        15.250           1.313
  21166272.920   -17144324.220 7 -13164907.15222        20.750           1.688
 91  5 21 20  7 14.9980000  0  5G 2G11G16G19G 6
  20154339.787   -20953585.076 7 -16327443.62523        27.750           2.969
  23354089.842    -5593539.130 6  -4358594.75621        14.250           0.531
  23535966.123    -4014279.996 4  -2972348.14921         7.250           0.281
  21508976.537     4233803.214 6   3299058.20521        15.500           1.406
  21160054.373   -17176995.524 7 -13190365.29222        20.750           1.750
 91  5 21 20  7 29.9980000  0  5G 2G11G16G19G 6
  20150921.826   -20971547.102 7 -16341439.99723        27.500           3.031
  23359129.326    -5567041.217 6  -4337947.07821        13.750           0.563
  23540241.959    -3991822.270 4  -2954848.73421         7.000           0.313
  21513146.279     4255695.756 6   3316117.29021        15.250           1.406
  21153843.865   -17209642.078 7 -13215804.14622        20.750           1.719
 91  5 21 20  7 44.9980000  0  5G 2G11G16G19G 6
  20147518.037   -20989432.035 7 -16355376.29723        27.500           3.094
  23364194.967    -5540429.523 6  -4317210.73321        14.000           0.438
  23544524.561    -3969294.465 4  -2937294.73221         7.250           0.313
  21517319.873     4277642.505 6   3333218.60821        15.750           1.406
  21147635.272   -17242262.186 7 -13241222.40122        20.750           1.625
 91  5 21 20  7 59.9980000  0  5G 2G11G16G19G 6
  20144129.951   -21007243.334 7 -16369255.22023        27.500           2.969
  23369279.272    -5513707.689 6  -4296388.57221        14.000           0.531
  23548824.506    -3946699.960 4  -2919688.74721         7.250           0.344
  21521506.357     4299640.033 6   3350359.49221        15.250           1.219
  21141433.334   -17274858.816 7 -13266622.35022        20.750           1.781
 91  5 21 20  8 14.9980000  0  5G 2G11G16G19G 6
  20140753.701   -21024978.820 7 -16383075.07323        27.250           3.031
  23374385.225    -5486873.802 6  -4275479.07821        13.750           0.656
  23553141.600    -3924036.939 5  -2902029.37721         7.500           0.313
  21525701.639     4321690.660 6   3367541.75721        15.750           1.344
  21135234.334   -17307429.763 7 -13292002.29622        20.500           1.688
 91  5 21 20  8 29.9980000  0  5G 2G11G16G19G 6
  20137392.475   -21042637.411 7 -16396835.00423        27.000           3.063
  23379511.732    -5459927.018 6  -4254481.63821        13.250           0.594
  23557467.100    -3901304.627 4  -2884316.00521         7.250           0.281
  21529912.670     4343795.593 6   3384766.33221        14.250           1.375
  21129042.397   -17339973.739 7 -13317361.21922        20.750           1.625
 91  5 21 20  8 44.9980000  0  5G 2G11G16G19G 6
  20134047.842   -21060218.721 7 -16410534.72023        27.500           2.969
  23384663.553    -5432867.177 6  -4233396.08821        13.000           0.563
  23561809.053    -3878503.122 5  -2866548.73921         7.500           0.250
  21534126.436     4365955.295 6   3402033.58121        15.750           1.313
  21122853.623   -17372490.246 7 -13342698.74222        20.750           1.750
 91  5 21 20  8 59.9980000  0  5G 2G11G16G19G 6
  20130715.803   -21077724.956 7 -16424175.93223        27.250           3.000
  23389833.381    -5405696.809 6  -4212224.42321        13.500           0.531
  23566154.857    -3855634.946 4  -2848729.48921         7.250           0.250
  21538354.725     4388167.414 6   3419341.68921        15.500           1.281
  21116671.272   -17404981.419 7 -13368016.52422        20.500           1.688
 91  5 21 20  9 14.9980000  0  5G 2G11G16G19G 6
  20127398.850   -21095156.502 7 -16437758.94923        27.500           2.969
  23395024.545    -5378416.325 6  -4190966.94021        13.750           0.656
  23570521.576    -3832700.514 4  -2830858.64321         7.250           0.313
  21542589.545     4410431.767 6   3436690.48321        15.500           1.281
  21110493.959   -17437447.207 7 -13393314.52322        20.500           1.656
 91  5 21 20  9 29.9980000  0  5G 2G11G16G19G 6
  20124096.607   -21112512.676 7 -16451283.23023        27.500           3.063
  23400235.654    -5351025.352 6  -4169623.36021        13.250           0.531
  23574902.537    -3809699.629 5  -2812935.98121         7.750           0.188
  21546838.662     4432748.986 6   3454080.47921        15.000           1.281
  21104319.514   -17469886.928 7 -13418592.21022        20.500           1.656
 91  5 21 20  9 44.9980000  0  5G 2G11G16G19G 6
  20120808.139   -21129791.492 7 -16464747.23923        27.500           3.000
  23405466.826    -5323522.115 6  -4148192.31021        12.750           0.594
  23579296.022    -3786630.467 5  -2794960.15121         8.250           0.156
  21551094.350     4455121.399 6   3471513.49121        15.250           1.281
  21098151.217   -17502298.317 7 -13443847.82122        20.750           1.656
 91  5 21 20  9 59.9980000  0  5G 2G11G16G19G 6
  20117534.936   -21146994.615 7 -16478152.25823        27.250           3.031
  23410726.639    -5295908.521 6  -4126675.26721        13.000           0.656
  23583694.537    -3763494.953 5  -2776932.61421         8.250           0.188
  21555362.904     4477547.318 6   3488988.18521        15.000           1.344
  21091988.186   -17534682.900 7 -13469082.54422        20.000           1.656
 91  5 21 20 10 14.9980000  0  5G 2G11G16G19G 6
  20114275.982   -21164122.431 7 -16491498.60323        27.000           3.094
  23415999.967    -5268185.408 6  -4105072.88521        13.250           0.625
  23588110.951    -3740293.846 5  -2758853.94321         8.000           0.063
  21559639.811     4500026.200 6   3506504.15721        15.500           1.281
  21085832.342   -17567041.076 7 -13494296.68922        20.000           1.781
 91  5 21 20 10 29.9980000  0  5G 2G11G16G19G 6
  20111030.764   -21181176.228 7 -16504787.27023        27.250           3.031
  23421297.061    -5240354.241 6  -4083386.31021        13.250           0.594
  23592537.615    -3717028.788 5  -2740725.43821         8.000           0.156
  21563927.248     4522556.774 6   3524060.40021        15.000           1.344
  21079677.811   -17599373.881 7 -13519491.07022        20.250           1.625
 91  5 21 20 10 44.9980000  0  5G 2G11G16G19G 6
  20107799.350   -21198154.981 7 -16518017.45723        27.500           3.063
  23426613.115    -5212414.144 6  -4061614.85221        13.500           0.625
  23596979.514    -3693699.197 5  -2722546.68221         8.000           0.156
  21568223.061     4545140.181 6   3541657.81821        15.000           1.219
  21073530.436   -17631680.170 7 -13544664.78022        20.250           1.625
 91  5 21 20 10 59.9980000  0  5G 2G11G16G19G 6
  20104582.272   -21215062.099 7 -16531191.82923        27.500           3.125
  23431950.162    -5184369.054 6  -4039761.58421        13.500           0.625
  23601434.498    -3670308.940 5  -2704320.62521         8.250           0.094
  21572532.623     4567772.875 6   3559293.63721        15.250           1.281
  21067386.928   -17663963.337 7 -13569820.47422        20.250           1.531
 91  5 21 20 11 14.9980000  0  5G 2G11G16G19G 6
  20101377.779   -21231897.777 7 -16544310.52523        27.500           3.031
  23437308.654    -5156219.268 6  -4017826.71421        13.750           0.594
  23605893.623    -3646858.233 5  -2686047.44721         8.000           0.156
  21576846.889     4590455.166 6   3576968.10321        15.250           1.219
  21061248.584   -17696223.220 7 -13594958.03122        20.000           1.688
 91  5 21 20 11 29.9980000  0  5G 2G11G16G19G 6
  20098189.084   -21248660.162 8 -16557372.12223        28.000           2.938
  23442683.311    -5127963.139 6  -3995808.99821        13.750           0.531
  23610367.420    -3623345.502 5  -2667725.96621         7.750           0.156
  21581174.186     4613188.845 6   3594682.61221        15.000           1.313
  21055114.990   -17728457.815 7 -13620075.88122        20.250           1.750
 91  5 21 20 11 44.9980000  0  5G 2G11G16G19G 6
  20095013.451   -21265348.185 7 -16570375.76723        27.750           3.063
  23448080.115    -5099599.876 6  -3973707.81021        13.750           0.594
  23614850.639    -3599770.039 4  -2649355.61521         7.000           0.156
  21585510.201     4635975.036 6   3612438.04421        15.500           1.250
  21048986.295   -17760665.795 7 -13645172.99222        20.250           1.750
 91  5 21 20 11 59.9980000  0  4G 2G11G19G 6
  20091851.576   -21281963.448 7 -16583322.72023        27.750           3.000
  23453499.037    -5071131.243 6  -3951524.50621        14.250           0.563
  21589856.553     4658812.222 6   3630233.21021        14.750           1.281
  21042860.725   -17792848.668 7 -13670250.54222        20.250           1.750
 91  5 21 20 12 14.9980000  0  4G 2G11G19G 6
  20088703.061   -21298504.349 7 -16596211.72523        27.500           2.969
  23458936.772    -5042555.812 6  -3929257.98321        14.250           0.531
  21594210.092     4681702.019 6   3648069.36821        15.250           1.219
  21036741.787   -17825004.593 7 -13695307.08922        20.000           1.781
 91  5 21 20 12 29.9980000  0  4G 2G11G19G 6
  20085570.357   -21314970.190 7 -16609042.24623        27.750           3.031
  23464393.373    -5013873.132 6  -3906907.88521        14.250           0.531
  21598579.693     4704645.330 6   3665947.22621        14.750           1.219
  21030630.678   -17857132.679 7 -13720341.94222        20.250           1.813
 91  5 21 20 12 44.9980000  0  4G 2G11G19G 6
  20082451.131   -21331359.126 7 -16621812.83923        27.500           2.906
  23469874.693    -4985081.781 6  -3884473.11521        14.500           0.563
  21602953.014     4727643.976 6   3683868.20621        15.000           1.250
  21024520.740   -17889231.065 7 -13745353.65422        20.500           1.844
 91  5 21 20 12 59.9980000  0  4G 2G11G19G 6
  20079348.014   -21347671.244 8 -16634523.57723        28.000           2.938
  23475371.982    -4956182.128 6  -3861953.94321        14.000           0.563
  21607341.647     4750697.647 6   3701832.05921        15.000           1.250
  21018418.443   -17921299.651 7 -13770342.14822        20.250           1.688
 91  5 21 20 13 14.9980000  0  4G 2G11G19G 6
  20076258.256   -21363908.635 7 -16647176.08223        27.750           3.000
  23480892.787    -4927176.295 6  -3839352.04321        14.000           0.656
  21611737.748     4773804.647 6   3719837.47121        15.000           1.344
  21012319.287   -17953340.133 7 -13795308.74522        20.500           1.750
 91  5 21 20 13 29.9980000  0  4G 2G11G19G 6
  20073181.154   -21380074.157 7 -16659772.58923        27.750           3.094
  23486430.951    -4898067.610 6  -3816670.00221        13.750           0.625
  21616143.881     4796962.009 6   3737882.11721        15.250           1.219
  21006229.889   -17985355.444 7 -13820255.72322        20.750           1.969
 91  5 21 20 13 44.9980000  0  4G 2G11G19G 6
  20070119.225   -21396161.479 7 -16672308.15923        27.500           2.938
  23491993.100    -4868849.994 6  -3793903.07421        13.500           0.563
  21620562.006     4820176.041 6   3755970.93321        15.000           1.250
  21000141.857   -18017339.018 7 -13845177.97522        20.750           1.813
 91  5 21 20 13 59.9980000  0  4G 2G11G19G 6
  20067073.865   -21412172.414 7 -16684784.20723        27.750           3.000
  23497571.693    -4839525.649 6  -3771052.98321        13.250           0.563
  21624992.115     4843444.890 6   3774102.46621        14.750           1.219
  20994062.365   -18049292.632 7 -13870076.88322        20.750           1.875
 91  5 21 20 14 14.9980000  0  4G 2G11G19G 6
  20064039.826   -21428107.963 7 -16697201.50923        27.750           3.031
  23503171.662    -4810095.707 6  -3748120.61421        13.000           0.531
  21629427.428     4866767.731 6   3792276.05921        14.750           1.219
  20987987.857   -18081217.043 7 -13894953.03622        20.500           1.875
 91  5 21 20 14 29.9980000  0  4G 2G11G19G 6
  20061022.076   -21443971.344 8 -16709562.57923        28.000           2.906
  23508792.389    -4780563.557 6  -3725108.58821        13.500           0.563
  21633878.256     4890141.639 6   3810489.45121        15.000           1.156
  20981916.857   -18113115.215 7 -13919808.73722        20.500           2.000
 91  5 21 20 14 44.9980000  0  4G 2G11G19G 6
  20058018.897   -21459760.005 8 -16721865.42423        28.250           3.031
  23514431.506    -4750926.797 6  -3702015.07221        13.250           0.625
  21638332.850     4913569.204 6   3828744.65121        14.500           1.219
  20975853.232   -18144984.280 7 -13944641.76422        20.750           1.938
 91  5 21 20 14 59.9980000  0  4G 2G11G19G 6
  20055026.600   -21475473.937 8 -16734110.03723        28.000           3.063
  23520093.443    -4721185.763 6  -3678840.28621        12.500           0.594
  21642806.467     4937050.382 6   3847041.62821        14.000           1.250
  20969792.404   -18176824.113 7 -13969452.00922        21.000           1.875
 91  5 21 20 15 14.9980000  0  4G 2G11G19G 6
  20052051.272   -21491113.926 7 -16746297.03123        27.750           2.969
  23525770.100    -4691341.674 6  -3655585.21721        12.250           0.594
  21647280.787     4960584.440 6   3865379.81521        15.000           1.219
  20963740.787   -18208635.463 7 -13994240.04622        21.250           2.000
 91  5 21 20 15 29.9980000  0  4G 2G11G19G 6
  20049087.318   -21506681.087 7 -16758427.27823        27.750           3.000
  23531468.389    -4661395.823 6  -3632250.84421        12.500           0.656
  21651769.936     4984170.442 6   3883758.46921        14.750           1.219
  20957692.889   -18240419.101 7 -14019006.51222        21.500           1.813
 91  5 21 20 15 44.9980000  0  4G 2G11G19G 6
  20046140.764   -21522171.426 7 -16770497.66723        27.750           3.000
  23537189.264    -4631344.373 6  -3608834.17921        12.750           0.500
  21656269.264     5007812.292 6   3902180.64221        14.750           1.156
  20951650.412   -18272170.926 7 -14043748.18222        21.500           1.969
 91  5 21 20 15 59.9980000  0  4G 2G11G19G 6
  20043208.061   -21537586.371 7 -16782509.30523        27.750           2.969
  23542925.647    -4601189.067 6  -3585336.59121        12.750           0.531
  21660782.420     5031508.553 6   3920645.21921        13.000           1.219
  20945613.295   -18303892.150 7 -14068466.00822        21.750           2.000
 91  5 21 20 16 14.9980000  0  4G 2G11G19G 6
  20040288.857   -21552928.456 8 -16794464.16623        28.000           3.063
  23548682.600    -4570932.784 6  -3561760.30621        12.750           0.531
  21665298.662     5055256.748 6   3939150.26021        15.000           1.156
  20939581.811   -18335585.209 7 -14093161.88022        21.500           1.969
 91  5 21 20 16 29.9980000  0  4G 2G11G19G 6
  20037382.772   -21568196.220 8 -16806361.12023        28.250           3.031
  23554461.295    -4540574.293 6  -3538104.39721        12.250           0.500
  21669831.998     5079058.487 6   3957697.02121        13.750           1.094
  20933557.443   -18367248.453 7 -14117834.52622        21.750           2.063
 91  5 21 20 16 44.9980000  0  4G 2G11G19G 6
  20034491.639   -21583390.354 8 -16818200.69823        28.250           3.094
  23560255.725    -4510114.564 6  -3514369.59021        12.250           0.469
  21674363.693     5102912.962 6   3976284.87021        14.750           1.094
  20927536.686   -18398882.484 7 -14142484.40822        21.750           2.094
 91  5 21 20 16 59.9980000  0  4G 2G11G19G 6
  20031613.662   -21598513.092 8 -16829984.63823        28.500           2.969
  23566071.936    -4479555.917 6  -3490557.70321        12.250           0.531
  21678918.529     5126818.133 6   3994912.22821        13.250           1.188
  20921522.873   -18430489.087 7 -14167112.91722        21.500           2.063
 91  5 21 20 17 14.9980000  0  4G 2G11G19G 6
  20028750.350   -21613559.255 8 -16841708.91623        28.250           3.094
  23571907.326    -4448893.553 6  -3466665.01121        12.000           0.500
  21683474.811     5150779.431 6   4013583.31721        15.250           1.125
  20915516.686   -18462063.053 7 -14191715.99522        22.250           2.125
 91  5 21 20 17 29.9980000  0  4G 2G11G19G 6
  20025902.568   -21628529.687 8 -16853374.17323        28.500           3.094
  23577763.639    -4418128.673 6  -3442692.42421        12.250           0.438
  21688048.576     5174795.895 6   4032297.39521        13.750           1.188
  20909512.053   -18493605.025 7 -14216294.14222        21.750           2.063
 91  5 21 20 17 44.9980000  0  4G 2G11G19G 6
  20023067.725   -21643423.486 8 -16864979.72123        28.000           3.000
  23583634.490    -4387260.660 6  -3418639.47621        12.000           0.531
  21692625.147     5198868.337 6   4051055.08821        15.000           1.063
  20903516.311   -18525114.023 7 -14240846.59222        21.750           1.938
 91  5 21 20 17 59.9980000  0  4G 2G11G19G 6
  20020247.287   -21658244.550 8 -16876528.59123        28.250           2.875
  23589528.631    -4356293.545 5  -3394509.29021        11.750           0.406
  21697219.998     5222993.197 6   4069853.63421        13.750           1.219
  20897525.287   -18556593.650 7 -14265376.15922        21.750           2.031
 91  5 21 20 18 14.9980000  0  4G 2G11G19G 6
  20017440.420   -21672990.904 8 -16888019.24623        28.000           2.969
  23595439.865    -4325225.483 5  -3370300.46121        11.750           0.344
  21701816.537     5247172.665 6   4088694.72321        14.750           1.125
  20891542.037   -18588041.550 7 -14289881.00222        22.000           2.188
 91  5 21 20 18 29.9980000  0  4G 2G11G19G 6
  20014649.584   -21687661.068 8 -16899450.53323        28.000           3.000
  23601371.654    -4294055.266 5  -3346012.02921        11.750           0.406
  21706432.240     5271407.932 6   4107579.29721        14.250           1.156
  20885564.576   -18619456.232 7 -14314359.96122        22.250           2.156
 91  5 21 20 18 44.9980000  0  4G 2G11G19G 6
  20011872.053   -21702257.501 8 -16910824.36423        28.250           2.938
  23607321.779    -4262785.771 5  -3321646.22921        11.500           0.406
  21711051.264     5295696.484 6   4126505.38821        15.000           1.063
  20879590.693   -18650840.031 7 -14338814.85622        22.000           2.125
 91  5 21 20 18 59.9980000  0  4G 2G11G19G 6
  20009108.990   -21716778.241 8 -16922139.21723        28.500           2.938
  23613291.607    -4231415.189 5  -3297201.68321        11.750           0.438
  21715684.123     5320040.624 6   4145474.79721        13.750           1.125
  20873625.803   -18682190.642 7 -14363243.89222        22.250           2.094
 91  5 21 20 19 14.9980000  0  4G 2G11G19G 6
  20006358.397   -21731229.516 8 -16933399.94123        28.250           2.969
  23619282.451    -4199950.186 6  -3272683.51821        12.000           0.375
  21720325.897     5344433.959 6   4164482.53321        14.500           1.125
  20867663.998   -18713514.172 7 -14387651.82222        22.250           2.125
 91  5 21 20 19 29.9980000  0  4G 2G11G19G 6
  20003623.092   -21745607.693 8 -16944603.70823        28.000           3.031
  23625288.701    -4168387.305 6  -3248089.12621        12.250           0.375
  21724979.428     5368880.165 6   4183531.47721        14.000           1.000
  20861710.318   -18744806.779 7 -14412035.65922        22.250           2.125
 91  5 21 20 19 44.9980000  0  4G 2G11G19G 6
  20000900.897   -21759912.471 8 -16955750.27823        28.000           2.969
  23631310.553    -4136726.540 6  -3223418.46021        12.000           0.438
  21729640.975     5393379.617 6   4202621.91221        14.750           1.094
  20855761.467   -18776068.078 7 -14436395.09922        22.250           2.125
 91  5 21 20 19 59.9980000  0  4G 2G11G19G 6
  19998193.615   -21774139.665 8 -16966836.39423        28.000           3.000
  23637354.443    -4104963.921 6  -3198668.37921        12.250           0.406
  21734314.162     5417936.701 6   4221757.24521        13.750           1.031
  20849818.873   -18807293.531 7 -14460726.60922        21.750           2.219
 91  5 21 20 20 14.9980000  0  4G 2G11G19G 6
  19995500.022   -21788291.431 7 -16977863.73523        27.750           3.000
  23643418.670    -4073101.851 6  -3173840.82021        12.500           0.375
  21738996.311     5442549.293 6   4240935.84021        14.250           1.031
  20843883.889   -18838485.163 7 -14485031.76922        21.750           2.156
 91  5 21 20 20 29.9980000  0  4G 2G11G19G 6
  19992821.053   -21802369.866 7 -16988833.93223        27.500           2.906
  23649501.709    -4041142.770 6  -3148937.69521        12.250           0.406
  21743692.561     5467215.431 6   4260156.15821        14.000           1.031
  20837955.076   -18869644.829 7 -14509312.01522        22.000           2.156
 91  5 21 20 20 44.9980000  0  4G 2G11G19G 6
  19990156.303   -21816374.551 7 -16999746.67023        27.500           3.000
  23655600.592    -4009086.591 6  -3123958.90121        12.250           0.500
  21748393.623     5491935.585 6   4279418.56821        14.250           1.000
  20832032.272   -18900771.985 7 -14533566.92722        21.750           2.250
 91  5 21 20 20 59.9980000  0  4G 2G11G19G 6
  19987505.389   -21830303.335 8 -17010600.25823        28.000           2.906
  23661718.779    -3976931.247 6  -3098902.85321        12.500           0.438
  21753114.670     5516711.866 6   4298724.70821        12.750           0.969
  20826116.006   -18931864.161 7 -14557794.57822        22.000           2.125
 91  5 21 20 21 14.9980000  0  4G 2G11G19G 6
  19984867.990   -21844157.926 7 -17021396.03623        27.750           2.875
  23667855.240    -3944678.951 6  -3073771.24721        12.500           0.594
  21757834.561     5541542.351 6   4318073.08821        14.000           1.125
  20820203.920   -18962923.121 7 -14581996.35522        22.000           2.125
 91  5 21 20 21 29.9980000  0  4G 2G11G19G 6
  19982247.779   -21857940.137 8 -17032135.41123        28.000           3.031
  23674011.857    -3912331.573 6  -3048565.53821        12.500           0.438
  21762570.678     5566425.878 6   4337462.78921        13.750           1.063
  20814299.420   -18993950.160 7 -14606173.25222        22.000           2.094
 91  5 21 20 21 44.9980000  0  4G 2G11G19G 6
  19979637.482   -21871649.506 8 -17042818.02723        28.000           2.906
  23680188.600    -3879888.979 6  -3023285.64321        12.750           0.531
  21767314.053     5591362.810 6   4356894.11421        13.750           0.938
  20808401.381   -19024944.848 7 -14630324.94022        22.250           2.156
 91  5 21 20 21 59.9980000  0  4G 2G11G19G 6
  19977042.522   -21885284.536 8 -17053442.72323        28.250           3.000
  23686377.709    -3847349.903 6  -2997930.56021        12.500           0.500
  21772074.068     5616354.657 6   4376368.22521        13.500           1.000
  20802509.951   -19055905.346 7 -14654449.99022        22.000           2.219
 91  5 21 20 22 14.9980000  0  4G 2G11G19G 6
  19974461.506   -21898848.782 8 -17064012.25523        28.250           2.969
  23692588.795    -3814718.218 6  -2972503.31121        12.000           0.344
  21776834.170     5641397.957 6   4395882.43021        13.750           0.969
  20796624.029   -19086835.064 7 -14678551.05422        22.000           2.219
 91  5 21 20 22 29.9980000  0  4G 2G11G19G 6
  19971895.522   -21912339.747 8 -17074524.69123        28.250           3.000
  23698816.311    -3781991.669 5  -2947002.15521        11.500           0.469
  21781613.592     5666495.022 6   4415438.53521        13.250           1.094
  20790744.342   -19117731.386 7 -14702626.09422        22.250           2.125
 91  5 21 20 22 44.9980000  0  4G 2G11G19G 6
  19969340.592   -21925758.688 8 -17084981.00323        28.250           2.906
  23705062.123    -3749171.612 5  -2921428.14921        10.750           0.500
  21786398.373     5691644.966 6   4435035.83821        14.250           0.875
  20784871.631   -19148595.125 7 -14726675.74822        22.000           2.063
 91  5 21 20 22 59.9980000  0  4G 2G11G19G 6
  19966800.959   -21939103.215 8 -17095379.33523        28.250           2.938
  23711322.357    -3716256.033 5  -2895779.69621         9.750           0.500
  21791197.701     5716850.147 6   4454676.18821        13.750           1.031
  20779005.068   -19179423.734 7 -14750698.02722        22.500           2.125
 91  5 21 20 23 14.9980000  0  4G 2G11G19G 6
  19964277.068   -21952373.055 8 -17105719.46723        28.250           2.938
  23717608.584    -3683244.992 5  -2870056.86621        10.250           0.500
  21796001.522     5742110.700 6   4474359.68221        14.000           1.000
  20773145.428   -19210216.905 7 -14774692.69522        22.250           2.125
 91  5 21 20 23 29.9980000  0  4G 2G11G19G 6
  19961764.857   -21965569.232 8 -17116002.19923        28.250           2.875
  23723909.287    -3650139.912 5  -2844260.75721        10.750           0.563
  21800820.147     5767425.514 6   4494085.46221        13.250           0.906
  20767293.615   -19240975.563 7 -14798660.46822        22.250           2.156
